[[{"header":{"parameterUnit":"m.s-1","parameterCategory":1,"la1":31.0,"la2":29.5877,"lo1":-88.7671,"lo2":-86.6584,"dx":0.0162,"dy":0.0185,"nx":115,"ny":88,"refTime":"2022-11-03T06:00:00:Z","depth":0,"parameterNumber":2,"parameterNumberName":"U-component_of_WINDS"},"data":[0.0,0.0,0.0,0.0,0.0,0.0,0.0,0.0,0.0,0.0,0.0,0.0,0.0,0.0,0.0,0.0,0.0,0.0,0.0,0.0,0.0,0.0,0.0,0.0,0.0,0.0,0.0,0.0,0.0,0.0,0.0,0.0,0.0,0.0,0.0,0.0,0.0,0.0,0.0,0.0,0.0,0.0,0.0,0.0,0.0,0.0,0.0,0.0,0.0,0.0,0.0,0.0,0.0,0.0,0.0,0.0,0.0,0.0,0.0,0.0,0.0,0.0,0.0,0.0,0.0,0.0,0.0,0.0,0.0,0.0,0.0,0.0,0.0,0.0,0.0,0.0,0.0,0.0,0.0,0.0,0.0,0.0,0.0,0.0,0.0,0.0,0.0,0.0,0.0,0.0,0.0,0.0,0.0,0.0,0.0,0.0,0.0,0.0,0.0,0.0,0.0,0.0,0.0,0.0,0.0,0.0,0.0,0.0,0.0,0.0,0.0,0.0,0.0,0.0,0.0,0.0,0.0,0.0,0.0,0.0,0.0,0.0,0.0,0.0,0.0,0.0,0.0,0.0,0.0,0.0,0.0,0.0,0.0,0.0,0.0,0.0,0.0,0.0,0.0,0.0,0.0,0.0,0.0,0.0,0.0,0.0,0.0,0.0,0.0,0.0,0.0,0.0,0.0,0.0,0.0,0.0,0.0,0.0,0.0,0.0,0.0,0.0,0.0,0.0,0.0,0.0,0.0,0.0,0.0,0.0,0.0,0.0,0.0,0.0,0.0,0.0,0.0,0.0,0.0,0.0,0.0,0.0,0.0,0.0,0.0,0.0,0.0,0.0,0.0,0.0,0.0,0.0,0.0,0.0,0.0,0.0,0.0,0.0,0.0,0.0,0.0,0.0,0.0,0.0,0.0,0.0,0.0,0.0,0.0,0.0,0.0,0.0,0.0,0.0,0.0,0.0,0.0,0.0,0.0,0.0,0.0,0.0,0.0,0.0,0.0,0.0,0.0,0.0,0.0,0.0,0.0,0.0,0.0,0.0,0.0,0.0,0.0,0.0,0.0,0.0,0.0,0.0,0.0,0.0,0.0,0.0,0.0,0.0,0.0,0.0,0.0,0.0,0.0,0.0,0.0,0.0,0.0,0.0,0.0,0.0,0.0,0.0,0.0,0.0,0.0,0.0,0.0,0.0,0.0,0.0,0.0,0.0,0.0,0.0,0.0,0.0,0.0,0.0,0.0,0.0,0.0,0.0,0.0,0.0,0.0,0.0,0.0,0.0,0.0,0.0,0.0,0.0,0.0,0.0,0.0,0.0,0.0,0.0,0.0,0.0,0.0,0.0,0.0,0.0,0.0,0.0,0.0,0.0,0.0,0.0,0.0,0.0,0.0,0.0,0.0,0.0,0.0,0.0,0.0,0.0,0.0,0.0,0.0,0.0,0.0,0.0,0.0,0.0,0.0,0.0,0.0,0.0,0.0,0.0,0.0,0.0,0.0,0.0,0.0,0.0,0.0,0.0,0.0,0.0,0.0,0.0,0.0,0.0,0.0,0.0,0.0,0.0,0.0,0.0,0.0,0.0,0.0,0.0,0.0,0.0,0.0,0.0,0.0,0.0,0.0,0.0,0.0,0.0,0.0,0.0,0.0,0.0,0.0,0.0,0.0,0.0,0.0,0.0,0.0,0.0,0.0,0.0,0.0,0.0,0.0,0.0,0.0,0.0,0.0,0.0,0.0,0.0,0.0,0.0,0.0,0.0,0.0,0.0,0.0,0.0,0.0,0.0,0.0,0.0,0.0,0.0,0.0,0.0,0.0,0.0,0.0,0.0,0.0,0.0,0.0,0.0,0.0,0.0,0.0,0.0,0.0,0.0,0.0,0.0,0.0,0.0,0.0,0.0,0.0,0.0,0.0,0.0,0.0,0.0,0.0,0.0,0.0,0.0,0.0,0.0,0.0,0.0,0.0,0.0,0.0,0.0,0.0,0.0,0.0,0.0,0.0,0.0,0.0,0.0,0.0,0.0,0.0,0.0,0.0,0.0,0.0,0.0,0.0,0.0,0.0,0.0,0.0,0.0,0.0,0.0,0.0,0.0,0.0,0.0,0.0,0.0,0.0,0.0,0.0,0.0,0.0,0.0,0.0,0.0,0.0,0.0,0.0,0.0,0.0,0.0,0.0,0.0,0.0,0.0,0.0,0.0,0.0,0.0,0.0,0.0,0.0,0.0,0.0,0.0,0.0,0.0,0.0,0.0,0.0,0.0,0.0,0.0,0.0,0.0,0.0,0.0,0.0,0.0,0.0,0.0,0.0,0.0,0.0,0.0,0.0,0.0,0.0,0.0,0.0,0.0,0.0,0.0,0.0,0.0,0.0,0.0,0.0,0.0,0.0,0.0,0.0,0.0,0.0,0.0,0.0,0.0,0.0,0.0,0.0,0.0,0.0,0.0,0.0,0.0,0.0,0.0,0.0,0.0,0.0,0.0,0.0,0.0,0.0,0.0,0.0,0.0,0.0,0.0,0.0,0.0,0.0,0.0,0.0,0.0,0.0,0.0,0.0,0.0,0.0,0.0,0.0,0.0,0.0,0.0,0.0,0.0,0.0,0.0,0.0,0.0,0.0,0.0,0.0,0.0,0.0,0.0,0.0,0.0,0.0,0.0,0.0,0.0,0.0,0.0,0.0,0.0,0.0,0.0,0.0,0.0,0.0,0.0,0.0,0.0,0.0,0.0,0.0,0.0,0.0,0.0,0.0,0.0,0.0,0.0,0.0,0.0,0.0,0.0,0.0,0.0,0.0,0.0,0.0,0.0,0.0,0.0,0.0,0.0,0.0,0.0,0.0,0.0,0.0,0.0,0.0,0.0,0.0,0.0,0.0,0.0,0.0,0.0,0.0,0.0,0.0,0.0,0.0,0.0,0.0,0.0,0.0,0.0,0.0,0.0,0.0,0.0,0.0,0.0,0.0,0.0,0.0,0.0,0.0,0.0,0.0,0.0,0.0,0.0,0.0,0.0,0.0,0.0,0.0,0.0,0.0,0.0,0.0,0.0,0.0,0.0,0.0,0.0,0.0,0.0,0.0,0.0,0.0,0.0,0.0,0.0,0.0,0.0,0.0,0.0,0.0,0.0,0.0,0.0,0.0,0.0,0.0,0.0,0.0,0.0,0.0,0.0,0.0,0.0,0.0,0.0,0.0,0.0,0.0,0.0,0.0,0.0,0.0,0.0,0.0,0.0,0.0,0.0,0.0,0.0,0.0,0.0,0.0,0.0,0.0,0.0,0.0,0.0,0.0,0.0,0.0,0.0,0.0,0.0,0.0,0.0,0.0,0.0,0.0,0.0,0.0,0.0,0.0,0.0,0.0,0.0,0.0,0.0,0.0,0.0,0.0,0.0,0.0,0.0,0.0,0.0,0.0,0.0,0.0,0.0,0.0,0.0,0.0,0.0,0.0,0.0,0.0,0.0,0.0,0.0,0.0,0.0,0.0,0.0,0.0,0.0,0.0,0.0,0.0,0.0,0.0,0.0,0.0,0.0,0.0,0.0,0.0,0.0,0.0,0.0,0.0,0.0,0.0,0.0,0.0,0.0,0.0,0.0,0.0,0.0,0.0,0.0,0.0,0.0,0.0,0.0,0.0,0.0,0.0,0.0,0.0,0.0,0.0,0.0,0.0,0.0,0.0,0.0,0.0,0.0,0.0,0.0,0.0,0.0,0.0,0.0,0.0,0.0,0.0,0.0,0.0,0.0,0.0,0.0,0.0,0.0,0.0,0.0,0.0,0.0,0.0,0.0,0.0,0.0,0.0,0.0,0.0,0.0,0.0,0.0,0.0,0.0,0.0,0.0,0.0,0.0,0.0,0.0,0.0,0.0,0.0,0.0,0.0,0.0,0.0,0.0,0.0,0.0,0.0,0.0,0.0,0.0,0.0,0.0,0.0,0.0,0.0,0.0,0.0,0.0,0.0,0.0,0.0,0.0,0.0,0.0,0.0,0.0,0.0,0.0,0.0,0.0,0.0,0.0,0.0,0.0,0.0,0.0,0.0,0.0,0.0,0.0,0.0,0.0,0.0,0.0,0.0,0.0,0.0,0.0,0.0,0.0,0.0,0.0,0.0,0.0,0.0,0.0,0.0,0.0,0.0,0.0,0.0,0.0,0.0,0.0,0.0,0.0,0.0,0.0,0.0,0.0,0.0,0.0,0.0,0.0,0.0,0.0,0.0,0.0,0.0,0.0,0.0,0.0,0.0,0.0,0.0,0.0,0.6898,0.0,0.0,0.0,0.7231,0.0,0.0,0.0,0.0,0.0,0.0,0.0,0.0,0.0,0.0,0.0,0.0,0.0,0.0,0.0,0.0,0.0,0.0,0.0,0.0,0.0,0.0,0.0,0.0,0.0,0.0,0.0,0.0,0.0,0.0,0.0,0.0,0.0,0.0,0.0,0.0,0.0,0.0,0.0,0.0,0.0,0.0,0.0,0.0,0.0,0.0,0.0,0.0,0.0,0.0,0.0,0.0,0.0,0.0,0.0,0.0,0.0,0.0,0.0,0.0,0.0,0.0,0.0,0.0,0.0,0.0,0.0,0.0,0.0,0.0,0.0,0.0,0.0,0.0,0.0,0.0,0.0,0.0,0.0,0.0,0.0,0.0,0.0,0.0,0.0,0.0,0.0,0.0,0.0,0.0,0.0,0.0,0.0,0.0,0.0,0.0,0.0,0.0,0.0,0.0,0.0,0.0,0.0,0.0,0.0,0.0,0.0,0.0,0.0,0.0,0.6133,0.62,0.5994,0.5892,0.592,0.0,0.0,0.0,0.0,0.0,0.0,0.0,0.0,0.0,0.0,0.0,0.0,0.0,0.0,0.0,0.0,0.0,0.0,0.0,0.0,0.0,0.0,0.0,0.0,0.0,0.0,0.0,0.0,0.0,0.0,0.0,0.0,0.0,0.0,0.0,0.0,0.0,0.0,0.0,0.0,0.0,0.0,0.0,0.0,0.0,0.0,0.0,0.0,0.0,0.0,0.0,0.0,0.0,0.0,0.0,0.0,0.0,0.0,0.0,0.0,0.0,0.0,0.0,0.0,0.0,0.0,0.0,0.0,0.0,0.0,0.0,0.0,0.0,0.0,0.0,0.0,0.0,0.0,0.0,0.0,0.0,0.0,0.0,0.0,0.0,0.0,0.0,0.0,0.0,0.0,0.0,0.0,0.0,0.0,0.0,0.0,0.0,0.0,0.0,0.0,0.0,0.0,0.0,0.0,0.0,0.0,0.0,0.0,0.0,0.0,0.0,0.0,0.4894,0.4781,0.4512,0.0,0.0,0.0,0.0,0.0,0.0,0.0,0.0,0.0,0.0,0.0,0.0,0.0,0.0,0.0,0.0,0.0,0.0,0.0,0.0,0.0,0.0,0.0,0.0,0.0,0.0,0.0,0.0,0.0,0.0,0.0,0.0,0.0,0.0,0.0,0.0,0.0,0.0,0.0,0.0,0.0,0.0,0.0,0.0,0.0,0.0,0.0,0.0,0.0,0.0,0.0,0.0,0.0,0.0,0.0,0.0,0.0,0.0,0.0,0.0,0.0,0.0,0.0,0.0,0.0,0.0,0.0,0.0,0.0,0.0,0.0,0.0,0.0,0.0,0.0,0.0,0.0,0.0,0.0,0.0,0.0,0.0,0.0,0.0,0.0,0.0,0.0,0.0,0.0,0.0,0.0,0.0,0.0,0.0,0.0,0.0,0.0,0.0,0.0,0.0,0.0,0.0,0.0,0.0,0.0,0.0,0.0,0.0,0.0,0.0,0.2491,0.2349,0.2861,0.0,0.2714,0.0,0.0,0.0,0.0,0.0,0.0,0.0,0.0,0.0,0.0,0.0,0.0,0.0,0.0,0.0,0.0,0.0,0.0,0.0,0.0,0.0,0.0,0.0,0.0,0.0,0.0,0.0,0.0,0.0,0.0,0.0,0.0,0.0,0.0,0.0,0.0,0.0,0.0,0.0,0.0,0.0,0.0,0.0,0.0,0.0,0.0,0.0,0.0,0.0,0.0,0.0,0.0,0.0,0.0,0.0,0.0,0.0,0.0,0.0,0.0,0.0,0.0,0.0,0.0,0.0,0.0,0.0,0.0,0.0,0.0,0.0,0.0,0.0,0.0,0.0,0.0,0.0,0.0,0.0,0.0,0.0,0.0,0.0,0.0,0.0,0.0,0.0,0.0,0.0,0.0,0.0,0.0,0.0,0.0,0.0,0.0,0.0,0.0,0.0,0.0,0.0,0.0,0.0,0.0,0.0,0.0,0.0,0.0,0.0,0.0,0.2004,0.1879,0.1759,0.154,0.0,0.0,0.0,0.0,0.0,0.0,0.0,0.0,0.0,0.0,0.0,0.0,0.0,0.0,0.0,0.0,0.0,0.0,0.0,0.0,0.0,0.0,0.0,0.0,0.0,0.0,0.0,0.0,0.0,0.0,0.0,0.0,0.0,0.0,0.0,0.0,0.0,0.0,0.0,0.0,0.0,0.0,0.0,0.0,0.0,0.0,0.0,0.0,0.0,0.0,0.0,0.0,0.0,0.0,0.0,0.0,0.0,0.0,0.0,0.0,0.0,0.0,0.0,0.0,0.0,0.0,0.0,0.0,0.0,0.0,0.0,0.0,0.0,0.0,0.0,0.0,0.0,0.0,0.0,0.0,0.0,0.0,0.0,0.0,0.0,0.0,0.0,0.0,0.0,0.0,0.0,0.0,0.0,0.0,0.0,0.0,0.0,0.0,0.0,0.0,0.0,0.0,0.0,0.0,0.0,0.0,0.0,0.0,0.0,0.0,0.1816,0.1403,0.1258,0.0323,-0.026,-0.0362,0.0,0.0,0.0,0.0,0.0,0.0,0.0,0.0,0.0,0.0,0.0,0.0,0.0,0.0,0.0,0.0,0.0,0.0,0.0,0.0,0.0,0.0,0.0,0.0,0.0,0.0,0.0,0.0,0.0,0.0,0.0,0.0,0.0,0.0,0.0,0.0,0.0,0.0,0.0,0.0,0.0,0.0,0.0,0.0,0.0,0.0,0.0,0.0,0.0,0.0,0.0,0.0,0.0,0.0,0.0,0.0,0.0,0.0,0.0,0.0,0.0,0.0,0.0,0.0,0.0,0.0,0.0,0.0,0.0,0.0,0.0,0.0,0.0,0.0,0.0,0.0,0.0,0.0,0.0,0.0,0.0,0.0,0.0,0.0,0.0,0.0,0.0,0.0,0.0,0.0,0.0,0.0,0.0,0.0,0.0,0.0,0.0,0.0,0.0,0.0,0.0,0.0,0.0,0.0,0.0,0.0,0.0,0.0,0.1014,0.0403,0.0084,0.0021,-0.1882,-0.2579,0.0,0.0,0.0,0.0,0.0,0.0,0.0,0.0,0.0,0.0,0.0,0.0,0.0,0.0,0.0,0.0,0.0,0.0,0.0,0.0,0.0,0.0,0.0,0.0,0.0,0.0,0.0,0.0,0.0,0.0,0.0,0.0,0.0,0.0,0.0,0.0,0.0,0.0,0.0,0.0,0.0,0.0,0.0,0.0,0.0,0.0,0.0,0.0,0.0,0.0,0.0,0.0,0.0,0.0,0.0,0.0,0.0,0.0,0.0,0.0,0.0,0.0,0.0,0.0,0.0,0.0,0.0,0.0,0.0,0.0,0.0,0.0,0.0,0.0,0.0,0.0,0.0,0.0,0.0,0.0,0.0,0.0,0.0,0.0,0.0,0.0,0.0,0.0,0.0,0.0,0.0,0.0,0.0,0.0,0.0,0.0,0.0,0.0,0.0,0.0,0.0,0.0,0.0,0.0,0.0,0.0,0.0,0.0,0.0,0.0315,-0.0648,-0.1368,-0.1808,-0.3195,-0.3898,0.0,0.0,0.0,0.0,0.0,0.0,0.0,0.0,0.0,0.0,0.0,0.0,0.0,0.0,0.0,0.0,0.0,0.0,0.0,0.0,0.0,0.0,0.0,0.0,0.0,0.0,0.0,0.0,0.0,0.0,0.0,0.0,0.0,0.0,0.0,0.0,0.0,0.0,0.0,0.0,0.0,0.0,0.0,0.0,0.0,0.0,0.0,0.0,0.0,0.0,0.0,0.0,0.0,0.0,0.0,0.0,0.0,0.0,0.0,0.0,0.0,0.0,0.0,0.0,0.0,0.0,0.0,0.0,0.0,0.0,0.0,0.0,0.0,0.0,0.0,0.0,0.0,0.0,0.0,0.0,0.0,0.0,0.0,0.0,0.0,0.0,0.0,0.0,0.0,0.0,0.0,0.0,0.0,0.0,0.0,0.0,0.0,0.0,0.0,0.0,0.0,0.0,0.0,0.0,0.0,0.0,0.0,0.0,0.0,-0.0862,-0.2181,-0.315,-0.3684,-0.4927,-0.5694,0.0,0.0,0.0,0.0,0.0,0.0,0.0,0.0,0.0,0.0,0.0,0.0,0.0,0.0,0.0,0.0,0.0,0.0,0.0,0.0,0.0,0.0,0.0,0.0,0.0,0.0,0.0,0.0,0.0,0.0,0.0,0.0,0.0,0.0,0.0,0.0,0.0,0.0,0.0,0.0,0.0,0.0,0.0,0.0,0.0,0.0,0.0,0.0,0.0,0.0,0.0,0.0,0.0,0.0,0.0,0.0,0.0,0.0,0.0,0.0,0.0,0.0,0.0,0.0,0.0,0.0,0.0,0.0,0.0,0.0,0.0,0.0,0.0,0.0,0.0,0.0,0.0,0.0,0.0,0.0,0.0,0.0,0.0,0.0,0.0,0.0,0.0,0.0,0.0,0.0,0.0,0.0,0.0,0.0,0.0,0.0,0.0,0.0,0.0,0.0,0.0,0.0,0.0,0.0,0.0,0.0,0.0,0.0,-0.2406,-0.2702,-0.4308,-0.527,-0.5565,-0.7163,-0.806,0.0,0.0,0.0,0.0,0.0,0.0,0.0,0.0,0.0,0.0,0.0,0.0,0.0,0.0,0.0,0.0,0.0,0.0,0.0,0.0,0.0,0.0,0.0,0.0,0.0,0.0,0.0,0.0,0.0,0.0,0.0,0.0,0.0,0.0,0.0,0.0,0.0,0.0,0.0,0.0,0.0,0.0,0.0,0.0,0.0,0.0,0.0,0.0,0.0,0.0,0.0,0.0,0.0,0.0,0.0,0.0,0.0,0.0,0.0,0.0,0.0,0.0,0.0,0.0,0.0,0.0,0.0,0.0,0.0,0.0,0.0,0.0,0.0,0.0,0.0,0.0,0.0,0.0,0.0,0.0,0.0,0.0,0.0,0.0,0.0,0.0,0.0,0.0,0.0,0.0,0.0,0.0,0.0,0.0,0.0,0.0,0.0,0.0,0.0,0.0,0.0,0.0,0.0,0.0,0.0,0.0,0.0,0.0,0.0,-0.5652,-0.6114,-0.6993,-0.8196,-0.842,-0.8596,0.0,0.0,0.0,0.0,0.0,0.0,0.0,0.0,0.0,0.0,0.0,0.0,0.0,0.0,0.0,0.0,0.0,0.0,0.0,0.0,0.0,0.0,0.0,0.0,0.0,0.0,0.0,0.0,0.0,0.0,0.0,0.0,0.0,0.0,0.0,0.0,0.0,0.0,0.0,0.0,0.0,0.0,0.0,0.0,0.0,0.0,0.0,0.0,0.0,0.0,0.0,0.0,0.0,0.0,0.0,0.0,0.0,0.0,0.0,0.0,0.0,0.0,0.0,0.0,0.0,0.0,0.0,0.0,0.0,0.0,0.0,0.0,0.0,0.0,0.0,0.0,0.0,0.0,0.0,0.0,0.0,0.0,0.0,0.0,0.0,0.0,0.0,0.0,0.0,0.0,0.0,0.0,0.0,0.0,0.0,0.0,0.0,0.0,0.0,0.0,0.0,0.0,0.0,0.0,0.0,0.0,0.0,0.0,0.0,-0.9884,-0.9252,-0.9232,-0.9958,-0.9662,-0.9345,-0.9071,0.0,0.0,0.0,0.0,0.0,0.0,0.0,0.0,0.0,0.0,0.0,0.0,0.0,0.0,0.0,0.0,0.0,0.0,0.0,0.0,0.0,0.0,0.0,0.0,0.0,0.0,0.0,0.0,0.0,0.0,0.0,0.0,0.0,0.0,0.0,0.0,0.0,0.0,0.0,0.0,0.0,0.0,0.0,0.0,0.0,0.0,0.0,0.0,0.0,0.0,0.0,0.0,0.0,0.0,0.0,0.0,0.0,0.0,0.0,0.0,0.0,0.0,0.0,0.0,0.0,0.0,0.0,0.0,0.0,0.0,0.0,0.0,0.0,0.0,0.0,0.0,0.0,0.0,0.0,0.0,0.0,0.0,0.0,0.0,0.0,0.0,0.0,0.0,0.0,0.0,0.0,0.0,0.0,0.0,0.0,0.0,0.0,0.0,0.0,0.0,0.0,0.0,0.0,0.0,0.0,0.0,0.0,0.0,-1.4954,-1.3314,-1.2007,-1.115,-1.0968,-1.0344,0.0,0.0,0.0,0.0,0.0,0.0,0.0,0.0,0.0,0.0,0.0,0.0,0.0,0.0,0.0,0.0,0.0,0.0,0.0,0.0,0.0,0.0,0.0,0.0,0.0,0.0,0.0,0.0,0.0,0.0,0.0,0.0,0.0,0.0,0.0,0.0,0.0,0.0,0.0,0.0,0.0,0.0,0.0,0.0,0.0,0.0,0.0,0.0,0.0,0.0,0.0,0.0,0.0,0.0,0.0,0.0,0.0,0.0,0.0,0.0,0.0,0.0,0.0,0.0,0.0,0.0,0.0,0.0,0.0,0.0,0.0,0.0,0.0,0.0,0.0,0.0,0.0,0.0,0.0,0.0,0.0,0.0,0.0,0.0,0.0,0.0,0.0,0.0,0.0,0.0,0.0,0.0,0.0,0.0,0.0,0.0,0.0,0.0,0.0,0.0,0.0,0.0,0.0,0.0,0.0,0.0,0.0,0.0,0.0,-1.5957,-1.5775,-1.5201,-1.4337,-1.2805,-1.1611,0.0,0.0,0.0,0.0,0.0,0.0,0.0,0.0,0.0,0.0,0.0,0.0,0.0,0.0,0.0,0.0,0.0,0.0,0.0,0.0,0.0,0.0,0.0,0.0,0.0,0.0,0.0,0.0,0.0,0.0,0.0,0.0,0.0,0.0,0.0,0.0,0.0,0.0,0.0,0.0,0.0,0.0,0.0,0.0,0.0,0.0,0.0,0.0,0.0,0.0,0.0,0.0,0.0,0.0,0.0,0.0,0.0,0.0,0.0,0.0,0.0,0.0,0.0,0.0,0.0,0.0,0.0,0.0,0.0,0.0,0.0,0.0,0.0,0.0,0.0,0.0,0.0,0.0,0.0,0.0,0.0,0.0,0.0,0.0,0.0,0.0,0.0,0.0,0.0,0.0,0.0,0.0,0.0,0.0,0.0,0.0,0.0,0.0,0.0,0.0,0.0,0.0,0.0,0.0,0.0,0.0,0.0,0.0,-1.2681,-1.6114,-1.7254,-1.7533,-1.6905,-1.4133,-1.22,0.0,0.0,0.0,0.0,0.0,0.0,0.0,0.0,0.0,0.0,0.0,0.0,0.0,0.0,0.0,0.0,0.0,0.0,0.0,0.0,0.0,0.0,0.0,0.0,0.0,0.0,0.0,0.0,0.0,0.0,0.0,0.0,0.0,0.0,0.0,0.0,0.0,0.0,0.0,0.0,0.0,0.0,0.0,0.0,0.0,0.0,0.0,0.0,0.0,0.0,0.0,0.0,0.0,0.0,0.0,0.0,0.0,0.0,0.0,0.0,0.0,0.0,0.0,0.0,0.0,0.0,0.0,0.0,0.0,0.0,0.0,0.0,0.0,0.0,0.0,0.0,0.0,0.0,0.0,0.0,0.0,0.0,0.0,0.0,0.0,0.0,0.0,0.0,0.0,0.0,0.0,0.0,0.0,0.0,0.0,0.0,0.0,0.0,0.0,0.0,0.0,0.0,0.0,0.0,0.0,0.0,0.0,0.0,-1.3066,-1.5702,-1.7911,-1.8957,-1.8743,-1.5252,-1.2665,0.0,0.0,0.0,0.0,0.0,0.0,0.0,0.0,0.0,0.0,0.0,0.0,0.0,0.0,0.0,0.0,0.0,0.0,0.0,0.0,0.0,0.0,0.0,0.0,0.0,0.0,0.0,0.0,0.0,0.0,0.0,0.0,0.0,0.0,0.0,0.0,0.0,0.0,0.0,0.0,0.0,0.0,0.0,0.0,0.0,0.0,0.0,0.0,0.0,0.0,0.0,0.0,0.0,0.0,0.0,0.0,0.0,0.0,0.0,0.0,0.0,0.0,0.0,0.0,0.0,0.0,0.0,0.0,0.0,0.0,0.0,0.0,0.0,0.0,0.0,0.0,0.0,0.0,0.0,0.0,0.0,0.0,0.0,0.0,0.0,0.0,0.0,0.0,0.0,0.0,0.0,0.0,0.0,0.0,0.0,0.0,0.0,0.0,0.0,0.0,0.0,0.0,0.0,0.0,0.0,0.0,0.0,0.0,-1.2478,-1.6578,-1.756,-1.8557,-1.9672,-1.6955,-1.4792,0.0,0.0,0.0,0.0,0.0,0.0,0.0,0.0,0.0,0.0,0.0,0.0,0.0,0.0,0.0,0.0,0.0,0.0,0.0,0.0,0.0,0.0,0.0,0.0,0.0,0.0,0.0,0.0,0.0,0.0,0.0,0.0,0.0,0.0,0.0,0.0,0.0,0.0,0.0,0.0,0.0,0.0,0.0,0.0,0.0,0.0,0.0,0.0,-1.5507,0.0,0.0,0.0,0.0,0.0,0.0,0.0,0.0,0.0,0.0,0.0,0.0,0.0,0.0,0.0,0.0,0.0,0.0,0.0,0.0,0.0,0.0,0.0,0.0,0.0,0.0,0.0,0.0,0.0,0.0,0.0,0.0,0.0,0.0,0.0,0.0,0.0,0.0,0.0,0.0,0.0,0.0,0.0,0.0,0.0,0.0,0.0,0.0,0.0,0.0,0.0,0.0,0.0,0.0,0.0,0.0,0.0,0.0,0.0,-1.2255,-1.4639,-1.6694,-1.8255,-1.9235,-1.801,-1.6461,0.0,0.0,0.0,0.0,0.0,0.0,0.0,0.0,0.0,0.0,0.0,0.0,0.0,0.0,0.0,0.0,0.0,0.0,0.0,0.0,0.0,0.0,0.0,0.0,0.0,0.0,0.0,0.0,0.0,0.0,0.0,0.0,0.0,0.0,0.0,0.0,0.0,0.0,0.0,0.0,0.0,0.0,0.0,0.0,0.0,0.0,0.0,0.0,0.0,0.0,0.0,0.0,0.0,0.0,0.0,0.0,0.0,0.0,0.0,0.0,0.0,0.0,0.0,0.0,0.0,0.0,0.0,0.0,0.0,0.0,0.0,0.0,0.0,0.0,0.0,0.0,0.0,0.0,0.0,0.0,0.0,0.0,0.0,0.0,0.0,0.0,0.0,0.0,0.0,0.0,0.0,0.0,0.0,0.0,0.0,0.0,0.0,0.0,0.0,0.0,0.0,0.0,0.0,0.0,0.0,0.0,0.0,-1.0546,-1.2054,-1.2436,-1.5728,-1.7879,-1.8563,-1.8704,-1.7739,-1.5564,0.0,0.0,0.0,0.0,0.0,0.0,0.0,0.0,0.0,0.0,0.0,0.0,0.0,0.0,0.0,0.0,0.0,0.0,0.0,0.0,0.0,0.0,0.0,0.0,0.0,0.0,0.0,0.0,0.0,0.0,0.0,0.0,0.0,0.0,0.0,0.0,0.0,0.0,-1.9146,-2.2721,0.0,0.0,0.0,0.0,0.0,0.0,0.0,0.0,-2.2134,0.0,0.0,0.0,0.0,0.0,0.0,0.0,0.0,0.0,0.0,0.0,0.0,0.0,0.0,0.0,0.0,0.0,0.0,0.0,0.0,0.0,0.0,0.0,0.0,0.0,0.0,0.0,0.0,0.0,0.0,0.0,0.0,0.0,0.0,0.0,0.0,0.0,0.0,0.0,0.0,0.0,0.0,0.0,0.0,0.0,0.0,0.0,0.0,0.0,0.0,0.0,0.0,0.0,0.0,0.0,0.0,-0.9052,-0.989,-1.1283,-1.3317,-1.5317,-1.7083,-1.8526,-1.9156,-1.8484,-1.6441,0.0,0.0,0.0,0.0,0.0,0.0,0.0,0.0,0.0,0.0,0.0,0.0,0.0,0.0,0.0,0.0,0.0,0.0,0.0,0.0,0.0,0.0,0.0,0.0,0.0,0.0,0.0,0.0,0.0,0.0,0.0,0.0,0.0,0.0,0.0,0.0,0.0,0.0,0.0,-2.4374,-2.5939,0.0,0.0,0.0,0.0,0.0,0.0,0.0,0.0,-2.2335,0.0,0.0,0.0,0.0,0.0,0.0,0.0,0.0,0.0,0.0,0.0,0.0,0.0,0.0,0.0,0.0,0.0,0.0,0.0,0.0,0.0,0.0,0.0,0.0,0.0,0.0,0.0,0.0,0.0,0.0,0.0,0.0,0.0,0.0,0.0,0.0,0.0,0.0,0.0,0.0,0.0,0.0,0.0,0.0,0.0,0.0,0.0,0.0,0.0,0.0,0.0,0.0,0.0,0.0,0.0,-0.8902,-0.9866,-1.0765,-1.1672,-1.3712,-1.5286,-1.6317,-1.8275,-1.8539,0.0,0.0,0.0,0.0,0.0,0.0,0.0,0.0,0.0,0.0,0.0,0.0,0.0,0.0,0.0,0.0,0.0,0.0,0.0,0.0,0.0,0.0,0.0,0.0,0.0,0.0,0.0,0.0,0.0,0.0,0.0,0.0,0.0,0.0,0.0,0.0,0.0,0.0,0.0,0.0,-2.5218,-2.6332,-2.6935,0.0,0.0,0.0,0.0,0.0,0.0,-2.4118,-2.3482,0.0,0.0,0.0,0.0,0.0,0.0,0.0,0.0,0.0,0.0,0.0,0.0,0.0,0.0,0.0,0.0,0.0,0.0,0.0,0.0,0.0,0.0,0.0,0.0,0.0,0.0,0.0,0.0,0.0,0.0,0.0,0.0,0.0,0.0,0.0,0.0,0.0,0.0,0.0,0.0,0.0,0.0,0.0,0.0,0.0,0.0,0.0,0.0,0.0,0.0,0.0,0.0,0.0,0.0,0.0,-0.8452,-0.9517,-0.9997,-0.9876,-1.1743,-1.3207,-1.4093,-1.6599,-1.76,0.0,0.0,0.0,0.0,0.0,0.0,0.0,0.0,0.0,0.0,0.0,0.0,0.0,0.0,0.0,0.0,0.0,0.0,0.0,0.0,0.0,0.0,0.0,0.0,0.0,0.0,0.0,0.0,0.0,0.0,0.0,0.0,0.0,0.0,0.0,0.0,0.0,0.0,0.0,0.0,0.0,-2.6573,-2.7282,-2.6574,0.0,0.0,0.0,0.0,-2.6249,-2.4931,0.0,0.0,0.0,0.0,0.0,0.0,0.0,0.0,0.0,0.0,0.0,0.0,0.0,0.0,0.0,0.0,0.0,0.0,0.0,0.0,0.0,0.0,0.0,0.0,0.0,0.0,0.0,0.0,0.0,0.0,0.0,0.0,0.0,0.0,0.0,0.0,0.0,0.0,0.0,0.0,0.0,0.0,0.0,0.0,0.0,0.0,0.0,0.0,0.0,0.0,0.0,0.0,0.0,0.0,0.0,0.0,-0.8325,-0.7885,-0.8311,-0.9706,-0.9977,-1.123,-1.3594,-1.3924,-1.477,0.0,0.0,0.0,0.0,0.0,0.0,0.0,0.0,0.0,0.0,0.0,0.0,0.0,0.0,0.0,0.0,0.0,0.0,0.0,0.0,0.0,0.0,0.0,0.0,0.0,0.0,0.0,0.0,0.0,0.0,0.0,0.0,0.0,0.0,0.0,0.0,0.0,0.0,0.0,0.0,0.0,-2.6911,-2.764,-2.7606,-2.7823,0.0,0.0,-2.7463,-2.7101,-2.5527,0.0,0.0,0.0,0.0,0.0,0.0,0.0,0.0,0.0,0.0,0.0,0.0,0.0,0.0,0.0,0.0,0.0,0.0,0.0,0.0,0.0,0.0,0.0,0.0,0.0,0.0,0.0,0.0,0.0,0.0,0.0,0.0,0.0,0.0,0.0,0.0,0.0,0.0,0.0,0.0,0.0,0.0,0.0,0.0,0.0,0.0,0.0,0.0,0.0,0.0,0.0,0.0,0.0,0.0,0.0,-0.7186,-0.7721,-0.718,-0.7209,-0.7953,-0.8293,-0.923,-1.0781,-1.2559,-1.4032,0.0,0.0,0.0,0.0,0.0,0.0,0.0,0.0,0.0,0.0,0.0,0.0,0.0,0.0,0.0,0.0,0.0,0.0,0.0,0.0,0.0,0.0,0.0,0.0,0.0,0.0,0.0,0.0,0.0,0.0,0.0,0.0,0.0,0.0,0.0,0.0,0.0,0.0,0.0,0.0,0.0,0.0,-2.8083,-2.8151,0.0,0.0,0.0,-2.7407,-2.7275,0.0,0.0,0.0,0.0,0.0,0.0,0.0,0.0,0.0,0.0,0.0,0.0,0.0,0.0,0.0,0.0,0.0,0.0,0.0,0.0,0.0,0.0,0.0,0.0,0.0,0.0,0.0,0.0,0.0,0.0,0.0,0.0,0.0,0.0,0.0,0.0,0.0,0.0,0.0,0.0,0.0,0.0,0.0,0.0,0.0,0.0,0.0,0.0,0.0,0.0,0.0,0.0,0.0,0.0,0.0,0.0,0.0,-0.7062,-0.642,-0.6236,-0.6588,-0.6908,-0.7685,-0.8945,-1.1327,0.0,0.0,0.0,0.0,0.0,0.0,0.0,0.0,0.0,0.0,0.0,0.0,0.0,0.0,0.0,0.0,0.0,0.0,0.0,0.0,0.0,0.0,0.0,0.0,0.0,0.0,0.0,-1.5886,0.0,0.0,0.0,0.0,0.0,0.0,0.0,0.0,0.0,0.0,0.0,0.0,0.0,0.0,-2.764,-2.7775,-2.7946,-2.7842,0.0,0.0,-2.74,-2.7145,-2.5392,-2.4216,0.0,0.0,0.0,0.0,0.0,0.0,0.0,0.0,0.0,0.0,0.0,0.0,0.0,0.0,0.0,0.0,0.0,0.0,0.0,0.0,0.0,0.0,0.0,0.0,0.0,0.0,0.0,0.0,0.0,0.0,0.0,0.0,0.0,0.0,0.0,0.0,0.0,0.0,0.0,0.0,0.0,0.0,0.0,0.0,0.0,0.0,0.0,0.0,0.0,0.0,0.0,0.0,0.0,0.0,0.0,-0.6381,-0.5269,-0.5308,-0.6507,-0.5977,-0.6908,-0.9526,-0.9855,-1.1134,0.0,0.0,0.0,0.0,0.0,0.0,0.0,0.0,0.0,0.0,0.0,0.0,0.0,0.0,0.0,0.0,0.0,0.0,0.0,0.0,0.0,0.0,0.0,0.0,0.0,0.0,0.0,0.0,0.0,0.0,0.0,0.0,0.0,0.0,0.0,0.0,0.0,0.0,0.0,0.0,0.0,-2.5607,-2.6081,-2.6748,-2.7027,0.0,0.0,-2.7905,-2.6757,-2.5846,-2.5046,-2.4366,0.0,0.0,0.0,0.0,0.0,0.0,0.0,0.0,0.0,0.0,0.0,0.0,0.0,0.0,0.0,0.0,0.0,0.0,0.0,0.0,0.0,0.0,0.0,0.0,0.0,0.0,0.0,0.0,0.0,0.0,0.0,0.0,0.0,0.0,0.0,0.0,0.0,0.0,0.0,0.0,0.0,0.0,0.0,0.0,0.0,0.0,0.0,0.0,0.0,0.0,0.0,0.0,0.0,-0.545,-0.5458,-0.5265,-0.5382,-0.5923,-0.6499,-0.752,-0.9056,-1.0286,-1.1851,0.0,0.0,0.0,0.0,0.0,0.0,0.0,0.0,0.0,0.0,0.0,0.0,0.0,0.0,0.0,0.0,0.0,0.0,0.0,0.0,0.0,0.0,0.0,0.0,0.0,0.0,0.0,0.0,-1.7247,-1.7039,-1.7301,0.0,0.0,0.0,0.0,0.0,0.0,0.0,0.0,0.0,0.0,-2.6575,-2.6775,-2.7709,0.0,0.0,-2.8211,-2.8424,-2.7453,-2.6436,-2.5421,-2.4356,-2.3935,0.0,0.0,0.0,0.0,0.0,0.0,0.0,0.0,0.0,0.0,0.0,0.0,0.0,0.0,0.0,0.0,0.0,0.0,0.0,0.0,0.0,0.0,0.0,0.0,0.0,0.0,0.0,0.0,0.0,0.0,0.0,0.0,0.0,0.0,0.0,0.0,0.0,0.0,0.0,0.0,0.0,0.0,0.0,0.0,0.0,0.0,0.0,0.0,0.0,0.0,0.0,0.0,-0.5451,-0.5015,-0.5333,-0.5592,-0.5828,-0.7212,-0.8397,-0.9301,-1.1089,-1.2562,0.0,0.0,0.0,0.0,0.0,0.0,0.0,0.0,0.0,0.0,0.0,0.0,0.0,0.0,0.0,0.0,0.0,0.0,0.0,0.0,0.0,0.0,0.0,0.0,0.0,0.0,0.0,0.0,-1.7471,-1.7265,-1.7221,0.0,0.0,0.0,0.0,0.0,0.0,0.0,0.0,0.0,0.0,-2.6346,-2.6647,-2.7652,-2.8154,-2.7664,-2.8076,-2.8218,-2.7484,-2.6686,-2.5822,-2.4992,0.0,0.0,0.0,0.0,0.0,0.0,0.0,0.0,0.0,0.0,0.0,0.0,0.0,0.0,0.0,0.0,0.0,0.0,0.0,0.0,0.0,0.0,0.0,0.0,0.0,0.0,0.0,0.0,0.0,0.0,-1.2959,0.0,0.0,0.0,0.0,0.0,0.0,0.0,0.0,0.0,0.0,0.0,0.0,0.0,0.0,0.0,0.0,0.0,0.0,0.0,0.0,0.0,0.0,-0.5319,-0.5271,-0.5449,-0.5855,-0.657,-0.7956,-0.9367,-1.0705,-1.2089,-1.2886,-1.3143,0.0,0.0,0.0,0.0,0.0,0.0,0.0,0.0,0.0,0.0,0.0,0.0,0.0,0.0,0.0,0.0,0.0,0.0,0.0,0.0,0.0,0.0,0.0,0.0,0.0,0.0,-1.728,-1.7264,-1.7173,0.0,0.0,0.0,0.0,0.0,0.0,0.0,0.0,0.0,0.0,-2.3236,-2.4183,-2.5197,-2.6009,-2.6559,-2.6475,-2.694,-2.7079,-2.6567,-2.6426,-2.6375,0.0,0.0,0.0,0.0,0.0,0.0,0.0,0.0,0.0,0.0,0.0,0.0,0.0,0.0,0.0,0.0,0.0,0.0,0.0,0.0,0.0,0.0,0.0,0.0,0.0,0.0,0.0,-1.5283,-1.3843,0.0,0.0,0.0,0.0,0.0,0.0,0.0,0.0,0.0,0.0,0.0,-1.4706,-1.2675,0.0,0.0,0.0,0.0,0.0,0.0,0.0,0.0,0.0,0.0,0.0,0.0,-0.5707,-0.5362,-0.5935,-0.6335,-0.6654,-0.9211,-1.0785,-1.1282,-1.3256,-1.43,-1.4315,0.0,0.0,0.0,0.0,0.0,0.0,0.0,0.0,0.0,0.0,0.0,0.0,0.0,0.0,0.0,0.0,0.0,0.0,0.0,0.0,0.0,0.0,0.0,0.0,0.0,-1.8288,0.0,0.0,0.0,0.0,0.0,0.0,0.0,0.0,0.0,0.0,0.0,-2.3139,-2.3072,-2.3691,-2.4308,-2.4657,-2.6051,-2.7089,0.0,0.0,0.0,0.0,0.0,0.0,0.0,0.0,0.0,0.0,0.0,0.0,0.0,0.0,-2.3306,-2.1944,-2.153,-2.144,-2.165,0.0,0.0,0.0,0.0,0.0,0.0,0.0,0.0,0.0,0.0,0.0,0.0,0.0,0.0,-1.6597,0.0,-1.472,0.0,0.0,0.0,0.0,0.0,0.0,0.0,0.0,-1.5645,-1.5586,-1.5944,-1.4135,-1.2701,0.0,-1.0662,-0.9147,0.0,0.0,0.0,0.0,0.0,0.0,0.0,0.0,-0.6127,-0.58,-0.6426,-0.6891,-0.7209,-0.9808,-1.1331,-1.161,-1.3716,-1.508,-1.5532,-1.68,-1.6789,0.0,0.0,0.0,0.0,0.0,0.0,0.0,0.0,0.0,0.0,0.0,0.0,0.0,0.0,0.0,0.0,0.0,0.0,0.0,0.0,0.0,0.0,0.0,-1.7802,0.0,0.0,0.0,0.0,0.0,0.0,0.0,0.0,0.0,-2.1053,-2.2234,-2.303,-2.3031,-2.3622,-2.4123,-2.434,0.0,0.0,0.0,0.0,0.0,0.0,0.0,-2.6328,-2.6415,-2.6268,-2.6057,-2.5887,-2.5659,-2.5347,-2.5017,0.0,0.0,-2.2609,-2.2188,-2.2119,-2.2308,-2.2373,-2.2214,-2.1732,-2.1937,-2.2016,0.0,0.0,0.0,0.0,0.0,0.0,0.0,0.0,-1.9328,-1.8175,0.0,-1.5693,0.0,0.0,0.0,0.0,0.0,-1.6455,0.0,0.0,-1.7203,-1.7307,-1.718,-1.5984,-1.4781,-1.3546,-1.1883,-1.0392,-0.9082,-0.8598,0.0,0.0,0.0,0.0,0.0,0.0,-0.6581,-0.6564,-0.688,-0.7367,-0.8008,-0.9706,-1.0978,-1.1716,-1.3542,-1.5214,-1.6601,-1.7332,-1.7782,-1.8052,-1.6463,0.0,0.0,0.0,0.0,0.0,0.0,0.0,0.0,0.0,0.0,0.0,0.0,0.0,0.0,0.0,0.0,0.0,0.0,0.0,0.0,-1.6989,0.0,0.0,0.0,0.0,0.0,0.0,0.0,0.0,0.0,0.0,-2.0153,-2.1425,-2.2336,-2.2317,0.0,0.0,0.0,0.0,-2.537,-2.5384,-2.5398,-2.5412,-2.5425,-2.5984,-2.6412,-2.6441,0.0,0.0,-2.6495,-2.5978,-2.5644,-2.563,-2.5061,-2.4395,-2.3766,-2.3122,-2.2912,-2.34,-2.2607,-2.1963,-2.2221,-2.2169,-2.1937,-2.1933,0.0,0.0,0.0,0.0,-2.1215,-2.0794,-2.09,-1.9753,-1.8479,-1.7137,-1.6131,0.0,0.0,0.0,0.0,0.0,0.0,-1.5048,-1.5332,-1.5341,-1.548,-1.58,-1.5112,-1.4269,-1.3361,-1.2376,-1.1381,-1.04,-0.8871,-0.7989,-0.7694,0.0,0.0,0.0,0.0,-0.6157,-0.6186,-0.6268,-0.6413,-0.6606,-0.8331,-1.0141,-1.1935,-1.3858,-1.5357,-1.6447,-1.7181,-1.7734,-1.807,-1.7217,0.0,0.0,0.0,0.0,0.0,0.0,0.0,0.0,0.0,0.0,0.0,0.0,0.0,0.0,0.0,0.0,0.0,0.0,0.0,-1.7322,-1.7499,-1.719,0.0,0.0,0.0,0.0,0.0,0.0,0.0,0.0,0.0,-1.9531,-2.0455,-2.1358,0.0,0.0,-2.26,-2.3339,-2.4105,-2.4624,-2.4595,-2.5063,0.0,-2.5398,-2.5188,-2.5184,-2.5631,-2.6297,-2.6692,-2.6491,-2.6382,-2.6303,-2.6303,-2.5367,-2.453,-2.4335,-2.3789,-2.343,-2.3505,-2.2951,-2.2561,-2.2878,-2.2501,-2.2082,-2.1617,-2.093,-2.0978,-2.1342,-2.1781,-2.0978,-2.0808,-2.0995,-1.9723,-1.863,-1.7649,-1.625,-1.5327,-1.4748,-1.3775,0.0,0.0,0.0,-1.4524,-1.4755,-1.4763,-1.4957,-1.5174,-1.4905,-1.4282,-1.3314,-1.2848,-1.1921,-1.0545,-0.9301,-0.8074,-0.6954,0.0,0.0,-0.6417,-0.5799,-0.5498,-0.5472,-0.5594,-0.5812,-0.6192,-0.8085,-0.9771,-1.1214,-1.3232,-1.4752,-1.5674,-1.6753,-1.7585,-1.8126,-1.7559,-1.7057,0.0,0.0,0.0,0.0,0.0,0.0,0.0,0.0,0.0,0.0,0.0,-1.628,-1.6204,0.0,0.0,0.0,-1.6173,-1.6506,-1.6558,-1.6821,0.0,0.0,0.0,0.0,0.0,0.0,0.0,-1.9339,-1.8852,-1.8481,-1.8757,-1.9389,-2.0216,-2.1262,-2.1396,-2.1749,-2.2787,0.0,-2.3866,-2.4425,-2.4859,-2.5093,-2.4882,-2.4765,-2.4857,-2.5315,-2.5755,-2.6068,-2.6054,-2.6112,-2.6115,-2.601,-2.5245,-2.4467,-2.4259,-2.3827,-2.357,-2.3596,-2.3332,-2.3134,-2.3277,-2.268,-2.2226,-2.1446,-2.0615,-2.0644,-2.0635,-2.0605,-2.0605,-2.0557,-2.0401,-1.9392,-1.8719,-1.8059,-1.6198,-1.4911,-1.4155,-1.3822,0.0,-1.3711,-1.4609,-1.5023,-1.5034,-1.4991,-1.501,-1.495,-1.4871,-1.4249,-1.3086,-1.2987,-1.1865,-0.9863,-0.9593,-0.8548,-0.6766,-0.6366,-0.5946,-0.5525,-0.5026,-0.4738,-0.469,-0.4976,-0.5562,-0.6491,-0.8563,-0.9752,-0.9974,-1.2067,-1.3623,-1.4558,-1.599,-1.7203,-1.8029,-1.7544,-1.7234,-1.7163,0.0,0.0,0.0,0.0,0.0,0.0,0.0,0.0,0.0,0.0,0.0,0.0,0.0,0.0,0.0,-1.5558,0.0,-1.5593,-1.5503,0.0,0.0,0.0,-1.6951,-1.8395,-1.8191,-1.8148,-1.8607,0.0,0.0,-1.8115,-1.8412,-1.9107,-2.0347,-2.0541,-2.1098,-2.2456,-2.2645,-2.3127,-2.427,-2.4633,-2.4523,-2.4073,-2.4502,-2.4945,-2.5154,-2.5286,-2.5328,-2.5356,-2.5412,-2.5425,-2.5439,-2.4846,-2.4251,-2.3699,-2.3523,-2.3443,-2.3393,-2.3515,-2.3528,-2.3346,-2.2771,-2.2363,-2.1402,-2.0644,-2.0937,-2.0879,-2.0615,-2.0615,-2.0128,-1.9362,-1.9125,-1.8457,-1.7451,-1.619,-1.4928,-1.3735,-1.3673,-1.3516,-1.3336,-1.3561,-1.3581,-1.3386,-1.3379,-1.3252,-1.2945,-1.2221,-1.1667,-1.134,-1.0369,-0.9594,-0.9037,-0.816,-0.7478,-0.6985,-0.6278,-0.5339,-0.4316,-0.489,-0.4937,-0.433,-0.5079,-0.5999,-0.7082,-0.8513,-0.9614,-1.0432,-1.1778,-1.3091,-1.4227,-1.4673,-1.5361,-1.648,-1.7207,-1.7597,-1.7552,-1.6614,0.0,0.0,0.0,0.0,0.0,0.0,0.0,0.0,0.0,-1.4873,-1.3344,0.0,-1.4024,0.0,-1.5195,-1.5778,-1.5458,-1.5686,0.0,0.0,-1.6171,-1.6573,-1.777,-1.7816,-1.8126,-1.9049,-1.9043,-1.8975,-1.8984,-1.9062,-1.9236,-1.9581,-2.0174,-2.0969,-2.1924,-2.2083,-2.2185,-2.2638,-2.3292,-2.3619,-2.3553,-2.3901,-2.4269,-2.4312,-2.4478,-2.4567,-2.4567,-2.5049,-2.5398,-2.5356,-2.486,-2.4253,-2.3675,-2.3178,-2.2651,-2.2334,-2.2913,-2.3586,-2.3504,-2.2888,-2.2419,-2.0476,-1.9562,-1.9666,-1.9548,-1.9401,-2.0244,-1.9962,-1.8957,-1.8479,-1.7617,-1.6519,-1.547,-1.4552,-1.3834,-1.366,-1.352,-1.34,-1.3273,-1.287,-1.222,-1.2138,-1.1725,-1.1035,-1.0428,-1.0115,-1.0115,-0.9383,-0.8802,-0.8347,-0.7647,-0.7054,-0.659,-0.605,-0.5249,-0.418,-0.4717,-0.47,-0.4146,-0.5158,-0.6246,-0.7366,-0.8493,-0.954,-1.0497,-1.1829,-1.2767,-1.3324,-1.4004,-1.4547,-1.4987,-1.6023,-1.6581,-1.6572,-1.5817,-1.5292,0.0,0.0,0.0,0.0,0.0,0.0,0.0,0.0,0.0,0.0,0.0,-1.3815,-1.335,-1.4416,-1.5023,-1.4624,-1.4924,-1.535,-1.581,-1.5858,-1.6292,-1.7402,-1.7372,-1.7678,-1.8723,-1.8722,-1.8765,-1.9214,-1.9453,-1.957,-1.957,-2.0162,-2.0855,-2.151,-2.168,-2.1887,-2.2522,-2.3049,-2.3491,-2.3646,-2.334,-2.3293,-2.3829,-2.3708,-2.3558,-2.373,-2.4105,-2.4381,-2.4355,-2.4074,-2.3649,-2.3108,-2.2764,-2.2341,-2.1923,-2.2222,-2.2815,-2.3128,-2.2583,-2.2175,-1.9264,-1.8218,-1.8007,-1.7918,-1.7962,-1.9617,-1.9652,-1.8501,-1.7536,-1.6519,-1.5455,-1.4489,-1.4046,-1.3851,-1.3725,-1.3571,-1.3428,-1.3353,-1.2761,-1.1766,-1.1427,-1.0751,-0.9763,-0.9352,-0.9153,-0.9153,-0.9038,-0.8462,-0.7455,-0.7265,-0.6663,-0.5689,-0.568,-0.5268,-0.4538,-0.4677,-0.4618,-0.4335,-0.5341,-0.6467,-0.7673,-0.8668,-0.9619,-1.0623,-1.2073,-1.2744,-1.2536,-1.3764,-1.4238,-1.3815,-1.4725,-1.5279,-1.5284,-1.4365,-1.4042,0.0,-1.3565,0.0,0.0,0.0,0.0,0.0,0.0,0.0,0.0,-1.4562,-1.3815,-1.2981,-1.3607,-1.3981,-1.368,-1.3935,-1.4496,-1.5379,-1.5504,-1.5951,-1.6911,-1.6805,-1.7004,-1.8046,-1.7861,-1.805,-1.8844,-1.9353,-1.9564,-1.9469,-1.9716,-2.0207,-2.0941,-2.1155,-2.1687,-2.2992,-2.3257,-2.334,-2.3758,-2.2925,-2.2502,-2.3462,-2.2967,-2.2484,-2.2782,-2.2812,-2.2781,-2.2781,-2.2877,-2.272,-2.2105,-2.2105,-2.2032,-2.1381,-2.1425,-2.1819,-2.2352,-2.2155,-2.1819,-1.9032,-1.8224,-1.848,-1.8406,-1.8136,-1.8489,-1.7745,-1.6314,-1.6116,-1.5428,-1.4412,-1.4166,-1.3561,-1.2717,-1.3594,-1.3477,-1.2602,-1.351,-1.3664,-1.3175,-1.2202,-1.1566,-1.1016,-0.9245,-0.8424,-0.8348,-0.7585,-0.6603,-0.5451,-0.5429,-0.48,-0.3695,-0.462,-0.4885,-0.4563,0.0,0.0,0.0,-0.6165,-0.7049,-0.8732,-0.9183,-1.0235,-1.1857,-1.269,0.0,-1.334,-1.3615,-1.3858,-1.407,-1.5013,0.0,0.0,0.0,0.0,0.0,0.0,0.0,0.0,0.0,0.0,0.0,-1.2979,-1.3195,-1.3581,-1.3912,-1.3933,-1.3514,-1.3848,-1.4062,-1.4015,-1.4055,-1.4166,-1.437,-1.4412,-1.4817,-1.5861,-1.5924,-1.6294,-1.7347,-1.7409,-1.7439,-1.7709,-1.7755,-1.7829,-1.79,-1.7897,-1.8355,-1.9351,-2.0188,-2.0834,-2.1155,-2.1849,-2.2595,-2.35,-2.2954,-2.2466,-2.2798,-2.2094,-2.1573,-2.1577,-2.1342,-2.1112,-2.1164,-2.1647,-2.1711,-2.058,-2.1015,-2.1265,-2.0089,-2.0424,-2.1175,-2.1744,-2.1786,-2.1668,-1.798,0.0,-1.7085,-1.6613,0.0,-1.5695,-1.4791,-1.3542,-1.5184,-1.4881,-1.3252,-1.3203,-1.2553,-1.1515,-1.2126,-1.2035,-1.1472,-1.2083,-1.1972,-1.1255,-1.0627,-0.993,-0.9202,-0.8003,-0.7139,-0.6554,-0.6064,-0.5191,-0.4062,-0.402,-0.3686,-0.3098,-0.3686,-0.4222,-0.4743,-0.6114,-0.6739,-0.6627,-0.6515,-0.7187,-0.8593,-0.9336,-1.039,-1.1857,-1.304,0.0,0.0,0.0,0.0,0.0,0.0,0.0,0.0,0.0,0.0,-1.2414,-1.1424,-1.0669,-1.0445,-1.0981,-1.1486,-1.1851,-1.2417,-1.3159,-1.401,-1.4398,-1.4456,-1.4315,-1.4436,-1.4559,-1.4566,-1.4566,-1.4559,-1.4509,-1.4389,-1.4552,-1.4986,-1.4986,-1.5345,-1.6273,-1.6478,-1.6683,-1.7253,-1.7302,-1.7302,-1.7302,-1.7302,-1.7455,-1.8109,-1.9116,-1.9962,-2.0479,-2.0972,-2.1621,-2.2467,-2.2142,-2.1991,-2.2358,-2.187,-2.1285,-2.1219,-2.104,-2.0838,-2.069,-2.0974,-2.0966,-2.0432,-2.0294,-2.0098,-1.9425,-1.9238,-1.9477,-2.0104,-2.0769,-2.1129,-1.6412,-1.5419,-1.4997,-1.4141,-1.3115,-1.2916,-1.22,-1.1354,0.0,0.0,0.0,-1.2066,-1.1402,-1.0362,-1.0544,-1.0486,-1.0313,-1.0524,-1.0096,-0.9183,-0.8635,-0.7885,-0.6953,-0.6404,-0.563,-0.4704,-0.466,-0.4025,-0.2924,-0.2882,-0.276,-0.2599,-0.2772,-0.3587,-0.4976,-0.6109,-0.6721,-0.6861,-0.6756,-0.7161,-0.8168,-0.9187,-1.0182,-1.1248,-1.2764,-1.3581,-1.3544,-1.2975,-1.2417,-1.1935,-1.0945,-1.0392,-1.0431,-1.0215,-1.0343,-1.084,-1.0697,-1.0552,-1.0552,-1.1528,-1.176,-1.0971,-1.2314,-1.3671,-1.4932,-1.5015,-1.5015,-1.5015,-1.5015,-1.5008,-1.5015,-1.5008,-1.5015,-1.5008,-1.475,-1.4596,-1.4589,-1.4396,-1.4682,-1.538,-1.556,-1.5793,-1.658,-1.6656,-1.6731,-1.6731,-1.6568,-1.6854,-1.7131,-1.798,-1.8957,-1.9629,-2.0031,-2.0615,-2.1173,-2.1135,-2.108,-2.197,-2.1518,-2.0969,-2.0857,-2.0794,-2.0598,-2.0053,-2.0236,-2.0257,-2.0106,-1.9587,-1.9067,-1.8892,-1.8213,-1.777,-1.8427,-1.9409,-2.0084,-1.4351,-1.407,-1.2876,-1.2287,-1.2088,-1.2057,-1.1828,-1.1489,-1.1722,-1.1601,-1.1257,-1.1069,-1.041,-0.937,-1.0217,-1.0096,-0.9235,-1.0178,-1.0524,-1.0265,-0.8257,-0.7236,-0.6977,-0.4993,-0.3936,-0.3805,-0.3761,-0.3143,-0.2084,-0.1995,-0.1477,-0.0683,-0.1458,-0.3164,-0.531,-0.5704,-0.636,-0.7461,-0.6963,-0.7174,-0.8181,-0.8653,-0.9362,-1.0348,-1.1122,-1.154,-1.15,-1.1425,-1.1334,-1.1227,-1.1086,-1.1079,-1.1253,-1.02,-0.9745,-1.0042,-0.9041,-0.8414,-0.8459,-0.8607,-0.9143,-1.0161,-1.2374,-1.4113,-1.4927,-1.5015,-1.5015,-1.5015,-1.5042,-1.5015,-1.5015,-1.5035,-1.5048,-1.5028,-1.4975,-1.4903,-1.4948,-1.4843,-1.4885,-1.5093,-1.4821,-1.4752,-1.5033,-1.4845,-1.4797,-1.4636,-1.4972,-1.4957,-1.5876,-1.6846,-1.7496,-1.7859,-1.859,-1.9186,-1.9541,-2.0196,-2.0459,-2.0816,-2.044,-2.0009,-1.9703,-1.9409,-1.9083,-1.8518,-1.9065,-1.9166,-1.8667,-1.8828,-1.8642,-1.8167,-1.7687,-1.759,-1.7727,-1.8051,-1.8514,-1.2813,-1.277,-1.2139,-1.1507,-1.0828,-1.0096,-0.9751,-0.9567,-0.9489,-0.9716,-1.0121,-1.0031,-0.9359,-0.8352,-0.8774,-0.8696,-0.8204,-0.8741,-0.859,-0.7842,-0.6797,-0.5882,-0.5151,-0.4103,-0.3279,-0.268,-0.2635,-0.1989,-0.0926,-0.0834,-0.0559,-0.0094,-0.1221,-0.2403,-0.3558,-0.4928,-0.5926,-0.6493,-0.6956,-0.7396,-0.7867,-0.8613,-0.9324,-0.9967,-1.0844,-1.137,-1.1537,-1.0877,-1.05,-1.0496,-0.9788,-0.9489,-0.9567,-0.8995,-0.8747,-0.8867,-0.8333,-0.7988,-0.7988,-0.7988,-0.8874,-1.0828,-1.1453,-1.2202,-1.3227,-1.4629,-1.5431,-1.5431,-1.5431,-1.5431,-1.5431,-1.5438,-1.5431,-1.5431,-1.5297,-1.5197,-1.5177,-1.5089,-1.5015,-1.5001,-1.4843,-1.4763,-1.4763,-1.4687,-1.4606,-1.4556,-1.4449,-1.4525,-1.4818,-1.5276,-1.6008,-1.7058,-1.7747,-1.8029,-1.8109,-1.843,-1.8789,-1.8789,-1.9166,-1.919,-1.8892,-1.8773,-1.8767,-1.8428,-1.854,-1.8414,-1.7998,-1.8049,-1.7861,-1.741,-1.6981,-1.6877,-1.6973,-1.7302,-1.7878,-1.1458,-1.1458,-1.1121,-1.0435,-0.946,-0.8432,-0.7988,-0.7988,-0.8035,-0.8391,-0.8969,-0.8961,-0.8483,-0.7692,-0.7614,-0.7453,-0.7167,-0.7167,-0.6405,-0.5214,-0.4883,-0.4175,-0.3229,-0.2943,-0.2282,-0.1476,-0.1381,-0.0905,0.0,0.0,0.0,0.0,-0.0963,-0.1543,-0.1881,-0.3799,-0.509,-0.5716,-0.6733,-0.7393,-0.7648,-0.853,-0.9123,-0.9429,-1.0245,-1.0803,-1.0965,-1.0047,-0.9558,-0.9509,-0.8581,-0.7988,-0.7988,-0.7988,-0.7988,-0.7988,-0.7988,-0.7988,-0.7988,-0.7988,-0.8871,-1.0823,-1.0391,-1.0435,-1.1507,-1.3596,-1.4908,-1.4902,-1.4781,-1.4841,-1.4775,-1.4841,-1.4902,-1.4895,-1.4725,-1.4453,-1.4568,-1.4444,-1.4278,-1.4318,-1.4494,-1.4592,-1.4682,-1.4862,-1.4988,-1.4941,-1.4756,-1.4529,-1.4335,-1.4289,-1.5057,-1.6107,-1.6828,-1.6935,-1.6976,-1.7253,-1.7374,-1.7302,-1.8012,-1.825,-1.8118,-1.832,-1.8339,-1.7836,-1.7514,-1.7298,-1.7301,-1.699,-1.6581,-1.6155,-1.5742,-1.5548,-1.5876,-1.65,-1.7124,-1.0194,-1.0002,-0.892,-0.8287,-0.8134,-0.7988,-0.7889,-0.7889,-0.7988,-0.8028,-0.7963,-0.7994,-0.7835,-0.7773,-0.7567,-0.6847,-0.5842,-0.5784,-0.5077,-0.3754,-0.2661,-0.2093,-0.1907,-0.0905,0.0,0.0,0.0,0.0,0.0,0.0,0.0,0.0,-0.01,-0.0802,-0.1851,-0.2249,-0.3547,-0.5897,-0.6098,-0.6692,-0.7701,-0.7887,-0.8011,-0.8159,-0.8262,-0.8315,-0.8531,-0.8233,-0.8184,-0.8187,-0.8088,-0.7988,-0.7988,-0.7988,-0.7988,-0.7988,-0.7988,-0.7988,-0.7988,-0.7988,-0.8137,-0.8379,-0.9414,-0.9948,-1.019,-1.1463,-1.2237,-1.2285,-1.2285,-1.2479,-1.229,-1.2382,-1.2528,-1.2624,-1.2496,-1.2206,-1.2378,-1.219,-1.2174,-1.2174,-1.3108,-1.3548,-1.363,-1.4239,-1.4823,-1.4637,-1.4687,-1.4653,-1.4619,-1.4783,-1.4754,-1.5002,-1.5388,-1.5824,-1.5959,-1.6723,-1.6895,-1.7139,-1.7342,-1.7266,-1.7038,-1.6757,-1.6422,-1.6676,-1.592,-1.5814,-1.5598,-1.5126,-1.4917,-1.4992,-1.4497,-1.3899,-1.4381,-1.506,-1.5698,-0.8825,-0.8676,-0.7381,-0.6326,-0.5672,-0.5622,-0.5622,-0.562,-0.5622,-0.5622,-0.5617,-0.5575,-0.6002,-0.6648,-0.5858,-0.515,-0.4659,-0.4659,-0.3925,-0.2703,-0.2115,-0.1526,-0.074,-0.0247,0.0,0.0,0.0,0.0,0.0,0.0,0.0,0.0,0.0,0.0,-0.0857,-0.1611,-0.2565,-0.362,-0.5225,-0.6255,-0.6758,-0.75,-0.7924,-0.7982,-0.7988,-0.7988,-0.7988,-0.7988,-0.7988,-0.7988,-0.7988,-0.7988,-0.7988,-0.7988,-0.7988,-0.7988,-0.7988,-0.7988,-0.7988,-0.7988,-0.7988,-0.7988,-0.8482,-0.8821,-0.8825,-0.9312,-0.9604,-0.9752,-1.097,-1.1896,-1.1848,-1.1896,-1.1896,-1.1896,-1.1896,-1.1896,-1.1896,-1.1896,-1.1896,-1.1935,-1.225,-1.2523,-1.2565,-1.2881,-1.3087,-1.3107,-1.3476,-1.3991,-1.3901,-1.4456,-1.491,-1.4847,-1.5094,-1.5076,-1.493,-1.5061,-1.5436,-1.5553,-1.5951,-1.6221,-1.6185,-1.6443,-1.6396,-1.595,-1.5508,-1.5234,-1.5338,-1.5072,-1.4856,-1.4481,-1.3942,-1.3479,-1.3681,-1.3852,-1.4174,-0.6877,-0.6725,-0.5824,-0.487,-0.4016,-0.4016,-0.4016,-0.4016,-0.4016,-0.4016,-0.3966,-0.3615,-0.3967,-0.4724,-0.4216,-0.3815,-0.3466,-0.3466,-0.2715,-0.1561,-0.1461,-0.0958,0.0,0.0,0.0,0.0,0.0,0.0,0.0,0.0,0.0,0.0,0.0,0.0,0.0,-0.1008,-0.1611,-0.2163,-0.3969,-0.5074,-0.5522,-0.6426,-0.708,-0.7388,-0.7437,-0.7282,-0.693,-0.693,-0.6877,-0.6877,-0.6877,-0.6877,-0.6927,-0.693,-0.703,-0.7385,-0.7437,-0.7637,-0.7939,-0.7988,-0.7988,-0.7988,-0.7686,-0.7434,-0.7385,-0.7132,-0.693,-0.7027,-0.8643,-0.9763,-1.0779,-1.0828,-1.0828,-1.0828,-1.0823,-1.0828,-1.0779,-1.0823,-1.073,-1.0828,-1.1058,-1.1556,-1.1794,-1.1973,-1.2004,-1.1919,-1.2452,-1.2933,-1.2811,-1.3482,-1.4074,-1.4072,-1.4008,-1.4097,-1.4114,-1.4392,-1.4188,-1.4215,-1.4894,-1.5255,-1.5233,-1.5655,-1.5825,-1.4875,-1.4942,-1.4752,-1.4271,-1.4323,-1.4297,-1.3885,-1.3449,-1.3131,-1.3036,-1.3,-1.3171,-0.4166,-0.4216,-0.4116,-0.3966,-0.3966,-0.3865,-0.3915,-0.3715,-0.3865,-0.3915,-0.3615,-0.2614,-0.2114,-0.2315,-0.3265,-0.3265,-0.2213,-0.2114,-0.141,0.0,0.0,0.0,0.0,0.0,0.0,0.0,0.0,0.0,0.0,0.0,0.0,0.0,0.0,0.0,0.0,0.0,-0.0756,-0.1812,-0.2264,-0.2864,-0.3966,-0.4218,-0.492,-0.5877,-0.6079,-0.5525,-0.4468,-0.4216,-0.4268,-0.4216,-0.4366,-0.4316,-0.4266,-0.4266,-0.487,-0.5927,-0.6079,-0.6631,-0.7637,-0.7736,-0.7786,-0.7736,-0.6681,-0.6079,-0.6029,-0.517,-0.4618,-0.4316,-0.4814,-0.5812,-0.7773,-0.8322,-0.8379,-0.8478,-0.8333,-0.8382,-0.8333,-0.8577,-0.8233,-0.8531,-0.941,-1.0386,-1.1556,-1.1896,-1.1604,-1.1575,-1.1823,-1.1943,-1.1907,-1.2014,-1.2167,-1.2068,-1.2072,-1.2322,-1.3963,-1.3873,-1.3937,-1.3801,-1.3553,-1.4039,-1.4023,-1.3992,-1.3878,-1.3669,-1.3454,-1.3174,-1.294,-1.2753,-1.2583,-1.2501,-1.2747,-1.2587,-1.2516,-1.2759,-1.2867,-0.3515,-0.2715,-0.2714,-0.2264,-0.146,-0.141,-0.1461,-0.146,-0.146,-0.141,-0.136,0.0,-0.0706,-0.0756,-0.1209,-0.1159,0.0,-0.0706,-0.0454,0.0,0.0,0.0,0.0,0.0,0.0,0.0,0.0,0.0,0.0,0.0,0.0,0.0,0.0,0.0,0.0,0.0,-0.0252,0.0,-0.1511,-0.2263,-0.2718,-0.3566,-0.3867,-0.3518,-0.427,-0.4518,-0.4016,-0.4016,-0.4016,-0.4016,-0.4016,-0.4016,-0.4016,-0.4016,-0.4168,-0.4668,-0.472,-0.492,-0.537,-0.542,-0.542,-0.542,-0.502,-0.472,-0.467,-0.4266,-0.4016,-0.3966,-0.3966,-0.4616,-0.527,-0.6176,-0.7083,-0.7836,-0.7988,-0.7889,-0.7988,-0.7988,-0.7988,-0.8088,-0.8478,-0.892,-0.9361,-0.941,-0.941,-0.9509,-1.0141,-1.0583,-1.0823,-1.1312,-1.1711,-1.1753,-1.1761,-1.1908,-1.2311,-1.2371,-1.2221,-1.2043,-1.192,-1.1956,-1.1952,-1.2638,-1.2763,-1.2165,-1.1821,-1.1775,-1.1579,-1.1462,-1.1298,-1.2022,-1.2254,-1.204,-1.2047,-1.2167,-1.224,-0.2213,-0.1411,-0.136,-0.0857,0.0,0.0,0.0,0.0,0.0,0.0,0.0,0.0,0.0,0.0,0.0,0.0,0.0,0.0,0.0,0.0,0.0,0.0,0.0,0.0,0.0,0.0,0.0,0.0,0.0,0.0,0.0,0.0,0.0,0.0,0.0,0.0,0.0,0.0,-0.0916,-0.1376,-0.1485,-0.2253,-0.2305,-0.1641,-0.2254,-0.2695,-0.2717,-0.2715,-0.2715,-0.2714,-0.2715,-0.2715,-0.2715,-0.2715,-0.2914,-0.3265,-0.3364,-0.3565,-0.3966,-0.4016,-0.4016,-0.3966,-0.3565,-0.3366,-0.3366,-0.2964,-0.2715,-0.2715,-0.2715,-0.2815,-0.3416,-0.4169,-0.5275,-0.6426,-0.6725,-0.693,-0.7282,-0.7332,-0.7537,-0.7889,-0.8038,-0.8038,-0.7988,-0.8038,-0.8088,-0.7988,-0.8874,-0.9312,-0.9509,-0.9998,-1.0632,-1.0632,-1.0471,-1.0316,-1.0377,-1.0256,-1.102,-1.103,-1.0969,-1.0647,-1.0587,-1.1289,-1.1428,-1.072,-1.0408,-1.0396,-1.0309,-1.0187,-1.0718,-1.1571,-1.1597,-1.1356,-1.1407,-1.1512,-1.1664,0.0,0.0,0.0,0.0,0.0,0.0,0.0,0.0,0.0,0.0,0.0,0.0,0.0,0.0,0.0,0.0,0.0,0.0,0.0,0.0,0.0,0.0,0.0,0.0,0.0,0.0,0.0,0.0,0.0,0.0,0.0,0.0,0.0,0.0,0.0,0.0,0.0,0.0,0.0,0.0,0.0,0.0,0.0,0.0,0.0,0.0,0.0,0.0,0.0,0.0,0.0,0.0,0.0,0.0,-0.0708,-0.177,-0.1967,-0.2618,-0.3621,-0.3668,-0.3516,-0.3414,-0.2665,-0.1963,-0.1862,-0.1008,0.0,0.0,0.0,-0.0656,-0.1762,-0.2114,-0.2816,-0.3815,-0.4466,-0.497,-0.5675,-0.5979,-0.6431,-0.7385,-0.7537,-0.7885,-0.7885,-0.7534,-0.7434,-0.7686,-0.7885,-0.8084,-0.8283,-0.8528,-0.8184,-0.8233,-0.8676,-0.8943,-0.846,-0.8159,-0.9412,-1.0282,-1.0273,-1.0165,-0.996,-1.0348,-1.0236,-0.9713,-0.9333,-0.9271,-0.9548,-0.9508,-0.9877,-1.0475,-1.0481,-1.0785,-1.1106,-1.1291,-1.1279,0.0,0.0,0.0,0.0,0.0,0.0,0.0,0.0,0.0,0.0,0.0,0.0,0.0,0.0,0.0,0.0,0.0,0.0,0.0,0.0,0.0,0.0,0.0,0.0,0.0,0.0,0.0,0.0,0.0,0.0,0.0,0.0,0.0,0.0,0.0,0.0,0.0,0.0,0.0,0.0,0.0,0.0,0.0,0.0,0.0,0.0,0.0,0.0,0.0,0.0,0.0,0.0,0.0,0.0,0.0,-0.0523,-0.0621,-0.0719,0.0,0.0,0.0,0.0,0.0,-0.0656,-0.0605,0.0,0.0,0.0,0.0,-0.0252,-0.0504,-0.0656,-0.1561,-0.3765,-0.4016,-0.4016,-0.452,-0.467,-0.4818,-0.5118,-0.527,-0.522,-0.5268,-0.532,-0.5822,-0.6528,-0.6631,-0.6833,-0.7686,-0.7686,-0.7988,-0.7988,-0.7988,-0.7633,-0.7381,-0.7179,-0.7828,-0.8704,-0.8946,-0.9296,-0.9225,-0.9195,-0.9053,-0.8838,-0.8433,-0.8336,-0.8599,-0.8828,-0.9115,-0.9521,-0.9755,-1.0261,-1.0911,-1.0996,-1.0833,0.0,0.0,0.0,0.0,0.0,0.0,0.0,0.0,0.0,0.0,0.0,0.0,0.0,0.0,0.0,0.0,0.0,0.0,0.0,0.0,0.0,0.0,0.0,0.0,0.0,0.0,0.0,0.0,0.0,0.0,0.0,0.0,0.0,0.0,0.0,0.0,0.0,0.0,0.0,0.0,0.0,0.0,0.0,0.0,0.0,0.0,0.0,0.0,0.0,0.0,0.0,0.0,0.0,0.0,0.0,0.0,0.0,0.0,0.0,0.0,0.0,0.0,0.0,0.0,0.0,0.0,0.0,0.0,0.0,0.0,0.0,0.0,0.0,-0.2263,-0.2414,-0.2765,-0.3116,-0.3715,-0.4016,-0.4166,-0.4116,-0.4016,-0.4016,-0.4016,-0.4316,-0.5122,-0.5272,-0.5375,-0.6276,-0.6423,-0.6575,-0.6575,-0.6224,-0.6071,-0.6323,-0.6373,-0.6373,-0.69,-0.7359,-0.791,-0.8218,-0.8291,-0.8237,-0.793,-0.7538,-0.7591,-0.7762,-0.7789,-0.7974,-0.8463,-0.9023,-0.9451,-0.99,-1.0081,-1.0106,0.0,0.0,0.0,0.0,0.0,0.0,0.0,0.0,0.0,0.0,0.0,0.0,0.0,0.0,0.0,0.0,0.0,0.0,0.0,0.0,0.0,0.0,0.0,0.0,0.0,0.0,0.0,0.0,0.0,0.0,0.0,0.0,0.0,0.0,0.0,0.0,0.0,0.0,0.0,0.0,0.0,0.0,0.0,0.0,0.0,0.0,0.0,0.0,0.0,0.0,0.0,0.0,0.0,0.0,0.0,0.0,0.0,0.0,0.0,0.0,0.0,0.0,0.0,0.0,0.0,0.0,0.0,0.0,0.0,0.0,0.0,0.0,0.0,0.0,0.0,0.0,-0.1812,-0.2914,-0.3214,-0.3416,-0.3715,-0.3715,-0.3366,-0.3416,-0.3566,-0.3867,-0.3917,-0.4067,-0.4418,-0.4718,-0.4216,-0.4316,-0.4766,-0.4918,-0.5268,-0.5268,-0.5268,-0.5501,-0.5953,-0.6474,-0.7292,-0.7493,-0.7689,-0.7341,-0.7109,-0.7075,-0.705,-0.7211,-0.7381,-0.7832,-0.826,-0.8511,-0.8794,-0.9076,-0.9476,0.0,0.0,0.1157,0.163,0.1795,0.2797,0.3269,0.3269,0.3269,0.3111,0.3269,0.3322,0.3111,0.3271,0.3234,0.3346,0.314,0.3191,0.3293,0.313,0.2058,0.0998,0.0,0.0,0.0,0.0,0.0,0.0,0.0,0.0,0.0,0.0,0.0,0.0,0.0,0.0,0.0,0.0,0.0,0.0,0.0,0.0,0.0,0.0,0.0,0.0,0.0,0.0,0.0,0.0,0.0,0.0,0.0,0.0,0.0,0.0,0.0,0.0,0.0,0.0,0.0,0.0,0.0,0.0,0.0,0.0,0.0,0.0,0.0,0.0,0.0,0.0,0.0,0.0,0.0,0.0,0.0,-0.0807,-0.1058,-0.1058,0.0,0.0,0.0,0.0,0.0,-0.2314,-0.2614,-0.2765,-0.3215,-0.3515,-0.3314,-0.3815,-0.4166,-0.4116,-0.4116,-0.4116,-0.4166,-0.4314,-0.464,-0.5057,-0.6047,-0.6931,-0.721,-0.7356,-0.7288,-0.7214,-0.7146,-0.7173,-0.7321,-0.742,-0.7438,-0.7698,-0.8058,-0.8369,-0.8778,0.1905,0.1935,0.2824,0.3147,0.3275,0.4132,0.4507,0.4507,0.4507,0.4507,0.4507,0.4505,0.4507,0.4509,0.4487,0.4449,0.4501,0.4503,0.4449,0.4342,0.353,0.1995,0.0,0.0,0.0,0.0,0.0,0.0,0.0,0.0,0.0,0.0,0.0,0.0,0.0,0.0,0.0,0.0,0.0,0.0,0.0,0.0,0.0,0.0,0.0,0.0,0.0,0.0,0.0,0.0,0.0,0.0,0.0,0.0,0.0,0.0,0.0,0.0,0.0,0.0,0.0,0.0,0.0,0.0,0.0,0.0,0.0,0.0,0.0,0.0,0.0,0.0,0.0,0.0,0.0,0.0,0.0,0.0,0.0,0.0,0.0,0.0,0.0,0.0,0.0,-0.0907,-0.1159,-0.1511,-0.1963,0.0,0.0,0.0,0.0,0.0,0.0,0.0,0.0,0.0,-0.3161,-0.359,-0.4628,-0.5807,-0.6484,-0.6755,-0.7106,-0.735,-0.7265,-0.7139,-0.7136,-0.7144,-0.6937,-0.7013,-0.7409,-0.7692,-0.8074,0.4461,0.4528,0.4673,0.4736,0.4745,0.4912,0.5295,0.5078,0.5241,0.5186,0.5241,0.5079,0.5406,0.4974,0.5522,0.5129,0.5129,0.539,0.5065,0.5006,0.4554,0.3409,0.0,0.0,0.0,0.0,0.0,0.0,0.0,0.0,0.0,0.0,0.0,0.0,0.0,0.0,0.0,0.0,0.0,0.0,0.0,0.0,0.0,0.0,0.0,0.0,0.0,0.0,0.0,0.0,0.0224,0.0,0.0,0.0,0.0,0.0,0.0,0.0,0.0,0.0,0.0,0.0,0.0,0.0,0.0,0.0,0.0,0.0,0.0,0.0,0.0,0.0,0.0,0.0,0.0,0.0,0.0,0.0,0.0,0.0,0.0,0.0,0.0,0.0,0.0,0.0,0.0,0.0,0.0,0.0,0.0,0.0,0.0,0.0,0.0,0.0,0.0,0.0,0.0,-0.2155,-0.3031,-0.4114,-0.5184,-0.5892,-0.6455,-0.6966,-0.735,-0.7268,-0.706,-0.7068,-0.7004,-0.694,-0.698,-0.7104,-0.7413,0.4487,0.4611,0.5755,0.6201,0.6385,0.7442,0.7886,0.7883,0.7883,0.7709,0.7886,0.7883,0.7825,0.7828,0.7689,0.7986,0.7706,0.7651,0.7429,0.6253,0.6255,0.5293,0.3814,0.3553,0.2834,0.2058,0.1729,0.1733,0.1733,0.1846,0.2348,0.3243,0.3074,0.3465,0.3354,0.3131,0.3521,0.3521,0.3409,0.33,0.3246,0.3248,0.3249,0.3307,0.3307,0.3415,0.3522,0.3522,0.3522,0.3019,0.0,0.0,0.0,0.0,0.0,0.0,0.0,0.0,0.0,0.0,0.0,0.0,0.0,0.0,0.0,0.0,0.0,0.0,0.0,0.0,0.0,0.0,0.0,0.0,0.0,0.0,0.0,0.0,0.0,0.0,0.0,0.0,0.0,0.0,0.0,0.0,0.0,0.0,0.0,0.0,0.0,0.0,0.0,0.0,0.0,0.0,0.0,0.0,0.0,0.0,0.0,-0.2587,-0.3739,-0.4835,-0.5871,-0.6342,-0.6548,-0.6966,-0.6672,-0.6853,-0.6983,-0.6927,-0.682,-0.6784,-0.6834,0.6538,0.6644,0.7426,0.7762,0.7875,0.8546,0.8937,0.8937,0.8937,0.8937,0.8937,0.8937,0.8937,0.8937,0.8937,0.8881,0.8937,0.8881,0.8491,0.7817,0.7706,0.7315,0.6831,0.6408,0.5628,0.3694,0.3296,0.324,0.3296,0.3356,0.3632,0.4414,0.4528,0.4303,0.447,0.4585,0.4359,0.4359,0.447,0.454,0.4571,0.4578,0.466,0.4681,0.4688,0.4688,0.4577,0.4634,0.4634,0.4289,0.3201,0.2215,0.2131,0.2126,0.207,0.2126,0.2126,0.2126,0.0,0.2125,0.0,0.2014,0.1511,0.0,0.0784,0.0504,0.0,0.0,0.0,0.0,0.0,0.0,0.0,0.0,0.0,0.0,0.0,0.0,0.0,0.0,0.0,0.0,0.0,0.0,0.0,0.0,0.0,0.0,0.0,0.0,0.0,0.0,0.0,0.0,0.0,0.0,0.0,0.0,0.0,0.0,0.0,0.0,-0.2353,-0.3473,-0.4571,-0.4913,-0.5161,-0.5654,-0.608,-0.6088,-0.6194,-0.6488,-0.6737,-0.6686,-0.6781,0.8937,0.8937,0.8937,0.8937,0.8937,0.8881,0.8937,0.8937,0.8937,0.8937,0.8937,0.8937,0.8937,0.8937,0.8937,0.8888,0.8974,0.8984,0.8778,0.8825,0.8772,0.866,0.862,0.8442,0.7769,0.535,0.5026,0.4914,0.4912,0.4955,0.5267,0.53,0.5354,0.5771,0.547,0.5292,0.565,0.5769,0.5773,0.5736,0.5787,0.5743,0.5837,0.5936,0.5951,0.6009,0.6007,0.5953,0.5789,0.5566,0.5568,0.5489,0.5223,0.4601,0.4533,0.4364,0.408,0.3968,0.3913,0.4134,0.4191,0.4414,0.3353,0.2626,0.2292,0.1734,0.0,0.0,0.0,0.0,0.0,0.0,0.0,0.0,0.0,0.0695,0.0638,0.0519,0.0,0.0,0.0,0.0,0.0,0.0,0.0,0.0,0.0,0.0,0.0,0.0,0.0,0.0,0.0,0.0,0.0,0.0,0.0,0.0,0.0,0.0,0.0,0.0,0.0,0.0,-0.298,-0.3442,-0.3943,-0.4468,-0.4825,-0.503,-0.5187,-0.5308,-0.5807,-0.6444,-0.6402,0.8937,0.8937,0.8937,0.8937,0.8937,0.8937,0.8937,0.8937,0.8937,0.8937,0.8937,0.894,0.895,0.8947,0.8888,0.9005,0.9103,0.912,0.9174,0.9256,0.9269,0.9269,0.9269,0.931,0.8913,0.8442,0.7382,0.6683,0.6666,0.6686,0.7112,0.8181,0.8293,0.829,0.8169,0.8541,0.8102,0.7915,0.7979,0.8066,0.8104,0.8188,0.8197,0.8242,0.8189,0.8242,0.8405,0.8567,0.8674,0.8674,0.8674,0.8537,0.789,0.6143,0.511,0.494,0.4983,0.5096,0.5031,0.4749,0.4582,0.4414,0.4303,0.4136,0.4024,0.3745,0.3187,0.3353,0.3409,0.3571,0.3732,0.3316,0.3599,0.3643,0.3447,0.342,0.3245,0.2512,0.1477,0.0,0.0,0.0,0.0,0.0,0.0,0.0,0.0,0.0,0.0,0.0,0.0,0.0,0.0,0.0,0.0,0.0,0.0,0.0,0.0,0.0,0.0,0.0,0.0,0.0,-0.1954,-0.2438,-0.2907,0.0,-0.3569,-0.3799,-0.3881,-0.4009,-0.4606,-0.5153,-0.4788,0.8937,0.8937,0.8937,0.8937,0.8937,0.8937,0.8937,0.8937,0.8937,0.8937,0.896,0.9015,0.9049,0.9069,0.914,0.9211,0.9313,0.933,0.9374,0.9378,0.9381,0.9381,0.9408,0.9456,0.9493,0.9281,0.8782,0.8375,0.8273,0.8256,0.8687,0.9081,0.9381,0.9381,0.9378,0.9248,0.9388,0.9388,0.9391,0.9429,0.9503,0.9557,0.9598,0.9602,0.9602,0.9608,0.9605,0.9608,0.9552,0.9552,0.9549,0.9568,0.902,0.8294,0.7075,0.6881,0.684,0.6812,0.6773,0.6755,0.6866,0.6758,0.6146,0.5697,0.5419,0.4972,0.4693,0.4582,0.447,0.447,0.4355,0.4582,0.447,0.4467,0.4547,0.4638,0.4405,0.3832,0.3055,0.2009,0.0,0.0,0.0,0.0,0.0,0.0,0.0,0.0,0.0,0.0,0.0,0.0,0.0,0.0,0.0,0.0,0.0,0.0,0.0,0.0,0.0,0.0,0.0,0.0,-0.1106,0.0,0.0,0.0,0.0,-0.2521,-0.2638,-0.284,-0.3384,-0.3653,-0.3351,0.8937,0.8937,0.8937,0.8957,0.8925,0.8981,0.9008,0.9022,0.9039,0.9045,0.9042,0.9144,0.9255,0.9286,0.931,0.9388,0.9422,0.9429,0.9452,0.9496,0.95,0.9483,0.951,0.9571,0.9649,0.9606,0.9603,0.97,0.937,0.9327,0.9424,0.9503,0.9479,0.9469,0.949,0.9517,0.9473,0.9469,0.9473,0.9544,0.9652,0.9754,0.9819,0.9819,0.9819,0.9805,0.9785,0.9781,0.9785,0.9788,0.9788,0.9761,0.9673,0.9652,0.9523,0.93,0.9282,0.9133,0.8963,0.8818,0.8544,0.8447,0.775,0.7343,0.698,0.6366,0.5644,0.5363,0.553,0.5697,0.5864,0.553,0.5528,0.5584,0.5641,0.5472,0.5573,0.5337,0.5052,0.3798,0.2064,0.0,0.0,0.0,0.0,0.0,0.0,0.0,0.0,0.0,0.0,0.0,0.0,0.0,0.0,0.0,0.0,0.0,0.0,0.0,0.0,0.0,0.0,0.0,0.0,0.0,0.0,0.0,0.0,-0.1334,-0.1377,0.0,0.0,0.0,-0.2077,0.8937,0.8937,0.894,0.9008,0.9176,0.9183,0.9262,0.9306,0.9303,0.933,0.9293,0.9344,0.9357,0.9381,0.9388,0.9473,0.9547,0.9588,0.9629,0.9696,0.9717,0.9717,0.9751,0.9778,0.9771,0.9768,0.9802,0.9808,0.9727,0.9724,0.9744,0.9734,0.9717,0.9754,0.9707,0.97,0.9771,0.9758,0.9754,0.9764,0.9781,0.9805,0.9819,0.9819,0.9819,0.9819,0.9819,0.9819,0.9819,0.9819,0.9819,0.9812,0.9798,0.9798,0.9717,0.9568,0.9442,0.9347,0.9306,0.9276,0.9232,0.915,0.8784,0.8779,0.8382,0.8233,0.7952,0.838,0.8211,0.7986,0.782,0.8152,0.8266,0.8042,0.7762,0.7875,0.7928,0.6813,0.6478,0.5971,0.44,0.3231,0.0,0.0,0.0,0.0,0.0,0.0,0.0,0.0,0.0,0.0,0.0,0.0,0.0,0.0,0.0,0.0,0.0,0.0,0.0,0.0,0.0,0.0,0.0,0.0,0.0,0.0,0.0,0.0,0.0,0.0,0.0,0.0,0.0,0.9059,0.9062,0.9062,0.9144,0.9273,0.9283,0.9317,0.9371,0.9381,0.9381,0.9401,0.9483,0.9551,0.9602,0.9632,0.9666,0.972,0.9724,0.9754,0.9805,0.9819,0.9819,0.9812,0.9819,0.9819,0.9819,0.9819,0.9819,0.9819,0.9819,0.9819,0.9819,0.9819,0.9805,0.9819,0.9819,0.9815,0.9812,0.9815,0.9819,0.9819,0.9819,0.9819,0.9819,0.9819,0.9819,0.9819,0.9819,0.9819,0.9819,0.9819,0.9819,0.9819,0.9819,0.9785,0.9744,0.9673,0.9554,0.9408,0.9395,0.9351,0.931,0.9269,0.9161,0.9103,0.9059,0.9018,0.8888,0.8881,0.894,0.8944,0.8937,0.8937,0.8937,0.8937,0.8937,0.8826,0.8546,0.782,0.7315,0.67,0.5378,0.4084,0.0,0.0,0.0,0.0,0.0,0.0,0.0,0.0,0.0,0.0,0.0,0.0,0.0,0.0,0.0,0.0,0.0,0.0,0.0,0.0,0.0,0.0,0.0,0.0,0.0,0.0,0.0,0.0,0.0,0.0,0.0,0.0,0.9286,0.9262,0.9282,0.93,0.9435,0.9439,0.9466,0.9496,0.9503,0.9496,0.9517,0.9615,0.9724,0.9795,0.9802,0.9791,0.9812,0.9819,0.9819,0.9819,0.9819,0.9819,0.9819,0.9819,0.9819,0.9819,0.9819,0.9819,0.9819,0.9819,0.9819,0.9819,0.9819,0.9819,0.9819,0.9819,0.9819,0.9819,0.9819,0.9819,0.9819,0.9819,0.9819,0.9819,0.9819,0.9819,0.9819,0.9819,0.9819,0.9819,0.9819,0.9819,0.9819,0.9819,0.9819,0.9798,0.9774,0.971,0.9585,0.9527,0.9476,0.9439,0.9384,0.9374,0.9299,0.9262,0.9241,0.9089,0.9022,0.9011,0.8984,0.8971,0.8937,0.8937,0.8937,0.8937,0.8881,0.8657,0.8546,0.8211,0.7651,0.7091,0.5788,0.446,0.0,0.0,0.0,0.1036,0.0,0.0,0.0,0.0,0.0,0.0,0.0,0.0,0.0,0.0,0.0,0.0,0.0,0.0,0.0,0.0,0.0,0.0,0.0,0.0,0.0,0.0,0.0,0.0,0.0,0.0,0.0,0.9449,0.9568,0.9429,0.9459,0.9591,0.9595,0.9666,0.9747,0.9768,0.9761,0.9747,0.9795,0.9795,0.9815,0.9819,0.9819,0.9819,0.9819,0.9819,0.9819,0.9819,0.9819,0.9819,0.9819,0.9819,0.9819,0.9819,0.9819,0.9819,0.9819,0.9819,0.9819,0.9819,0.9819,0.9819,0.9819,0.9819,0.9819,0.9819,0.9819,0.9819,0.9819,0.9819,0.9819,0.9819,0.9819,0.9819,0.9819,0.9819,0.9819,0.9819,0.9819,0.9819,0.9819,0.9819,0.9819,0.9819,0.9778,0.9727,0.971,0.97,0.9598,0.95,0.9425,0.9371,0.9364,0.9347,0.93,0.9191,0.9147,0.91,0.9042,0.9022,0.8981,0.8988,0.8964,0.8957,0.8881,0.8826,0.8881,0.8491,0.7931,0.7537,0.6251,0.4636,0.3216,0.2881,0.2757,0.2787,0.0,0.0,0.0,0.0,0.0,0.0,0.0,0.0,0.0,0.0,0.0,0.0,0.0,0.0,0.0,0.0,0.0,0.0,0.0,0.0,0.0,0.0,0.0,0.0,0.0,0.0,0.9605,0.973,0.9673,0.9686,0.9741,0.9741,0.9771,0.9815,0.9819,0.9819,0.9819,0.9819,0.9819,0.9819,0.9819,0.9819,0.9819,0.9819,0.9819,0.9819,0.9819,0.9819,0.9819,0.9819,0.9819,0.9819,0.9819,0.9819,0.9819,0.9819,0.9819,0.9819,0.9819,0.9819,0.9819,0.9819,0.9819,0.9819,0.9819,0.9819,0.9819,0.9819,0.9819,0.9819,0.9819,0.9819,0.9819,0.9819,0.9819,0.9819,0.9819,0.9819,0.9819,0.9819,0.9819,0.9819,0.9819,0.9819,0.9819,0.9819,0.9791,0.9761,0.968,0.9612,0.9534,0.9523,0.9459,0.9395,0.934,0.9354,0.9279,0.9242,0.9205,0.9117,0.9059,0.9032,0.9011,0.9008,0.9001,0.8972,0.8922,0.8605,0.8377,0.8042,0.6366,0.4856,0.4689,0.4516,0.4583,0.4334,0.3861,0.3243,0.2216,0.156,0.1395,0.0,0.0,0.0,0.0,0.0,0.0,0.0,0.0,0.0,0.0,0.0,0.0,0.0,0.0,0.0,0.0,0.0,0.0,0.0,0.0,0.973,0.9819,0.9819,0.9819,0.9819,0.9819,0.9819,0.9819,0.9819,0.9819,0.9819,0.9819,0.9819,0.9819,0.9819,0.9819,0.9819,0.9819,0.9819,0.9819,0.9819,0.9819,0.9819,0.9819,0.9819,0.9819,0.9819,0.9819,0.9819,0.9819,0.9819,0.9819,0.9819,0.9819,0.9819,0.9819,0.9819,0.9819,0.9819,0.9819,0.9819,0.9819,0.9819,0.9819,0.9819,0.9819,0.9819,0.9819,0.9819,0.9819,0.9819,0.9819,0.9819,0.9819,0.9819,0.9819,0.9819,0.9819,0.9819,0.9819,0.9819,0.9798,0.9802,0.9744,0.9703,0.9673,0.9625,0.9554,0.9493,0.9449,0.9442,0.9388,0.9323,0.9232,0.9225,0.9201,0.9167,0.915,0.9133,0.9127,0.9013,0.8962,0.8827,0.8601,0.7946,0.6765,0.6755,0.6586,0.6402,0.604,0.5312,0.4623,0.3789,0.3274,0.0,0.0,0.0,0.0,0.0,0.0,0.0,0.0562,0.0,0.0,0.0,0.0,0.0,0.0,0.0,0.0,0.0,0.0,0.0,0.0,0.0,0.9812,0.9819,0.9819,0.9819,0.9819,0.9819,0.9819,0.9819,0.9819,0.9819,0.9819,0.9819,0.9819,0.9819,0.9819,0.9819,0.9819,0.9819,0.9819,0.9819,0.9819,0.9819,0.9819,0.9819,0.9819,0.9819,0.9819,0.9819,0.9819,0.9819,0.9819,0.9819,0.9819,0.9819,0.9819,0.9819,0.9819,0.9819,0.9819,0.9819,0.9819,0.9819,0.9819,0.9819,0.9819,0.9819,0.9819,0.9819,0.9819,0.9819,0.9819,0.9819,0.9819,0.9819,0.9819,0.9819,0.9819,0.9819,0.9819,0.9819,0.9819,0.9819,0.9819,0.9802,0.9805,0.9802,0.9785,0.9696,0.9659,0.9612,0.9557,0.95,0.9442,0.9388,0.9378,0.934,0.9303,0.9269,0.9245,0.9232,0.9248,0.92,0.9103,0.9003,0.8886,0.8628,0.8778,0.8602,0.8045,0.759,0.674,0.6174,0.5431,0.4812,0.4394,0.4264,0.0,0.3844,0.3325,0.2533,0.1931,0.166,0.0,0.0,0.0,0.0,0.0,0.0,0.0,0.0,0.0,0.0,0.0,0.0,0.0,0.9819,0.9819,0.9819,0.9819,0.9819,0.9819,0.9819,0.9819,0.9819,0.9819,0.9819,0.9819,0.9819,0.9819,0.9819,0.9819,0.9819,0.9819,0.9819,0.9819,0.9819,0.9819,0.9819,0.9819,0.9819,0.9819,0.9819,0.9819,0.9819,0.9819,0.9819,0.9819,0.9819,0.9819,0.9819,0.9819,0.9819,0.9819,0.9819,0.9819,0.9819,0.9819,0.9819,0.9819,0.9819,0.9819,0.9819,0.9819,0.9819,0.9819,0.9819,0.9819,0.9819,0.9819,0.9819,0.9819,0.9819,0.9819,0.9819,0.9819,0.9819,0.9819,0.9819,0.9819,0.9819,0.9819,0.9819,0.9819,0.9771,0.973,0.9727,0.9713,0.9659,0.9557,0.9513,0.9449,0.9405,0.9371,0.9344,0.9337,0.9364,0.935,0.9262,0.9205,0.914,0.9052,0.9028,0.896,0.8494,0.8546,0.8091,0.77,0.7075,0.6415,0.5901,0.5694,0.5324,0.4965,0.4554,0.392,0.3403,0.29,0.0,0.0,0.0,0.2765,0.2097,0.1683,0.2422,0.0,0.2116,0.1662,0.0,0.0,0.0,0.9819,0.9819,0.9819,0.9819,0.9819,0.9819,0.9819,0.9819,0.9819,0.9819,0.9819,0.9819,0.9819,0.9819,0.9819,0.9819,0.9819,0.9819,0.9819,0.9819,0.9819,0.9819,0.9819,0.9819,0.9819,0.9819,0.9819,0.9819,0.9819,0.9819,0.9819,0.9819,0.9819,0.9819,0.9819,0.9819,0.9819,0.9819,0.9819,0.9819,0.9819,0.9819,0.9819,0.9819,0.9819,0.9819,0.9819,0.9819,0.9819,0.9819,0.9819,0.9819,0.9819,0.9819,0.9819,0.9819,0.9819,0.9819,0.9819,0.9819,0.9819,0.9819,0.9819,0.9819,0.9819,0.9819,0.9819,0.9819,0.9819,0.9819,0.9819,0.9819,0.9778,0.9673,0.9649,0.9585,0.9571,0.9544,0.9534,0.9517,0.9466,0.9449,0.9408,0.9361,0.93,0.9205,0.9113,0.9042,0.8908,0.8888,0.8885,0.8546,0.8266,0.7706,0.7204,0.7022,0.6641,0.6103,0.5689,0.5283,0.4863,0.4443,0.4537,0.4517,0.4047,0.3647,0.3271,0.3201,0.3017,0.3143,0.3279,0.2924,0.2717,0.2164,0.1561,0.9819,0.9819,0.9819,0.9819,0.9819,0.9819,0.9819,0.9819,0.9819,0.9819,0.9819,0.9819,0.9819,0.9819,0.9819,0.9819,0.9819,0.9819,0.9819,0.9819,0.9819,0.9819,0.9819,0.9819,0.9819,0.9819,0.9819,0.9819,0.9819,0.9819,0.9819,0.9819,0.9819,0.9819,0.9819,0.9819,0.9819,0.9819,0.9819,0.9819,0.9819,0.9819,0.9819,0.9819,0.9819,0.9819,0.9819,0.9819,0.9819,0.9819,0.9819,0.9819,0.9819,0.9819,0.9819,0.9819,0.9819,0.9819,0.9819,0.9819,0.9819,0.9819,0.9819,0.9819,0.9819,0.9819,0.9819,0.9819,0.9819,0.9819,0.9819,0.9819,0.9815,0.9788,0.9791,0.9774,0.9778,0.9768,0.9764,0.9727,0.9652,0.9602,0.9517,0.9462,0.9466,0.9384,0.9289,0.9191,0.91,0.8898,0.8892,0.8881,0.8712,0.8826,0.8488,0.7986,0.7916,0.7361,0.7097,0.6738,0.63,0.5988,0.6084,0.5833,0.502,0.4395,0.3733,0.3133,0.2595,0.2883,0.3383,0.3088,0.2579,0.2266,0.1913,0.9819,0.9819,0.9819,0.9819,0.9819,0.9819,0.9819,0.9819,0.9819,0.9819,0.9819,0.9819,0.9819,0.9819,0.9819,0.9819,0.9819,0.9819,0.9819,0.9819,0.9819,0.9819,0.9819,0.9819,0.9819,0.9819,0.9819,0.9822,0.9822,0.9822,0.9832,0.9819,0.9866,0.9852,0.9849,0.9825,0.9842,0.9839,0.9842,0.9819,0.9819,0.9819,0.9825,0.9836,0.9842,0.9846,0.9859,0.9856,0.9852,0.9832,0.9825,0.9822,0.9819,0.9819,0.9819,0.9819,0.9819,0.9819,0.9819,0.9819,0.9819,0.9819,0.9819,0.9819,0.9819,0.9819,0.9819,0.9819,0.9819,0.9819,0.9819,0.9819,0.9819,0.9819,0.9819,0.9819,0.9819,0.9819,0.9819,0.9805,0.9734,0.9717,0.9632,0.9646,0.9639,0.9564,0.9476,0.9367,0.9249,0.9106,0.8935,0.8984,0.8967,0.8977,0.8947,0.8546,0.8712,0.865,0.826,0.798,0.7825,0.7618,0.7567,0.6918,0.5814,0.4777,0.3923,0.3167,0.2162,0.2687,0.3146,0.2783,0.249,0.213,0.1917,0.9819,0.9819,0.9819,0.9819,0.9819,0.9819,0.9819,0.9819,0.9819,0.9819,0.9819,0.9819,0.9819,0.9819,0.9819,0.9819,0.9819,0.9819,0.9819,0.9819,0.9819,0.9819,0.9819,0.9822,0.9819,0.9822,0.9822,0.9819,0.9842,0.9903,0.993,1.0022,1.0002,0.9998,1.0019,1.0036,1.0022,0.9971,0.991,0.9842,0.9829,0.9836,0.9849,0.9903,0.991,0.9927,0.9981,0.9988,0.9971,0.9927,0.991,0.9873,0.9849,0.9819,0.9819,0.9819,0.9819,0.9819,0.9819,0.9819,0.9819,0.9819,0.9819,0.9819,0.9819,0.9819,0.9819,0.9819,0.9819,0.9819,0.9819,0.9819,0.9819,0.9819,0.9819,0.9819,0.9819,0.9819,0.9819,0.9819,0.9812,0.9808,0.9805,0.9819,0.9798,0.9703,0.9618,0.9527,0.9418,0.9296,0.9154,0.9076,0.9049,0.9028,0.8991,0.8954,0.8947,0.8944,0.8768,0.8654,0.8937,0.8647,0.806,0.7265,0.6361,0.5083,0.3516,0.2476,0.1719,0.0,0.0,0.0,0.0,0.1851,0.1735,0.9819,0.9819,0.9819,0.9819,0.9819,0.9819,0.9819,0.9819,0.9819,0.9819,0.9819,0.9819,0.9819,0.9819,0.9819,0.9819,0.9819,0.9819,0.9819,0.9819,0.9819,0.9832,0.9859,0.9771,0.9849,0.9836,0.9832,0.9842,0.9893,0.9988,1.0131,1.0276,1.0246,1.0215,1.0198,1.0205,1.0188,1.0158,1.0036,0.993,0.989,0.988,0.9897,0.9974,1.0007,1.009,1.0212,1.0246,1.0219,1.0117,0.9967,0.9964,0.9869,0.9819,0.9819,0.9819,0.9819,0.9819,0.9819,0.9819,0.9819,0.9819,0.9819,0.9819,0.9819,0.9819,0.9819,0.9819,0.9819,0.9819,0.9819,0.9819,0.9819,0.9819,0.9819,0.9819,0.9819,0.9819,0.9819,0.9819,0.9819,0.9819,0.9819,0.9819,0.9819,0.9778,0.9737,0.9656,0.9591,0.9479,0.9347,0.9211,0.9174,0.9137,0.9042,0.9005,0.8967,0.8957,0.895,0.8937,0.8937,0.8657,0.8377,0.7299,0.6061,0.4345,0.2826,0.1815,0.0,0.0,0.0,0.0,0.0,0.0,0.1301,0.9819,0.9819,0.9819,0.9819,0.9819,0.9819,0.9819,0.9819,0.9819,0.9819,0.9819,0.9819,0.9819,0.9819,0.9819,0.9819,0.9819,0.9819,0.9819,0.9819,0.9819,0.9886,0.9883,0.9829,0.9903,0.9862,0.9856,0.9914,1.0029,1.0151,1.0236,1.0287,1.031,1.0327,1.0324,1.0324,1.0321,1.0327,1.0226,1.0154,1.0158,0.9985,0.9927,1.009,1.0175,1.0178,1.0263,1.0293,1.0273,1.0219,1.01,0.9978,0.9836,0.9829,0.9822,0.9819,0.9819,0.9819,0.9819,0.9819,0.9819,0.9819,0.9819,0.9819,0.9819,0.9819,0.9819,0.9819,0.9819,0.9819,0.9819,0.9819,0.9819,0.9819,0.9819,0.9819,0.9819,0.9819,0.9819,0.9819,0.9819,0.9819,0.9819,0.9819,0.9819,0.9815,0.9805,0.9771,0.9758,0.968,0.9544,0.9422,0.9344,0.9279,0.9164,0.9089,0.9069,0.9005,0.8925,0.896,0.8944,0.8712,0.8432,0.698,0.5526,0.4244,0.2851,0.1173,0.0,0.0,0.0,0.0,0.0,0.0,0.0,0.9819,0.9819,0.9819,0.9819,0.9819,0.9819,0.9819,0.9819,0.9819,0.9819,0.9819,0.9819,0.9819,0.9819,0.9819,0.9825,0.9825,0.9819,0.9819,0.9819,0.9863,0.992,0.9883,0.9916,0.999,1.0021,1.008,1.011,1.0219,1.0314,1.0388,1.0446,1.0463,1.046,1.0466,1.047,1.0463,1.048,1.0409,1.0405,1.0412,1.0229,1.0141,1.028,1.0324,1.0331,1.0419,1.0466,1.0429,1.0361,1.0236,1.009,0.9978,0.9937,0.989,0.9842,0.9819,0.9819,0.9819,0.9819,0.9819,0.9819,0.9819,0.9819,0.9819,0.9819,0.9819,0.9819,0.9819,0.9819,0.9819,0.9819,0.9819,0.9819,0.9819,0.9819,0.9819,0.9819,0.9819,0.9819,0.9819,0.9819,0.9819,0.9819,0.9819,0.9819,0.9819,0.9819,0.9819,0.9819,0.9703,0.9612,0.9527,0.9415,0.9293,0.9228,0.9198,0.9123,0.9039,0.9005,0.8991,0.8898,0.8432,0.7173,0.6109,0.5137,0.3576,0.2016,0.1288,0.0,0.0,0.0,0.0,0.0,0.0,0.9819,0.9819,0.9819,0.9819,0.9819,0.9819,0.9819,0.9819,0.9819,0.9819,0.9819,0.9819,0.9819,0.9819,0.9822,0.9836,0.9856,0.989,0.9873,0.9914,0.9917,1.0053,1.0048,1.0048,1.0171,1.0236,1.0263,1.0337,1.0436,1.0504,1.0582,1.0697,1.0721,1.0714,1.0721,1.0711,1.0677,1.0636,1.0599,1.0602,1.0544,1.0453,1.0415,1.0446,1.0514,1.0578,1.0666,1.069,1.0626,1.0527,1.0382,1.0236,1.0103,1.0039,0.9903,0.9842,0.9832,0.9829,0.9819,0.9819,0.9819,0.9819,0.9819,0.9819,0.9819,0.9819,0.9819,0.9819,0.9819,0.9819,0.9819,0.9819,0.9819,0.9819,0.9819,0.9819,0.9819,0.9819,0.9819,0.9819,0.9819,0.9819,0.9819,0.9819,0.9819,0.9819,0.9819,0.9819,0.9819,0.9819,0.9768,0.972,0.9673,0.9557,0.9432,0.9388,0.9354,0.9256,0.9178,0.9103,0.9059,0.9037,0.8692,0.78,0.6717,0.5913,0.4935,0.3589,0.2968,0.2518,0.0,0.0,0.0,0.0,0.0,0.9819,0.9819,0.9819,0.9819,0.9819,0.9819,0.9819,0.9819,0.9819,0.9819,0.9825,0.9822,0.9819,0.9822,0.9819,0.9873,1.0002,1.0008,1.01,1.0181,1.0131,1.0253,1.0331,1.029,1.0266,1.0327,1.0409,1.047,1.0544,1.0626,1.068,1.0717,1.0721,1.0721,1.0721,1.0721,1.0714,1.0697,1.0697,1.0683,1.0616,1.0541,1.0497,1.0517,1.0558,1.0616,1.0673,1.0714,1.07,1.0639,1.0534,1.0388,1.0263,1.0148,1.0004,0.9913,0.99,0.9842,0.9836,0.9822,0.9819,0.9819,0.9819,0.9819,0.9819,0.9819,0.9819,0.9819,0.9819,0.9819,0.9819,0.9819,0.9819,0.9819,0.9819,0.9819,0.9819,0.9819,0.9819,0.9819,0.9819,0.9819,0.9819,0.9819,0.9819,0.9819,0.9819,0.9819,0.9819,0.9819,0.9819,0.9802,0.9778,0.9707,0.9591,0.9564,0.952,0.9415,0.9317,0.9249,0.9235,0.93,0.8877,0.828,0.7604,0.6842,0.5845,0.5201,0.4494,0.4095,0.4027,0.0,0.3522,0.2964,0.2237]},{"header":{"parameterUnit":"m.s-1","parameterCategory":1,"la1":31.0,"la2":29.5877,"lo1":-88.7671,"lo2":-86.6584,"dx":0.0162,"dy":0.0185,"nx":115,"ny":88,"refTime":"2022-11-03T06:00:00:Z","depth":0,"parameterNumber":3,"parameterNumberName":"V-component_of_WINDS"},"data":[0.0,0.0,0.0,0.0,0.0,0.0,0.0,0.0,0.0,0.0,0.0,0.0,0.0,0.0,0.0,0.0,0.0,0.0,0.0,0.0,0.0,0.0,0.0,0.0,0.0,0.0,0.0,0.0,0.0,0.0,0.0,0.0,0.0,0.0,0.0,0.0,0.0,0.0,0.0,0.0,0.0,0.0,0.0,0.0,0.0,0.0,0.0,0.0,0.0,0.0,0.0,0.0,0.0,0.0,0.0,0.0,0.0,0.0,0.0,0.0,0.0,0.0,0.0,0.0,0.0,0.0,0.0,0.0,0.0,0.0,0.0,0.0,0.0,0.0,0.0,0.0,0.0,0.0,0.0,0.0,0.0,0.0,0.0,0.0,0.0,0.0,0.0,0.0,0.0,0.0,0.0,0.0,0.0,0.0,0.0,0.0,0.0,0.0,0.0,0.0,0.0,0.0,0.0,0.0,0.0,0.0,0.0,0.0,0.0,0.0,0.0,0.0,0.0,0.0,0.0,0.0,0.0,0.0,0.0,0.0,0.0,0.0,0.0,0.0,0.0,0.0,0.0,0.0,0.0,0.0,0.0,0.0,0.0,0.0,0.0,0.0,0.0,0.0,0.0,0.0,0.0,0.0,0.0,0.0,0.0,0.0,0.0,0.0,0.0,0.0,0.0,0.0,0.0,0.0,0.0,0.0,0.0,0.0,0.0,0.0,0.0,0.0,0.0,0.0,0.0,0.0,0.0,0.0,0.0,0.0,0.0,0.0,0.0,0.0,0.0,0.0,0.0,0.0,0.0,0.0,0.0,0.0,0.0,0.0,0.0,0.0,0.0,0.0,0.0,0.0,0.0,0.0,0.0,0.0,0.0,0.0,0.0,0.0,0.0,0.0,0.0,0.0,0.0,0.0,0.0,0.0,0.0,0.0,0.0,0.0,0.0,0.0,0.0,0.0,0.0,0.0,0.0,0.0,0.0,0.0,0.0,0.0,0.0,0.0,0.0,0.0,0.0,0.0,0.0,0.0,0.0,0.0,0.0,0.0,0.0,0.0,0.0,0.0,0.0,0.0,0.0,0.0,0.0,0.0,0.0,0.0,0.0,0.0,0.0,0.0,0.0,0.0,0.0,0.0,0.0,0.0,0.0,0.0,0.0,0.0,0.0,0.0,0.0,0.0,0.0,0.0,0.0,0.0,0.0,0.0,0.0,0.0,0.0,0.0,0.0,0.0,0.0,0.0,0.0,0.0,0.0,0.0,0.0,0.0,0.0,0.0,0.0,0.0,0.0,0.0,0.0,0.0,0.0,0.0,0.0,0.0,0.0,0.0,0.0,0.0,0.0,0.0,0.0,0.0,0.0,0.0,0.0,0.0,0.0,0.0,0.0,0.0,0.0,0.0,0.0,0.0,0.0,0.0,0.0,0.0,0.0,0.0,0.0,0.0,0.0,0.0,0.0,0.0,0.0,0.0,0.0,0.0,0.0,0.0,0.0,0.0,0.0,0.0,0.0,0.0,0.0,0.0,0.0,0.0,0.0,0.0,0.0,0.0,0.0,0.0,0.0,0.0,0.0,0.0,0.0,0.0,0.0,0.0,0.0,0.0,0.0,0.0,0.0,0.0,0.0,0.0,0.0,0.0,0.0,0.0,0.0,0.0,0.0,0.0,0.0,0.0,0.0,0.0,0.0,0.0,0.0,0.0,0.0,0.0,0.0,0.0,0.0,0.0,0.0,0.0,0.0,0.0,0.0,0.0,0.0,0.0,0.0,0.0,0.0,0.0,0.0,0.0,0.0,0.0,0.0,0.0,0.0,0.0,0.0,0.0,0.0,0.0,0.0,0.0,0.0,0.0,0.0,0.0,0.0,0.0,0.0,0.0,0.0,0.0,0.0,0.0,0.0,0.0,0.0,0.0,0.0,0.0,0.0,0.0,0.0,0.0,0.0,0.0,0.0,0.0,0.0,0.0,0.0,0.0,0.0,0.0,0.0,0.0,0.0,0.0,0.0,0.0,0.0,0.0,0.0,0.0,0.0,0.0,0.0,0.0,0.0,0.0,0.0,0.0,0.0,0.0,0.0,0.0,0.0,0.0,0.0,0.0,0.0,0.0,0.0,0.0,0.0,0.0,0.0,0.0,0.0,0.0,0.0,0.0,0.0,0.0,0.0,0.0,0.0,0.0,0.0,0.0,0.0,0.0,0.0,0.0,0.0,0.0,0.0,0.0,0.0,0.0,0.0,0.0,0.0,0.0,0.0,0.0,0.0,0.0,0.0,0.0,0.0,0.0,0.0,0.0,0.0,0.0,0.0,0.0,0.0,0.0,0.0,0.0,0.0,0.0,0.0,0.0,0.0,0.0,0.0,0.0,0.0,0.0,0.0,0.0,0.0,0.0,0.0,0.0,0.0,0.0,0.0,0.0,0.0,0.0,0.0,0.0,0.0,0.0,0.0,0.0,0.0,0.0,0.0,0.0,0.0,0.0,0.0,0.0,0.0,0.0,0.0,0.0,0.0,0.0,0.0,0.0,0.0,0.0,0.0,0.0,0.0,0.0,0.0,0.0,0.0,0.0,0.0,0.0,0.0,0.0,0.0,0.0,0.0,0.0,0.0,0.0,0.0,0.0,0.0,0.0,0.0,0.0,0.0,0.0,0.0,0.0,0.0,0.0,0.0,0.0,0.0,0.0,0.0,0.0,0.0,0.0,0.0,0.0,0.0,0.0,0.0,0.0,0.0,0.0,0.0,0.0,0.0,0.0,0.0,0.0,0.0,0.0,0.0,0.0,0.0,0.0,0.0,0.0,0.0,0.0,0.0,0.0,0.0,0.0,0.0,0.0,0.0,0.0,0.0,0.0,0.0,0.0,0.0,0.0,0.0,0.0,0.0,0.0,0.0,0.0,0.0,0.0,0.0,0.0,0.0,0.0,0.0,0.0,0.0,0.0,0.0,0.0,0.0,0.0,0.0,0.0,0.0,0.0,0.0,0.0,0.0,0.0,0.0,0.0,0.0,0.0,0.0,0.0,0.0,0.0,0.0,0.0,0.0,0.0,0.0,0.0,0.0,0.0,0.0,0.0,0.0,0.0,0.0,0.0,0.0,0.0,0.0,0.0,0.0,0.0,0.0,0.0,0.0,0.0,0.0,0.0,0.0,0.0,0.0,0.0,0.0,0.0,0.0,0.0,0.0,0.0,0.0,0.0,0.0,0.0,0.0,0.0,0.0,0.0,0.0,0.0,0.0,0.0,0.0,0.0,0.0,0.0,0.0,0.0,0.0,0.0,0.0,0.0,0.0,0.0,0.0,0.0,0.0,0.0,0.0,0.0,0.0,0.0,0.0,0.0,0.0,0.0,0.0,0.0,0.0,0.0,0.0,0.0,0.0,0.0,0.0,0.0,0.0,0.0,0.0,0.0,0.0,0.0,0.0,0.0,0.0,0.0,0.0,0.0,0.0,0.0,0.0,0.0,0.0,0.0,0.0,0.0,0.0,0.0,0.0,0.0,0.0,0.0,0.0,0.0,0.0,0.0,0.0,0.0,0.0,0.0,0.0,0.0,0.0,0.0,0.0,0.0,0.0,0.0,0.0,0.0,0.0,0.0,0.0,0.0,0.0,0.0,0.0,0.0,0.0,0.0,0.0,0.0,0.0,0.0,0.0,0.0,0.0,0.0,0.0,0.0,0.0,0.0,0.0,0.0,0.0,0.0,0.0,0.0,0.0,0.0,0.0,0.0,0.0,0.0,0.0,0.0,0.0,0.0,0.0,0.0,0.0,0.0,0.0,0.0,0.0,0.0,0.0,0.0,0.0,0.0,0.0,0.0,0.0,0.0,0.0,0.0,0.0,0.0,0.0,0.0,0.0,0.0,0.0,0.0,0.0,0.0,0.0,0.0,0.0,0.0,0.0,0.0,0.0,0.0,0.0,0.0,0.0,0.0,0.0,0.0,0.0,0.0,0.0,0.0,0.0,0.0,0.0,0.0,0.0,0.0,0.0,0.0,0.0,0.0,0.0,0.0,0.0,0.0,0.0,0.0,0.0,0.0,0.0,0.0,0.0,0.0,0.0,0.0,0.0,0.0,0.0,0.0,0.0,0.0,0.0,0.0,0.0,0.0,0.0,0.0,0.0,0.0,0.0,0.0,0.0,0.0,0.0,0.0,0.0,0.0,0.0,0.0,0.0,0.0,0.0,0.0,0.0,0.0,0.0,0.0,0.0,0.0,0.0,0.0,0.0,0.0,0.0,0.0,0.0,0.0,0.0,0.0,0.0,0.0,2.2828,0.0,0.0,0.0,1.8898,0.0,0.0,0.0,0.0,0.0,0.0,0.0,0.0,0.0,0.0,0.0,0.0,0.0,0.0,0.0,0.0,0.0,0.0,0.0,0.0,0.0,0.0,0.0,0.0,0.0,0.0,0.0,0.0,0.0,0.0,0.0,0.0,0.0,0.0,0.0,0.0,0.0,0.0,0.0,0.0,0.0,0.0,0.0,0.0,0.0,0.0,0.0,0.0,0.0,0.0,0.0,0.0,0.0,0.0,0.0,0.0,0.0,0.0,0.0,0.0,0.0,0.0,0.0,0.0,0.0,0.0,0.0,0.0,0.0,0.0,0.0,0.0,0.0,0.0,0.0,0.0,0.0,0.0,0.0,0.0,0.0,0.0,0.0,0.0,0.0,0.0,0.0,0.0,0.0,0.0,0.0,0.0,0.0,0.0,0.0,0.0,0.0,0.0,0.0,0.0,0.0,0.0,0.0,0.0,0.0,0.0,0.0,0.0,0.0,0.0,2.2398,2.1446,2.1078,2.0214,1.8776,0.0,0.0,0.0,0.0,0.0,0.0,0.0,0.0,0.0,0.0,0.0,0.0,0.0,0.0,0.0,0.0,0.0,0.0,0.0,0.0,0.0,0.0,0.0,0.0,0.0,0.0,0.0,0.0,0.0,0.0,0.0,0.0,0.0,0.0,0.0,0.0,0.0,0.0,0.0,0.0,0.0,0.0,0.0,0.0,0.0,0.0,0.0,0.0,0.0,0.0,0.0,0.0,0.0,0.0,0.0,0.0,0.0,0.0,0.0,0.0,0.0,0.0,0.0,0.0,0.0,0.0,0.0,0.0,0.0,0.0,0.0,0.0,0.0,0.0,0.0,0.0,0.0,0.0,0.0,0.0,0.0,0.0,0.0,0.0,0.0,0.0,0.0,0.0,0.0,0.0,0.0,0.0,0.0,0.0,0.0,0.0,0.0,0.0,0.0,0.0,0.0,0.0,0.0,0.0,0.0,0.0,0.0,0.0,0.0,0.0,0.0,0.0,2.12,2.0304,1.844,0.0,0.0,0.0,0.0,0.0,0.0,0.0,0.0,0.0,0.0,0.0,0.0,0.0,0.0,0.0,0.0,0.0,0.0,0.0,0.0,0.0,0.0,0.0,0.0,0.0,0.0,0.0,0.0,0.0,0.0,0.0,0.0,0.0,0.0,0.0,0.0,0.0,0.0,0.0,0.0,0.0,0.0,0.0,0.0,0.0,0.0,0.0,0.0,0.0,0.0,0.0,0.0,0.0,0.0,0.0,0.0,0.0,0.0,0.0,0.0,0.0,0.0,0.0,0.0,0.0,0.0,0.0,0.0,0.0,0.0,0.0,0.0,0.0,0.0,0.0,0.0,0.0,0.0,0.0,0.0,0.0,0.0,0.0,0.0,0.0,0.0,0.0,0.0,0.0,0.0,0.0,0.0,0.0,0.0,0.0,0.0,0.0,0.0,0.0,0.0,0.0,0.0,0.0,0.0,0.0,0.0,0.0,0.0,0.0,0.0,2.2519,2.167,2.1549,0.0,1.8158,0.0,0.0,0.0,0.0,0.0,0.0,0.0,0.0,0.0,0.0,0.0,0.0,0.0,0.0,0.0,0.0,0.0,0.0,0.0,0.0,0.0,0.0,0.0,0.0,0.0,0.0,0.0,0.0,0.0,0.0,0.0,0.0,0.0,0.0,0.0,0.0,0.0,0.0,0.0,0.0,0.0,0.0,0.0,0.0,0.0,0.0,0.0,0.0,0.0,0.0,0.0,0.0,0.0,0.0,0.0,0.0,0.0,0.0,0.0,0.0,0.0,0.0,0.0,0.0,0.0,0.0,0.0,0.0,0.0,0.0,0.0,0.0,0.0,0.0,0.0,0.0,0.0,0.0,0.0,0.0,0.0,0.0,0.0,0.0,0.0,0.0,0.0,0.0,0.0,0.0,0.0,0.0,0.0,0.0,0.0,0.0,0.0,0.0,0.0,0.0,0.0,0.0,0.0,0.0,0.0,0.0,0.0,0.0,0.0,0.0,2.2077,2.0206,1.9138,1.853,0.0,0.0,0.0,0.0,0.0,0.0,0.0,0.0,0.0,0.0,0.0,0.0,0.0,0.0,0.0,0.0,0.0,0.0,0.0,0.0,0.0,0.0,0.0,0.0,0.0,0.0,0.0,0.0,0.0,0.0,0.0,0.0,0.0,0.0,0.0,0.0,0.0,0.0,0.0,0.0,0.0,0.0,0.0,0.0,0.0,0.0,0.0,0.0,0.0,0.0,0.0,0.0,0.0,0.0,0.0,0.0,0.0,0.0,0.0,0.0,0.0,0.0,0.0,0.0,0.0,0.0,0.0,0.0,0.0,0.0,0.0,0.0,0.0,0.0,0.0,0.0,0.0,0.0,0.0,0.0,0.0,0.0,0.0,0.0,0.0,0.0,0.0,0.0,0.0,0.0,0.0,0.0,0.0,0.0,0.0,0.0,0.0,0.0,0.0,0.0,0.0,0.0,0.0,0.0,0.0,0.0,0.0,0.0,0.0,0.0,2.1564,2.1047,1.9197,1.8532,1.8299,1.8453,0.0,0.0,0.0,0.0,0.0,0.0,0.0,0.0,0.0,0.0,0.0,0.0,0.0,0.0,0.0,0.0,0.0,0.0,0.0,0.0,0.0,0.0,0.0,0.0,0.0,0.0,0.0,0.0,0.0,0.0,0.0,0.0,0.0,0.0,0.0,0.0,0.0,0.0,0.0,0.0,0.0,0.0,0.0,0.0,0.0,0.0,0.0,0.0,0.0,0.0,0.0,0.0,0.0,0.0,0.0,0.0,0.0,0.0,0.0,0.0,0.0,0.0,0.0,0.0,0.0,0.0,0.0,0.0,0.0,0.0,0.0,0.0,0.0,0.0,0.0,0.0,0.0,0.0,0.0,0.0,0.0,0.0,0.0,0.0,0.0,0.0,0.0,0.0,0.0,0.0,0.0,0.0,0.0,0.0,0.0,0.0,0.0,0.0,0.0,0.0,0.0,0.0,0.0,0.0,0.0,0.0,0.0,0.0,1.9348,1.9429,1.9355,1.918,2.1245,2.0817,0.0,0.0,0.0,0.0,0.0,0.0,0.0,0.0,0.0,0.0,0.0,0.0,0.0,0.0,0.0,0.0,0.0,0.0,0.0,0.0,0.0,0.0,0.0,0.0,0.0,0.0,0.0,0.0,0.0,0.0,0.0,0.0,0.0,0.0,0.0,0.0,0.0,0.0,0.0,0.0,0.0,0.0,0.0,0.0,0.0,0.0,0.0,0.0,0.0,0.0,0.0,0.0,0.0,0.0,0.0,0.0,0.0,0.0,0.0,0.0,0.0,0.0,0.0,0.0,0.0,0.0,0.0,0.0,0.0,0.0,0.0,0.0,0.0,0.0,0.0,0.0,0.0,0.0,0.0,0.0,0.0,0.0,0.0,0.0,0.0,0.0,0.0,0.0,0.0,0.0,0.0,0.0,0.0,0.0,0.0,0.0,0.0,0.0,0.0,0.0,0.0,0.0,0.0,0.0,0.0,0.0,0.0,0.0,0.0,1.9275,1.9169,1.9562,2.0408,1.909,1.7581,0.0,0.0,0.0,0.0,0.0,0.0,0.0,0.0,0.0,0.0,0.0,0.0,0.0,0.0,0.0,0.0,0.0,0.0,0.0,0.0,0.0,0.0,0.0,0.0,0.0,0.0,0.0,0.0,0.0,0.0,0.0,0.0,0.0,0.0,0.0,0.0,0.0,0.0,0.0,0.0,0.0,0.0,0.0,0.0,0.0,0.0,0.0,0.0,0.0,0.0,0.0,0.0,0.0,0.0,0.0,0.0,0.0,0.0,0.0,0.0,0.0,0.0,0.0,0.0,0.0,0.0,0.0,0.0,0.0,0.0,0.0,0.0,0.0,0.0,0.0,0.0,0.0,0.0,0.0,0.0,0.0,0.0,0.0,0.0,0.0,0.0,0.0,0.0,0.0,0.0,0.0,0.0,0.0,0.0,0.0,0.0,0.0,0.0,0.0,0.0,0.0,0.0,0.0,0.0,0.0,0.0,0.0,0.0,0.0,1.8359,1.8603,1.9078,1.9638,1.7767,1.6134,0.0,0.0,0.0,0.0,0.0,0.0,0.0,0.0,0.0,0.0,0.0,0.0,0.0,0.0,0.0,0.0,0.0,0.0,0.0,0.0,0.0,0.0,0.0,0.0,0.0,0.0,0.0,0.0,0.0,0.0,0.0,0.0,0.0,0.0,0.0,0.0,0.0,0.0,0.0,0.0,0.0,0.0,0.0,0.0,0.0,0.0,0.0,0.0,0.0,0.0,0.0,0.0,0.0,0.0,0.0,0.0,0.0,0.0,0.0,0.0,0.0,0.0,0.0,0.0,0.0,0.0,0.0,0.0,0.0,0.0,0.0,0.0,0.0,0.0,0.0,0.0,0.0,0.0,0.0,0.0,0.0,0.0,0.0,0.0,0.0,0.0,0.0,0.0,0.0,0.0,0.0,0.0,0.0,0.0,0.0,0.0,0.0,0.0,0.0,0.0,0.0,0.0,0.0,0.0,0.0,0.0,0.0,0.0,1.8122,1.6479,1.7606,1.7791,1.6633,1.7729,1.6994,0.0,0.0,0.0,0.0,0.0,0.0,0.0,0.0,0.0,0.0,0.0,0.0,0.0,0.0,0.0,0.0,0.0,0.0,0.0,0.0,0.0,0.0,0.0,0.0,0.0,0.0,0.0,0.0,0.0,0.0,0.0,0.0,0.0,0.0,0.0,0.0,0.0,0.0,0.0,0.0,0.0,0.0,0.0,0.0,0.0,0.0,0.0,0.0,0.0,0.0,0.0,0.0,0.0,0.0,0.0,0.0,0.0,0.0,0.0,0.0,0.0,0.0,0.0,0.0,0.0,0.0,0.0,0.0,0.0,0.0,0.0,0.0,0.0,0.0,0.0,0.0,0.0,0.0,0.0,0.0,0.0,0.0,0.0,0.0,0.0,0.0,0.0,0.0,0.0,0.0,0.0,0.0,0.0,0.0,0.0,0.0,0.0,0.0,0.0,0.0,0.0,0.0,0.0,0.0,0.0,0.0,0.0,0.0,0.0,1.6954,1.8076,1.8278,1.7427,1.6797,1.531,0.0,0.0,0.0,0.0,0.0,0.0,0.0,0.0,0.0,0.0,0.0,0.0,0.0,0.0,0.0,0.0,0.0,0.0,0.0,0.0,0.0,0.0,0.0,0.0,0.0,0.0,0.0,0.0,0.0,0.0,0.0,0.0,0.0,0.0,0.0,0.0,0.0,0.0,0.0,0.0,0.0,0.0,0.0,0.0,0.0,0.0,0.0,0.0,0.0,0.0,0.0,0.0,0.0,0.0,0.0,0.0,0.0,0.0,0.0,0.0,0.0,0.0,0.0,0.0,0.0,0.0,0.0,0.0,0.0,0.0,0.0,0.0,0.0,0.0,0.0,0.0,0.0,0.0,0.0,0.0,0.0,0.0,0.0,0.0,0.0,0.0,0.0,0.0,0.0,0.0,0.0,0.0,0.0,0.0,0.0,0.0,0.0,0.0,0.0,0.0,0.0,0.0,0.0,0.0,0.0,0.0,0.0,0.0,0.0,1.6573,1.7356,1.7455,1.6779,1.6001,1.4704,1.2866,0.0,0.0,0.0,0.0,0.0,0.0,0.0,0.0,0.0,0.0,0.0,0.0,0.0,0.0,0.0,0.0,0.0,0.0,0.0,0.0,0.0,0.0,0.0,0.0,0.0,0.0,0.0,0.0,0.0,0.0,0.0,0.0,0.0,0.0,0.0,0.0,0.0,0.0,0.0,0.0,0.0,0.0,0.0,0.0,0.0,0.0,0.0,0.0,0.0,0.0,0.0,0.0,0.0,0.0,0.0,0.0,0.0,0.0,0.0,0.0,0.0,0.0,0.0,0.0,0.0,0.0,0.0,0.0,0.0,0.0,0.0,0.0,0.0,0.0,0.0,0.0,0.0,0.0,0.0,0.0,0.0,0.0,0.0,0.0,0.0,0.0,0.0,0.0,0.0,0.0,0.0,0.0,0.0,0.0,0.0,0.0,0.0,0.0,0.0,0.0,0.0,0.0,0.0,0.0,0.0,0.0,0.0,0.0,1.5317,1.5624,1.5577,1.5172,1.5448,1.505,0.0,0.0,0.0,0.0,0.0,0.0,0.0,0.0,0.0,0.0,0.0,0.0,0.0,0.0,0.0,0.0,0.0,0.0,0.0,0.0,0.0,0.0,0.0,0.0,0.0,0.0,0.0,0.0,0.0,0.0,0.0,0.0,0.0,0.0,0.0,0.0,0.0,0.0,0.0,0.0,0.0,0.0,0.0,0.0,0.0,0.0,0.0,0.0,0.0,0.0,0.0,0.0,0.0,0.0,0.0,0.0,0.0,0.0,0.0,0.0,0.0,0.0,0.0,0.0,0.0,0.0,0.0,0.0,0.0,0.0,0.0,0.0,0.0,0.0,0.0,0.0,0.0,0.0,0.0,0.0,0.0,0.0,0.0,0.0,0.0,0.0,0.0,0.0,0.0,0.0,0.0,0.0,0.0,0.0,0.0,0.0,0.0,0.0,0.0,0.0,0.0,0.0,0.0,0.0,0.0,0.0,0.0,0.0,0.0,1.4211,1.4267,1.4905,1.6027,1.5743,1.5339,0.0,0.0,0.0,0.0,0.0,0.0,0.0,0.0,0.0,0.0,0.0,0.0,0.0,0.0,0.0,0.0,0.0,0.0,0.0,0.0,0.0,0.0,0.0,0.0,0.0,0.0,0.0,0.0,0.0,0.0,0.0,0.0,0.0,0.0,0.0,0.0,0.0,0.0,0.0,0.0,0.0,0.0,0.0,0.0,0.0,0.0,0.0,0.0,0.0,0.0,0.0,0.0,0.0,0.0,0.0,0.0,0.0,0.0,0.0,0.0,0.0,0.0,0.0,0.0,0.0,0.0,0.0,0.0,0.0,0.0,0.0,0.0,0.0,0.0,0.0,0.0,0.0,0.0,0.0,0.0,0.0,0.0,0.0,0.0,0.0,0.0,0.0,0.0,0.0,0.0,0.0,0.0,0.0,0.0,0.0,0.0,0.0,0.0,0.0,0.0,0.0,0.0,0.0,0.0,0.0,0.0,0.0,0.0,1.634,1.4765,1.435,1.4777,1.6007,1.5869,1.565,0.0,0.0,0.0,0.0,0.0,0.0,0.0,0.0,0.0,0.0,0.0,0.0,0.0,0.0,0.0,0.0,0.0,0.0,0.0,0.0,0.0,0.0,0.0,0.0,0.0,0.0,0.0,0.0,0.0,0.0,0.0,0.0,0.0,0.0,0.0,0.0,0.0,0.0,0.0,0.0,0.0,0.0,0.0,0.0,0.0,0.0,0.0,0.0,0.0,0.0,0.0,0.0,0.0,0.0,0.0,0.0,0.0,0.0,0.0,0.0,0.0,0.0,0.0,0.0,0.0,0.0,0.0,0.0,0.0,0.0,0.0,0.0,0.0,0.0,0.0,0.0,0.0,0.0,0.0,0.0,0.0,0.0,0.0,0.0,0.0,0.0,0.0,0.0,0.0,0.0,0.0,0.0,0.0,0.0,0.0,0.0,0.0,0.0,0.0,0.0,0.0,0.0,0.0,0.0,0.0,0.0,0.0,0.0,1.8149,1.6224,1.5298,1.4978,1.5245,1.5898,1.603,0.0,0.0,0.0,0.0,0.0,0.0,0.0,0.0,0.0,0.0,0.0,0.0,0.0,0.0,0.0,0.0,0.0,0.0,0.0,0.0,0.0,0.0,0.0,0.0,0.0,0.0,0.0,0.0,0.0,0.0,0.0,0.0,0.0,0.0,0.0,0.0,0.0,0.0,0.0,0.0,0.0,0.0,0.0,0.0,0.0,0.0,0.0,0.0,0.0,0.0,0.0,0.0,0.0,0.0,0.0,0.0,0.0,0.0,0.0,0.0,0.0,0.0,0.0,0.0,0.0,0.0,0.0,0.0,0.0,0.0,0.0,0.0,0.0,0.0,0.0,0.0,0.0,0.0,0.0,0.0,0.0,0.0,0.0,0.0,0.0,0.0,0.0,0.0,0.0,0.0,0.0,0.0,0.0,0.0,0.0,0.0,0.0,0.0,0.0,0.0,0.0,0.0,0.0,0.0,0.0,0.0,0.0,0.0,1.837,1.676,1.602,1.5195,1.426,1.5811,1.6537,0.0,0.0,0.0,0.0,0.0,0.0,0.0,0.0,0.0,0.0,0.0,0.0,0.0,0.0,0.0,0.0,0.0,0.0,0.0,0.0,0.0,0.0,0.0,0.0,0.0,0.0,0.0,0.0,0.0,0.0,0.0,0.0,0.0,0.0,0.0,0.0,0.0,0.0,0.0,0.0,0.0,0.0,0.0,0.0,0.0,0.0,0.0,0.0,1.8603,0.0,0.0,0.0,0.0,0.0,0.0,0.0,0.0,0.0,0.0,0.0,0.0,0.0,0.0,0.0,0.0,0.0,0.0,0.0,0.0,0.0,0.0,0.0,0.0,0.0,0.0,0.0,0.0,0.0,0.0,0.0,0.0,0.0,0.0,0.0,0.0,0.0,0.0,0.0,0.0,0.0,0.0,0.0,0.0,0.0,0.0,0.0,0.0,0.0,0.0,0.0,0.0,0.0,0.0,0.0,0.0,0.0,0.0,0.0,1.9565,1.8653,1.7438,1.6329,1.5507,1.6395,1.6353,0.0,0.0,0.0,0.0,0.0,0.0,0.0,0.0,0.0,0.0,0.0,0.0,0.0,0.0,0.0,0.0,0.0,0.0,0.0,0.0,0.0,0.0,0.0,0.0,0.0,0.0,0.0,0.0,0.0,0.0,0.0,0.0,0.0,0.0,0.0,0.0,0.0,0.0,0.0,0.0,0.0,0.0,0.0,0.0,0.0,0.0,0.0,0.0,0.0,0.0,0.0,0.0,0.0,0.0,0.0,0.0,0.0,0.0,0.0,0.0,0.0,0.0,0.0,0.0,0.0,0.0,0.0,0.0,0.0,0.0,0.0,0.0,0.0,0.0,0.0,0.0,0.0,0.0,0.0,0.0,0.0,0.0,0.0,0.0,0.0,0.0,0.0,0.0,0.0,0.0,0.0,0.0,0.0,0.0,0.0,0.0,0.0,0.0,0.0,0.0,0.0,0.0,0.0,0.0,0.0,0.0,0.0,2.0865,2.0826,2.0645,1.8953,1.7724,1.7122,1.7027,1.5763,1.3264,0.0,0.0,0.0,0.0,0.0,0.0,0.0,0.0,0.0,0.0,0.0,0.0,0.0,0.0,0.0,0.0,0.0,0.0,0.0,0.0,0.0,0.0,0.0,0.0,0.0,0.0,0.0,0.0,0.0,0.0,0.0,0.0,0.0,0.0,0.0,0.0,0.0,0.0,1.9957,1.7553,0.0,0.0,0.0,0.0,0.0,0.0,0.0,0.0,1.3597,0.0,0.0,0.0,0.0,0.0,0.0,0.0,0.0,0.0,0.0,0.0,0.0,0.0,0.0,0.0,0.0,0.0,0.0,0.0,0.0,0.0,0.0,0.0,0.0,0.0,0.0,0.0,0.0,0.0,0.0,0.0,0.0,0.0,0.0,0.0,0.0,0.0,0.0,0.0,0.0,0.0,0.0,0.0,0.0,0.0,0.0,0.0,0.0,0.0,0.0,0.0,0.0,0.0,0.0,0.0,0.0,2.2126,2.127,2.0943,2.1158,1.9783,1.844,1.7163,1.6725,1.5068,1.2193,0.0,0.0,0.0,0.0,0.0,0.0,0.0,0.0,0.0,0.0,0.0,0.0,0.0,0.0,0.0,0.0,0.0,0.0,0.0,0.0,0.0,0.0,0.0,0.0,0.0,0.0,0.0,0.0,0.0,0.0,0.0,0.0,0.0,0.0,0.0,0.0,0.0,0.0,0.0,1.7186,1.6169,0.0,0.0,0.0,0.0,0.0,0.0,0.0,0.0,1.2798,0.0,0.0,0.0,0.0,0.0,0.0,0.0,0.0,0.0,0.0,0.0,0.0,0.0,0.0,0.0,0.0,0.0,0.0,0.0,0.0,0.0,0.0,0.0,0.0,0.0,0.0,0.0,0.0,0.0,0.0,0.0,0.0,0.0,0.0,0.0,0.0,0.0,0.0,0.0,0.0,0.0,0.0,0.0,0.0,0.0,0.0,0.0,0.0,0.0,0.0,0.0,0.0,0.0,0.0,0.0,2.267,2.2289,2.2195,2.2482,2.1114,1.9831,1.8812,1.7116,1.4813,0.0,0.0,0.0,0.0,0.0,0.0,0.0,0.0,0.0,0.0,0.0,0.0,0.0,0.0,0.0,0.0,0.0,0.0,0.0,0.0,0.0,0.0,0.0,0.0,0.0,0.0,0.0,0.0,0.0,0.0,0.0,0.0,0.0,0.0,0.0,0.0,0.0,0.0,0.0,0.0,1.6104,1.4936,1.4777,0.0,0.0,0.0,0.0,0.0,0.0,1.1633,1.2289,0.0,0.0,0.0,0.0,0.0,0.0,0.0,0.0,0.0,0.0,0.0,0.0,0.0,0.0,0.0,0.0,0.0,0.0,0.0,0.0,0.0,0.0,0.0,0.0,0.0,0.0,0.0,0.0,0.0,0.0,0.0,0.0,0.0,0.0,0.0,0.0,0.0,0.0,0.0,0.0,0.0,0.0,0.0,0.0,0.0,0.0,0.0,0.0,0.0,0.0,0.0,0.0,0.0,0.0,0.0,2.2988,2.3118,2.334,2.3624,2.2379,2.1342,2.0554,1.8274,1.5537,0.0,0.0,0.0,0.0,0.0,0.0,0.0,0.0,0.0,0.0,0.0,0.0,0.0,0.0,0.0,0.0,0.0,0.0,0.0,0.0,0.0,0.0,0.0,0.0,0.0,0.0,0.0,0.0,0.0,0.0,0.0,0.0,0.0,0.0,0.0,0.0,0.0,0.0,0.0,0.0,0.0,1.4092,1.4506,1.354,0.0,0.0,0.0,0.0,1.1041,1.1559,0.0,0.0,0.0,0.0,0.0,0.0,0.0,0.0,0.0,0.0,0.0,0.0,0.0,0.0,0.0,0.0,0.0,0.0,0.0,0.0,0.0,0.0,0.0,0.0,0.0,0.0,0.0,0.0,0.0,0.0,0.0,0.0,0.0,0.0,0.0,0.0,0.0,0.0,0.0,0.0,0.0,0.0,0.0,0.0,0.0,0.0,0.0,0.0,0.0,0.0,0.0,0.0,0.0,0.0,0.0,0.0,2.2951,2.3064,2.3309,2.3652,2.3221,2.2401,2.1236,2.0693,1.8198,0.0,0.0,0.0,0.0,0.0,0.0,0.0,0.0,0.0,0.0,0.0,0.0,0.0,0.0,0.0,0.0,0.0,0.0,0.0,0.0,0.0,0.0,0.0,0.0,0.0,0.0,0.0,0.0,0.0,0.0,0.0,0.0,0.0,0.0,0.0,0.0,0.0,0.0,0.0,0.0,0.0,1.5342,1.5797,1.5738,1.5107,0.0,0.0,1.2552,1.1434,1.1332,0.0,0.0,0.0,0.0,0.0,0.0,0.0,0.0,0.0,0.0,0.0,0.0,0.0,0.0,0.0,0.0,0.0,0.0,0.0,0.0,0.0,0.0,0.0,0.0,0.0,0.0,0.0,0.0,0.0,0.0,0.0,0.0,0.0,0.0,0.0,0.0,0.0,0.0,0.0,0.0,0.0,0.0,0.0,0.0,0.0,0.0,0.0,0.0,0.0,0.0,0.0,0.0,0.0,0.0,0.0,2.2534,2.3161,2.3763,2.4142,2.4298,2.3998,2.3507,2.2859,2.1163,1.8748,0.0,0.0,0.0,0.0,0.0,0.0,0.0,0.0,0.0,0.0,0.0,0.0,0.0,0.0,0.0,0.0,0.0,0.0,0.0,0.0,0.0,0.0,0.0,0.0,0.0,0.0,0.0,0.0,0.0,0.0,0.0,0.0,0.0,0.0,0.0,0.0,0.0,0.0,0.0,0.0,0.0,0.0,1.5407,1.5404,0.0,0.0,0.0,1.3665,1.3046,0.0,0.0,0.0,0.0,0.0,0.0,0.0,0.0,0.0,0.0,0.0,0.0,0.0,0.0,0.0,0.0,0.0,0.0,0.0,0.0,0.0,0.0,0.0,0.0,0.0,0.0,0.0,0.0,0.0,0.0,0.0,0.0,0.0,0.0,0.0,0.0,0.0,0.0,0.0,0.0,0.0,0.0,0.0,0.0,0.0,0.0,0.0,0.0,0.0,0.0,0.0,0.0,0.0,0.0,0.0,0.0,0.0,2.337,2.4384,2.4895,2.4804,2.4595,2.4282,2.3846,2.1759,0.0,0.0,0.0,0.0,0.0,0.0,0.0,0.0,0.0,0.0,0.0,0.0,0.0,0.0,0.0,0.0,0.0,0.0,0.0,0.0,0.0,0.0,0.0,0.0,0.0,0.0,0.0,2.0106,0.0,0.0,0.0,0.0,0.0,0.0,0.0,0.0,0.0,0.0,0.0,0.0,0.0,0.0,1.5519,1.5317,1.5411,1.5235,0.0,0.0,1.4492,1.4471,1.4808,1.5279,0.0,0.0,0.0,0.0,0.0,0.0,0.0,0.0,0.0,0.0,0.0,0.0,0.0,0.0,0.0,0.0,0.0,0.0,0.0,0.0,0.0,0.0,0.0,0.0,0.0,0.0,0.0,0.0,0.0,0.0,0.0,0.0,0.0,0.0,0.0,0.0,0.0,0.0,0.0,0.0,0.0,0.0,0.0,0.0,0.0,0.0,0.0,0.0,0.0,0.0,0.0,0.0,0.0,0.0,0.0,2.3505,2.4658,2.5109,2.4825,2.4898,2.4494,2.3578,2.3358,2.1618,0.0,0.0,0.0,0.0,0.0,0.0,0.0,0.0,0.0,0.0,0.0,0.0,0.0,0.0,0.0,0.0,0.0,0.0,0.0,0.0,0.0,0.0,0.0,0.0,0.0,0.0,0.0,0.0,0.0,0.0,0.0,0.0,0.0,0.0,0.0,0.0,0.0,0.0,0.0,0.0,0.0,1.7151,1.6495,1.6755,1.6602,0.0,0.0,1.4955,1.5177,1.496,1.5198,1.6512,0.0,0.0,0.0,0.0,0.0,0.0,0.0,0.0,0.0,0.0,0.0,0.0,0.0,0.0,0.0,0.0,0.0,0.0,0.0,0.0,0.0,0.0,0.0,0.0,0.0,0.0,0.0,0.0,0.0,0.0,0.0,0.0,0.0,0.0,0.0,0.0,0.0,0.0,0.0,0.0,0.0,0.0,0.0,0.0,0.0,0.0,0.0,0.0,0.0,0.0,0.0,0.0,0.0,2.2594,2.2954,2.4379,2.5053,2.4911,2.4686,2.4313,2.3825,2.3171,2.1546,0.0,0.0,0.0,0.0,0.0,0.0,0.0,0.0,0.0,0.0,0.0,0.0,0.0,0.0,0.0,0.0,0.0,0.0,0.0,0.0,0.0,0.0,0.0,0.0,0.0,0.0,0.0,0.0,2.1394,2.1908,2.1702,0.0,0.0,0.0,0.0,0.0,0.0,0.0,0.0,0.0,0.0,1.8436,1.8145,1.808,0.0,0.0,1.6411,1.5959,1.581,1.5806,1.604,1.67,1.6759,0.0,0.0,0.0,0.0,0.0,0.0,0.0,0.0,0.0,0.0,0.0,0.0,0.0,0.0,0.0,0.0,0.0,0.0,0.0,0.0,0.0,0.0,0.0,0.0,0.0,0.0,0.0,0.0,0.0,0.0,0.0,0.0,0.0,0.0,0.0,0.0,0.0,0.0,0.0,0.0,0.0,0.0,0.0,0.0,0.0,0.0,0.0,0.0,0.0,0.0,0.0,0.0,2.2815,2.2975,2.4305,2.4967,2.4873,2.4446,2.4045,2.3689,2.2798,2.1434,0.0,0.0,0.0,0.0,0.0,0.0,0.0,0.0,0.0,0.0,0.0,0.0,0.0,0.0,0.0,0.0,0.0,0.0,0.0,0.0,0.0,0.0,0.0,0.0,0.0,0.0,0.0,0.0,2.1866,2.2449,2.2802,0.0,0.0,0.0,0.0,0.0,0.0,0.0,0.0,0.0,0.0,1.9853,1.9808,1.9452,1.9034,1.8747,1.8016,1.7462,1.7383,1.7538,1.7705,1.7868,0.0,0.0,0.0,0.0,0.0,0.0,0.0,0.0,0.0,0.0,0.0,0.0,0.0,0.0,0.0,0.0,0.0,0.0,0.0,0.0,0.0,0.0,0.0,0.0,0.0,0.0,0.0,0.0,0.0,0.0,2.2446,0.0,0.0,0.0,0.0,0.0,0.0,0.0,0.0,0.0,0.0,0.0,0.0,0.0,0.0,0.0,0.0,0.0,0.0,0.0,0.0,0.0,0.0,2.3747,2.3778,2.4579,2.4867,2.4627,2.4215,2.3704,2.3088,2.2439,2.1605,2.0482,0.0,0.0,0.0,0.0,0.0,0.0,0.0,0.0,0.0,0.0,0.0,0.0,0.0,0.0,0.0,0.0,0.0,0.0,0.0,0.0,0.0,0.0,0.0,0.0,0.0,0.0,2.0685,2.1606,2.2789,0.0,0.0,0.0,0.0,0.0,0.0,0.0,0.0,0.0,0.0,2.1245,2.1537,2.1473,2.0828,2.0379,2.0361,1.9708,1.9449,2.0111,2.0231,2.033,0.0,0.0,0.0,0.0,0.0,0.0,0.0,0.0,0.0,0.0,0.0,0.0,0.0,0.0,0.0,0.0,0.0,0.0,0.0,0.0,0.0,0.0,0.0,0.0,0.0,0.0,0.0,2.7571,2.6593,0.0,0.0,0.0,0.0,0.0,0.0,0.0,0.0,0.0,0.0,0.0,2.6462,2.7105,0.0,0.0,0.0,0.0,0.0,0.0,0.0,0.0,0.0,0.0,0.0,0.0,2.3657,2.3818,2.4486,2.483,2.4726,2.4393,2.4082,2.3853,2.349,2.2501,2.0828,0.0,0.0,0.0,0.0,0.0,0.0,0.0,0.0,0.0,0.0,0.0,0.0,0.0,0.0,0.0,0.0,0.0,0.0,0.0,0.0,0.0,0.0,0.0,0.0,0.0,2.2838,0.0,0.0,0.0,0.0,0.0,0.0,0.0,0.0,0.0,0.0,0.0,2.2738,2.2723,2.318,2.3525,2.3501,2.2696,2.2132,0.0,0.0,0.0,0.0,0.0,0.0,0.0,0.0,0.0,0.0,0.0,0.0,0.0,0.0,1.8168,1.821,1.8066,1.799,1.8166,0.0,0.0,0.0,0.0,0.0,0.0,0.0,0.0,0.0,0.0,0.0,0.0,0.0,0.0,2.8892,0.0,2.8052,0.0,0.0,0.0,0.0,0.0,0.0,0.0,0.0,2.7794,2.8118,2.7826,2.8351,2.836,0.0,2.7686,2.7338,0.0,0.0,0.0,0.0,0.0,0.0,0.0,0.0,2.4016,2.4157,2.4847,2.5167,2.5037,2.4979,2.4864,2.4757,2.4554,2.3671,2.2028,2.1796,2.183,0.0,0.0,0.0,0.0,0.0,0.0,0.0,0.0,0.0,0.0,0.0,0.0,0.0,0.0,0.0,0.0,0.0,0.0,0.0,0.0,0.0,0.0,0.0,2.439,0.0,0.0,0.0,0.0,0.0,0.0,0.0,0.0,0.0,2.4759,2.4317,2.4215,2.4644,2.4784,2.4926,2.515,0.0,0.0,0.0,0.0,0.0,0.0,0.0,2.0802,2.163,2.0847,2.0358,2.101,2.0639,2.0434,2.0899,0.0,0.0,1.8846,1.8618,1.8519,1.8719,1.8732,1.8312,1.6979,1.6681,1.6217,0.0,0.0,0.0,0.0,0.0,0.0,0.0,0.0,3.0782,3.0025,0.0,2.9592,0.0,0.0,0.0,0.0,0.0,2.9534,0.0,0.0,3.0099,3.0129,3.0134,2.9747,2.9404,2.9133,2.9598,2.9244,2.8161,2.7373,0.0,0.0,0.0,0.0,0.0,0.0,2.4887,2.4932,2.5676,2.5906,2.5593,2.596,2.6021,2.5783,2.5671,2.5196,2.4211,2.391,2.3651,2.342,2.2659,0.0,0.0,0.0,0.0,0.0,0.0,0.0,0.0,0.0,0.0,0.0,0.0,0.0,0.0,0.0,0.0,0.0,0.0,0.0,0.0,2.5128,0.0,0.0,0.0,0.0,0.0,0.0,0.0,0.0,0.0,0.0,2.6804,2.5646,2.5302,2.6479,0.0,0.0,0.0,0.0,2.5425,2.5439,2.5398,2.5356,2.5315,2.4712,2.4255,2.4281,0.0,0.0,2.0653,2.1083,2.1518,2.1506,2.1029,2.0515,1.9898,1.9359,1.9183,1.9635,1.897,1.8064,1.74,1.6404,1.5254,3.3614,0.0,0.0,0.0,0.0,3.2052,3.2327,3.2885,3.2632,3.2249,3.181,3.2266,0.0,0.0,0.0,0.0,0.0,0.0,3.0515,3.1006,3.1023,3.1304,3.1777,3.1157,3.0951,3.1099,3.0157,2.9648,2.9572,2.9128,2.7862,2.5872,0.0,0.0,0.0,0.0,2.6802,2.6795,2.7017,2.7103,2.6996,2.7251,2.7673,2.8288,2.8335,2.8065,2.7441,2.7034,2.6416,2.5568,2.5586,0.0,0.0,0.0,0.0,0.0,0.0,0.0,0.0,0.0,0.0,0.0,0.0,0.0,0.0,0.0,0.0,0.0,0.0,0.0,2.5986,2.6946,2.7443,0.0,0.0,0.0,0.0,0.0,0.0,0.0,0.0,0.0,2.9161,2.8545,2.8023,0.0,0.0,2.7538,2.7327,2.6654,2.6176,2.6203,2.5728,0.0,2.5398,2.4861,2.4586,2.5023,2.4149,2.3357,2.3232,2.2582,2.2071,2.2071,2.1333,2.0629,2.0465,1.9962,1.966,1.9723,1.9258,1.8598,1.7955,1.6612,1.5283,3.4511,3.4407,3.4401,3.4154,3.3782,3.3736,3.3956,3.4345,3.4507,3.4312,3.3904,3.4553,3.4225,3.3221,3.2748,0.0,0.0,0.0,3.1414,3.1824,3.1841,3.2075,3.2448,3.2056,3.1889,3.1946,3.1018,3.0654,3.0845,3.0304,2.9238,2.7634,0.0,0.0,2.66,2.7281,2.7642,2.7667,2.7962,2.8096,2.8075,2.8667,2.9416,3.0296,3.0431,3.0246,2.9713,2.9163,2.8417,2.7515,2.7232,2.6904,0.0,0.0,0.0,0.0,0.0,0.0,0.0,0.0,0.0,0.0,0.0,2.5616,2.5131,0.0,0.0,0.0,2.6785,2.7951,2.9566,3.0113,0.0,0.0,0.0,0.0,0.0,0.0,0.0,3.1558,3.0688,3.0159,3.0608,3.0582,3.0113,2.8997,2.885,2.8732,2.8393,0.0,2.7698,2.773,2.7368,2.6967,2.6683,2.6096,2.5628,2.5425,2.5035,2.4738,2.4724,2.4033,2.3566,2.342,2.2781,2.2127,2.1891,2.1173,2.0399,1.9888,1.9534,1.907,1.8268,1.7091,1.5927,3.5168,3.5616,3.5667,3.565,3.56,3.56,3.5605,3.5694,3.6186,3.6055,3.5538,3.6381,3.5999,3.4599,3.3891,0.0,3.3409,3.3005,3.2776,3.2706,3.2705,3.2653,3.2616,3.2631,3.248,3.2187,3.2144,3.2054,3.1888,3.1134,3.0565,3.0208,2.9477,2.8587,2.7617,2.7791,2.7941,2.8028,2.8772,2.9122,2.9129,3.0237,3.1166,3.1874,3.2062,3.19,3.1399,3.0716,3.0099,2.9565,2.8351,2.7647,2.7668,0.0,0.0,0.0,0.0,0.0,0.0,0.0,0.0,0.0,0.0,0.0,0.0,0.0,0.0,0.0,3.0784,0.0,3.3631,3.3823,0.0,0.0,0.0,3.2219,3.2431,3.1828,3.1673,3.231,0.0,0.0,3.1376,3.1972,3.1721,2.9954,2.9679,2.9646,2.9666,2.9645,2.9668,2.9705,2.9684,2.942,2.8753,2.8,2.7104,2.6048,2.5564,2.5495,2.5467,2.5356,2.537,2.5273,2.49,2.4251,2.3699,2.2567,2.1482,2.0246,1.9863,1.9482,1.8528,1.7711,1.6699,3.6514,3.5667,3.6265,3.6163,3.5616,3.5616,3.5849,3.6224,3.635,3.6519,3.6794,3.7345,3.7299,3.6735,3.657,3.615,3.555,3.5443,3.5038,3.4422,3.4404,3.4076,3.3504,3.3692,3.3764,3.3648,3.3265,3.305,3.3004,3.2426,3.2069,3.2,3.1928,3.087,2.8878,2.942,3.0106,3.081,3.0973,3.1226,3.1619,3.2336,3.2718,3.2713,3.3145,3.3447,3.3617,3.3446,3.3416,3.3511,3.2879,3.2494,3.2496,3.0049,0.0,0.0,0.0,0.0,0.0,0.0,0.0,0.0,0.0,3.0579,2.8862,0.0,3.0247,0.0,3.3341,3.4127,3.3822,3.432,0.0,0.0,3.4288,3.4074,3.3775,3.3596,3.3385,3.316,3.2983,3.2865,3.2882,3.3017,3.2984,3.2507,3.2051,3.1606,3.1166,3.1102,3.1102,3.1088,3.0699,3.0299,3.0079,2.9124,2.8228,2.7907,2.6949,2.6229,2.6229,2.5769,2.5398,2.5356,2.4914,2.4306,2.3778,2.2977,2.2259,2.138,2.0496,1.9747,1.9419,1.8288,1.7047,3.7909,3.7378,3.7478,3.7253,3.6778,3.5963,3.592,3.6416,3.6661,3.7039,3.7542,3.805,3.8159,3.801,3.7658,3.7272,3.6817,3.6468,3.6094,3.5742,3.5378,3.5043,3.4734,3.4514,3.4423,3.4423,3.4124,3.4036,3.4111,3.3454,3.3184,3.3319,3.3044,3.2232,3.0969,3.1327,3.1448,3.123,3.189,3.2511,3.3056,3.3289,3.3269,3.3041,3.3873,3.4261,3.4153,3.4661,3.4691,3.4162,3.3688,3.3439,3.3421,3.1812,3.1352,0.0,0.0,0.0,0.0,0.0,0.0,0.0,0.0,0.0,0.0,0.0,3.2646,3.3891,3.5569,3.6269,3.5525,3.6141,3.6493,3.6253,3.6254,3.6061,3.5582,3.5227,3.4789,3.4305,3.3949,3.368,3.3448,3.3694,3.3897,3.3897,3.3889,3.3537,3.2653,3.2447,3.2449,3.2465,3.2165,3.1673,3.1166,3.0417,2.9613,2.8778,2.8192,2.7705,2.7119,2.6654,2.6375,2.6347,2.61,2.5696,2.5052,2.4198,2.3388,2.2652,2.1553,2.0633,2.0283,1.8907,1.7521,3.928,3.9518,3.8949,3.8646,3.841,3.6797,3.629,3.6606,3.7078,3.7542,3.8013,3.8496,3.8723,3.871,3.7966,3.7669,3.7658,3.6938,3.6671,3.6756,3.6106,3.5864,3.5964,3.5366,3.5075,3.5075,3.5105,3.5248,3.5455,3.4737,3.4479,3.4693,3.3942,3.3494,3.3345,3.3543,3.2861,3.1342,3.2573,3.3463,3.3908,3.3668,3.3408,3.3185,3.445,3.4894,3.4325,3.5281,3.524,3.3979,3.3466,3.3238,3.3344,3.3537,3.3589,0.0,3.3679,0.0,0.0,0.0,0.0,0.0,0.0,0.0,0.0,3.4621,3.5072,3.5306,3.7386,3.8414,3.7713,3.8285,3.8515,3.8065,3.8015,3.7808,3.7324,3.6664,3.6054,3.561,3.4959,3.4399,3.4083,3.447,3.4844,3.4942,3.5386,3.5265,3.4172,3.3856,3.3797,3.3847,3.3761,3.3179,3.218,3.1772,3.1114,2.9628,2.9396,2.9301,2.8196,2.792,2.782,2.782,2.769,2.744,2.6935,2.571,2.4631,2.4008,2.2776,2.1629,2.0935,1.9644,1.8268,4.0583,3.9645,4.0086,3.9926,3.9341,3.8982,3.8382,3.7632,3.7738,3.8066,3.8546,3.8658,3.8833,3.8994,3.8656,3.8593,3.8785,3.8416,3.7926,3.7333,3.7416,3.7106,3.6601,3.6907,3.7042,3.708,3.7283,3.745,3.7595,3.744,3.7408,3.7514,3.7293,3.6491,3.5253,0.0,0.0,0.0,3.5187,3.4841,3.4538,3.4421,3.4143,3.3718,3.5225,0.0,3.6776,3.7029,3.7314,3.7631,3.716,0.0,0.0,0.0,0.0,0.0,0.0,0.0,0.0,0.0,0.0,0.0,3.9073,3.805,3.6083,3.7086,3.7641,3.7129,3.8046,3.8634,3.8505,3.8615,3.8658,3.8562,3.8546,3.835,3.7825,3.7629,3.7363,3.6886,3.6706,3.6562,3.641,3.6605,3.6656,3.6599,3.6796,3.6614,3.592,3.5411,3.5194,3.5207,3.4712,3.4137,3.3329,3.2782,3.2384,3.1815,3.0903,3.0314,2.9903,2.9374,2.9058,2.8996,2.8662,2.8294,2.8068,2.6658,2.5398,2.5199,2.3755,2.2314,2.1649,2.0539,1.9339,4.1975,0.0,4.1504,4.1379,0.0,4.0754,4.0364,3.9893,3.892,3.864,3.8898,3.8894,3.9068,3.9346,3.9203,3.921,3.9358,3.9216,3.9005,3.877,3.8481,3.8223,3.7963,3.7855,3.7828,3.7894,3.8015,3.8144,3.8242,3.8246,3.828,3.8293,3.828,3.7792,3.6962,3.8067,3.8219,3.7346,3.6949,3.6546,3.6141,3.5936,3.5646,3.5308,3.6697,0.0,0.0,0.0,0.0,0.0,0.0,0.0,0.0,0.0,0.0,4.0136,3.9677,3.9644,4.0208,4.0106,4.0391,4.116,4.1095,4.035,3.8756,3.9426,3.9717,3.9331,3.9662,3.9866,3.9884,3.9884,3.9866,3.9863,3.9533,3.9182,3.8913,3.8536,3.81,3.7649,3.756,3.747,3.721,3.7209,3.7209,3.7209,3.7209,3.7116,3.6823,3.6333,3.592,3.565,3.5339,3.4854,3.4268,3.4177,3.3622,3.2837,3.2272,3.163,3.0658,3.0188,2.9829,2.948,2.9134,2.8923,2.8777,2.7551,2.643,2.6251,2.5071,2.3785,2.3076,2.1648,2.0182,4.3177,4.3542,4.2945,4.2885,4.3067,4.2413,4.2198,4.219,0.0,0.0,0.0,3.9466,3.9602,3.9887,3.9698,3.9652,3.9698,3.9622,3.9754,3.9974,3.9357,3.9195,3.9431,3.8791,3.8536,3.866,3.8646,3.8697,3.8777,3.878,3.8867,3.8995,3.9023,3.9035,3.9118,3.9689,3.9629,3.8911,3.8315,3.7943,3.7819,3.7545,3.7348,3.7224,3.8568,3.9302,3.9335,4.084,4.1095,3.9812,3.9974,4.0182,4.0333,4.0408,4.1101,4.2487,4.2704,4.272,4.272,4.2467,4.2403,4.2614,4.2246,4.1765,4.1164,4.1113,4.1113,4.1113,4.1113,4.1095,4.1113,4.1095,4.1113,4.1095,4.0524,4.0102,4.0084,3.9551,3.9008,3.8549,3.8392,3.8128,3.7792,3.7631,3.7469,3.7469,3.7542,3.7414,3.7267,3.6865,3.6416,3.6058,3.5859,3.5526,3.5151,3.5174,3.491,3.359,3.3534,3.3073,3.1587,3.0901,3.0538,2.994,2.9651,2.9613,2.9598,2.8367,2.7421,2.7423,2.6254,2.5086,2.4509,2.3029,2.149,4.3844,4.3955,4.4177,4.4304,4.4339,4.4226,4.3762,4.3064,4.209,4.1657,4.165,4.0952,4.0802,4.0993,4.0045,3.9754,4.0002,3.9712,3.9622,3.969,3.9917,4.0015,4.0081,4.0297,4.0414,4.0446,4.045,4.0503,4.0611,4.0615,4.1008,4.1713,4.1752,4.1951,4.2482,4.2608,4.2555,4.2316,3.9488,3.8239,3.8695,3.8633,3.8809,3.9305,4.0796,4.1613,4.1644,4.1908,4.1933,4.1719,4.1736,4.2082,4.2743,4.3106,4.3732,4.4606,4.4939,4.5121,4.5092,4.5064,4.4939,4.4679,4.4057,4.2956,4.1291,4.1113,4.1113,4.1113,4.1187,4.1113,4.1113,4.1168,4.1205,4.115,4.1003,4.0946,4.093,4.0781,4.062,4.0502,4.004,3.9587,3.9418,3.8925,3.8547,3.8504,3.85,3.8338,3.7861,3.7396,3.7097,3.6923,3.6583,3.6274,3.6084,3.5788,3.5526,3.525,3.4701,3.4139,3.3117,3.2383,3.1759,3.1049,3.051,3.0377,3.0686,2.8923,2.79,2.7909,2.6658,2.5355,2.5141,2.4619,2.3804,4.4318,4.435,4.4527,4.4695,4.4884,4.5074,4.4911,4.4531,4.4168,4.3378,4.2362,4.1982,4.1997,4.2229,4.1724,4.1581,4.172,4.1571,4.1523,4.1552,4.1735,4.1854,4.195,4.2125,4.2256,4.2298,4.232,4.2375,4.2451,4.2453,4.2692,4.3086,4.3049,4.3156,4.3389,4.3255,4.3189,4.3127,4.157,4.0899,4.1189,4.096,4.1204,4.1917,4.2506,4.2995,4.3435,4.3625,4.3738,4.3719,4.3923,4.4168,4.4531,4.471,4.4998,4.5352,4.5513,4.5594,4.5594,4.5594,4.539,4.4884,4.4688,4.4186,4.3094,4.2638,4.2396,4.2396,4.2396,4.2396,4.2396,4.2415,4.2396,4.2396,4.2029,4.1754,4.1699,4.1315,4.1113,4.1077,4.0781,4.0561,4.0561,4.0215,3.9994,3.9992,3.9698,3.9108,3.8476,3.817,3.7826,3.7322,3.6999,3.6862,3.6823,3.6664,3.6481,3.6481,3.5952,3.5252,3.4525,3.3608,3.2669,3.1918,3.1241,3.0952,3.1173,2.9964,2.9004,2.841,2.7642,2.6556,2.5889,2.5411,2.4382,4.4707,4.4707,4.4812,4.4977,4.5232,4.5495,4.5594,4.5594,4.5566,4.4727,4.3359,4.3082,4.3139,4.3346,4.3181,4.3091,4.3119,4.3119,4.318,4.3241,4.328,4.3354,4.3454,4.3455,4.3534,4.3627,4.363,4.3643,4.3711,4.3711,4.3789,4.3984,4.413,4.4192,4.4179,4.3977,4.3826,4.3789,4.3743,4.3596,4.3374,4.3129,4.3387,4.4121,4.3938,4.4147,4.4811,4.5085,4.5211,4.5222,4.5467,4.5594,4.5594,4.5594,4.5594,4.5594,4.5594,4.5594,4.5594,4.5594,4.5371,4.4865,4.5007,4.4977,4.4695,4.4125,4.3761,4.3742,4.3701,4.3721,4.3682,4.3721,4.3742,4.3724,4.3225,4.2884,4.2762,4.2247,4.1912,4.1878,4.1652,4.1493,4.1461,4.1252,4.104,4.0912,4.0543,3.9918,3.9386,3.9258,3.8844,3.806,3.7576,3.7377,3.7359,3.721,3.7154,3.7209,3.6827,3.6207,3.5464,3.4456,3.3514,3.2764,3.2006,3.1612,3.1454,3.0889,3.0223,2.9677,2.8768,2.7692,2.6553,2.5962,2.4799,4.5052,4.5115,4.5362,4.5541,4.5549,4.5594,4.5612,4.5612,4.5594,4.5528,4.5163,4.4483,4.4154,4.4085,4.3467,4.3231,4.3279,4.3208,4.3297,4.3451,4.3512,4.3582,4.3669,4.3682,4.3672,4.375,4.3789,4.3848,4.3848,4.3808,4.4141,4.4883,4.5664,4.593,4.5841,4.5785,4.5702,4.5557,4.5551,4.5112,4.4237,4.4165,4.4579,4.5405,4.5407,4.5417,4.5476,4.5531,4.554,4.5559,4.5577,4.5594,4.5594,4.5594,4.5594,4.5594,4.5594,4.5594,4.5594,4.5594,4.5568,4.5485,4.5262,4.5107,4.5033,4.4726,4.4501,4.4487,4.4487,4.4433,4.4506,4.446,4.4419,4.4392,4.4307,4.4388,4.4259,4.4331,4.4275,4.4275,4.3212,4.2646,4.2579,4.1946,4.1287,4.1333,4.119,4.0953,4.0717,4.0616,4.0398,3.9597,3.8693,3.7967,3.7826,3.7451,3.7396,3.7284,3.719,3.6816,3.6125,3.5329,3.4429,3.3631,3.2914,3.2423,3.2159,3.1801,3.1273,3.0738,2.9806,2.8576,2.748,2.6823,2.568,4.54,4.5429,4.5637,4.5736,4.5783,4.5789,4.5789,4.5769,4.5789,4.5789,4.575,4.5401,4.5209,4.5158,4.4873,4.4763,4.4797,4.4797,4.4868,4.4997,4.5048,4.5111,4.5209,4.5214,4.5234,4.5234,4.5234,4.5234,4.5234,4.5234,4.543,4.5742,4.6152,4.6269,4.6222,4.6144,4.6061,4.599,4.5856,4.5588,4.522,4.5123,4.5229,4.5556,4.5594,4.5594,4.5594,4.5594,4.5594,4.5594,4.5594,4.5594,4.5594,4.5594,4.5594,4.5594,4.5594,4.5594,4.5594,4.5594,4.5594,4.5594,4.5485,4.5381,4.54,4.5263,4.5182,4.515,4.483,4.4593,4.4606,4.4593,4.4593,4.4593,4.4593,4.4593,4.4593,4.4593,4.4593,4.4542,4.4173,4.3852,4.382,4.3484,4.2973,4.2538,4.2259,4.1967,4.1545,4.1251,4.0965,4.0655,4.0105,3.9402,3.8642,3.8234,3.8085,3.8016,3.7808,3.7416,3.7112,3.6185,3.5261,3.4499,3.3735,3.3044,3.2521,3.2323,3.1949,3.1412,3.0242,2.8906,2.8443,2.7859,2.6728,4.5676,4.5679,4.5783,4.5855,4.5899,4.5899,4.5899,4.5899,4.5899,4.5899,4.5903,4.5932,4.5923,4.591,4.5881,4.5916,4.5963,4.5963,4.6033,4.6145,4.6168,4.6201,4.6289,4.6289,4.6289,4.6289,4.625,4.6269,4.6289,4.6289,4.6289,4.6289,4.6289,4.6289,4.6289,4.62,4.6124,4.6082,4.5942,4.5872,4.5801,4.5722,4.5665,4.5676,4.5668,4.5653,4.5688,4.5688,4.5676,4.5676,4.5676,4.5676,4.5669,4.5688,4.5673,4.5657,4.5668,4.5635,4.5603,4.5594,4.5594,4.5594,4.5627,4.5648,4.5657,4.5677,4.5688,4.5654,4.5256,4.4968,4.4896,4.4884,4.4884,4.4884,4.4865,4.4884,4.4896,4.4865,4.4908,4.4884,4.4768,4.4682,4.46,4.4491,4.422,4.3717,4.3426,4.3142,4.2567,4.2277,4.2063,4.1755,4.1715,4.0942,3.9445,3.9012,3.8982,3.8661,3.83,3.8115,3.8061,3.7106,3.6396,3.5802,3.4778,3.403,3.362,3.3237,3.2588,3.1744,3.0656,2.958,2.9194,2.8525,2.7691,4.5885,4.5881,4.589,4.5903,4.5903,4.5912,4.5907,4.5924,4.5912,4.5907,4.5932,4.6039,4.6104,4.6094,4.5978,4.5978,4.608,4.6104,4.615,4.6289,4.6269,4.6289,4.6289,4.6289,4.6289,4.6289,4.6289,4.6289,4.6289,4.6289,4.6289,4.6289,4.6289,4.6289,4.6289,4.6289,4.6224,4.6117,4.6077,4.6005,4.5903,4.59,4.585,4.5796,4.579,4.582,4.5877,4.5881,4.5896,4.5881,4.5867,4.5872,4.5876,4.5876,4.5855,4.579,4.579,4.5733,4.5635,4.5618,4.561,4.5618,4.5725,4.579,4.5796,4.5822,4.5862,4.5872,4.5802,4.5686,4.5533,4.5455,4.5485,4.5466,4.5513,4.5504,4.5513,4.5448,4.5531,4.5476,4.5243,4.4988,4.4682,4.4593,4.467,4.4556,4.4511,4.4378,4.4246,4.4258,4.3871,4.3331,4.2985,4.2447,4.0409,4.0007,3.9632,3.9245,3.9084,3.8704,3.8398,3.8056,3.7619,3.7051,3.5985,3.5235,3.4842,3.4224,3.3433,3.2566,3.165,3.0767,3.031,2.8826,2.8071,4.594,4.6033,4.6014,4.6077,4.6149,4.615,4.6168,4.6149,4.6149,4.615,4.6171,4.6211,4.6225,4.6224,4.6175,4.6177,4.623,4.6225,4.6248,4.6289,4.6289,4.6289,4.6289,4.6289,4.6289,4.6289,4.6289,4.6289,4.6289,4.6289,4.6289,4.6289,4.6289,4.6289,4.6289,4.6289,4.6269,4.6211,4.6167,4.6058,4.6092,4.5955,4.5931,4.5979,4.5915,4.5872,4.5899,4.5899,4.5899,4.5899,4.5899,4.5899,4.5899,4.5899,4.5905,4.5857,4.5871,4.585,4.5799,4.5794,4.5794,4.5794,4.5839,4.5871,4.5876,4.5876,4.5899,4.5903,4.5903,4.5842,4.5811,4.5757,4.5685,4.5601,4.5594,4.5612,4.5594,4.5594,4.5594,4.5577,4.5466,4.5362,4.5253,4.5243,4.5243,4.5222,4.5044,4.4943,4.4865,4.4745,4.448,4.4247,4.4083,4.3679,4.2409,4.1598,4.1092,4.0493,4.0081,3.9724,3.9399,3.8897,3.8424,3.8003,3.7067,3.624,3.577,3.476,3.4012,3.3369,3.2451,3.178,3.1589,3.0115,2.9368,4.608,4.617,4.6171,4.6222,4.6289,4.6289,4.6289,4.6289,4.6289,4.6289,4.6289,4.6289,4.6289,4.6289,4.6289,4.6289,4.6289,4.6289,4.6289,4.6289,4.6289,4.6289,4.6289,4.6289,4.6289,4.6289,4.6289,4.6289,4.6289,4.6289,4.6289,4.6289,4.6289,4.6289,4.6289,4.6289,4.6406,4.6621,4.6632,4.6698,4.693,4.6899,4.6916,4.6983,4.6918,4.6563,4.6072,4.6033,4.6033,4.6014,4.6033,4.6033,4.6033,4.6033,4.6001,4.5978,4.5951,4.5936,4.5903,4.5899,4.5899,4.5903,4.5936,4.5971,4.5971,4.5998,4.6033,4.6033,4.6033,4.6027,4.5967,4.5924,4.585,4.5722,4.5679,4.5688,4.5653,4.5645,4.5651,4.5612,4.5586,4.5586,4.5594,4.5586,4.5577,4.5594,4.539,4.5263,4.5222,4.5096,4.4931,4.4931,4.4909,4.4684,4.4068,4.3555,4.242,4.1711,4.0939,4.062,4.0212,3.9695,3.9208,3.882,3.8177,3.7329,3.64,3.5379,3.465,3.4086,3.3209,3.2404,3.1992,3.1414,3.0586,4.6289,4.6289,4.6289,4.6289,4.6289,4.6289,4.6289,4.6289,4.6289,4.6289,4.6289,4.6289,4.6289,4.6289,4.6289,4.6289,4.6289,4.6289,4.6289,4.6289,4.6289,4.6289,4.6289,4.6289,4.6289,4.6289,4.6289,4.6289,4.6289,4.6387,4.6426,4.6367,4.6543,4.6641,4.6406,4.6601,4.6855,4.7441,4.7598,4.7969,4.875,4.8652,4.8613,4.8691,4.8672,4.7969,4.6484,4.6426,4.6504,4.6465,4.6445,4.6348,4.6504,4.6504,4.6362,4.6333,4.6208,4.6098,4.601,4.5967,4.5959,4.5947,4.6036,4.611,4.6115,4.62,4.6269,4.625,4.625,4.6226,4.6119,4.6104,4.6047,4.5916,4.5857,4.5845,4.5802,4.5803,4.5761,4.5657,4.5651,4.5593,4.5593,4.5632,4.5648,4.5627,4.5593,4.5558,4.5522,4.5457,4.554,4.5531,4.5429,4.5218,4.537,4.5405,4.4045,4.2826,4.1984,4.1347,4.0894,4.0375,3.994,3.9507,3.8876,3.8067,3.7253,3.6275,3.5467,3.4805,3.3885,3.3194,3.2717,3.2219,3.1415,4.6289,4.6289,4.6289,4.6289,4.6289,4.6289,4.6289,4.6308,4.6289,4.6289,4.6289,4.6289,4.6289,4.6308,4.6289,4.6308,4.6289,4.6289,4.6308,4.6348,4.6308,4.6289,4.6289,4.6308,4.6289,4.6289,4.6289,4.6308,4.6445,4.6933,4.7207,4.7285,4.7793,4.8066,4.8008,4.8105,4.8281,4.8437,4.8496,4.8652,4.8887,4.8906,4.8906,4.8887,4.8887,4.8594,4.8125,4.8086,4.8086,4.8047,4.8086,4.8086,4.8066,4.8086,4.8066,4.7966,4.7437,4.7104,4.7012,4.6523,4.625,4.6211,4.625,4.6245,4.6246,4.6308,4.6308,4.6308,4.6289,4.6269,4.6247,4.6245,4.6145,4.592,4.5899,4.5899,4.5891,4.5876,4.5841,4.5809,4.5811,4.5817,4.5792,4.5805,4.5764,4.5728,4.5733,4.5723,4.5627,4.5627,4.5594,4.5594,4.5594,4.5616,4.5637,4.565,4.4968,4.4011,4.3244,4.2371,4.1827,4.1053,4.0625,4.0072,3.9461,3.8802,3.8004,3.731,3.6557,3.5847,3.5176,3.4503,3.3831,3.3104,3.2376,4.6484,4.6738,4.6426,4.6504,4.6758,4.6777,4.6777,4.6777,4.6777,4.6797,4.6797,4.6797,4.6777,4.6855,4.7109,4.7266,4.7285,4.7266,4.7266,4.709,4.6484,4.6308,4.6367,4.666,4.6777,4.6875,4.7109,4.7266,4.7305,4.7793,4.8086,4.8203,4.8652,4.8867,4.8887,4.8906,4.9004,4.9316,4.9394,4.9531,4.9746,4.9824,4.9824,4.9824,4.9824,4.9824,4.9844,4.9824,4.9531,4.9043,4.8887,4.8887,4.8887,4.8867,4.8887,4.8789,4.8437,4.8066,4.8027,4.7617,4.7266,4.7266,4.7266,4.709,4.6894,4.6777,4.6699,4.6348,4.6289,4.6289,4.6289,4.6289,4.623,4.6058,4.6069,4.603,4.6008,4.5924,4.5899,4.5885,4.589,4.5899,4.5899,4.5899,4.5872,4.5847,4.583,4.5838,4.5743,4.5703,4.5701,4.5701,4.5731,4.5731,4.5717,4.571,4.571,4.5159,4.4572,4.3744,4.3031,4.1922,4.1176,4.056,3.9939,3.9512,3.8801,3.8497,3.7921,3.7214,3.6358,3.5583,3.4811,3.4169,3.3448,4.6894,4.7519,4.6797,4.6973,4.7598,4.7637,4.7617,4.7617,4.7617,4.7637,4.7617,4.7598,4.7617,4.7812,4.8281,4.8555,4.8808,4.8633,4.8555,4.8223,4.7363,4.668,4.6816,4.7383,4.7656,4.7793,4.8379,4.8711,4.8613,4.8848,4.8965,4.8984,4.9141,4.9101,4.9277,4.9101,4.959,5.0176,5.0273,5.0605,5.1172,5.1269,5.1269,5.125,5.1211,5.1191,5.1152,5.1113,5.0527,4.9297,4.9238,4.9297,4.9141,4.9043,4.9199,4.9238,4.9062,4.8984,4.8965,4.8711,4.8652,4.8613,4.8574,4.8574,4.7812,4.7656,4.7441,4.6816,4.6582,4.6465,4.6465,4.6328,4.6308,4.6289,4.625,4.6211,4.6117,4.6001,4.5962,4.5967,4.5924,4.5924,4.5971,4.5967,4.5955,4.5931,4.5927,4.5914,4.5881,4.5852,4.5881,4.5872,4.5827,4.5831,4.5792,4.5792,4.5792,4.5626,4.5215,4.465,4.3871,4.2766,4.1739,4.1107,4.0573,4.0123,3.9731,3.9384,3.8876,3.807,3.7259,3.6501,3.5771,3.5095,3.4463,4.7773,4.8496,4.8209,4.8195,4.8385,4.8317,4.8268,4.8268,4.8268,4.8279,4.8268,4.8265,4.8279,4.8288,4.8525,4.8615,4.8727,4.8684,4.8619,4.8571,4.8335,4.8154,4.8203,4.8418,4.8555,4.8613,4.8887,4.8887,4.8965,4.959,4.9844,4.9883,5.0351,5.0683,5.0742,5.0644,5.082,5.1055,5.1074,5.1133,5.1308,5.1387,5.1387,5.1387,5.1387,5.1387,5.1387,5.1387,5.1269,5.084,5.0762,5.0762,5.0644,5.0644,5.0586,5.0527,5.0156,4.9863,4.9746,4.9316,4.8965,4.8887,4.9062,4.8808,4.8613,4.8574,4.8437,4.8086,4.7695,4.7246,4.7148,4.668,4.6367,4.6289,4.6289,4.6289,4.623,4.6223,4.6199,4.6199,4.6191,4.6172,4.6172,4.6172,4.6133,4.6075,4.6039,4.603,4.5981,4.594,4.5955,4.5916,4.5885,4.589,4.589,4.589,4.5885,4.5852,4.5585,4.5265,4.4434,4.3455,4.2518,4.172,4.1335,4.0912,4.0527,4.0165,3.9503,3.8849,3.8487,3.7838,3.6724,3.5893,3.5372,4.8478,4.9239,4.8785,4.8824,4.9149,4.9084,4.9051,4.9051,4.9051,4.9051,4.9051,4.9032,4.9051,4.9071,4.9426,4.9605,4.9581,4.9601,4.9605,4.9635,4.9699,4.9413,4.9121,4.9199,4.9453,4.9512,4.9785,4.9961,5.0058,5.0488,5.0683,5.0762,5.1152,5.1387,5.1308,5.1387,5.1387,5.1387,5.1387,5.1387,5.1387,5.1387,5.1387,5.1387,5.1387,5.1387,5.1387,5.1387,5.1387,5.1387,5.1387,5.1387,5.1387,5.1387,5.1387,5.1367,5.0937,5.0723,5.0644,5.0215,4.998,4.998,4.9961,4.9766,4.9551,4.9433,4.9394,4.8828,4.8398,4.8008,4.7519,4.6816,4.6367,4.6289,4.6289,4.6308,4.6308,4.6289,4.6289,4.6289,4.6289,4.6289,4.6289,4.6289,4.625,4.6202,4.6177,4.6147,4.611,4.6074,4.6035,4.6016,4.6035,4.6055,4.6074,4.6074,4.6055,4.6035,4.5926,4.5621,4.4977,4.4111,4.3385,4.2652,4.2179,4.1681,4.12,4.0746,4.0212,3.9754,3.9592,3.9023,3.7896,3.6982,3.642,4.9134,4.9873,4.9094,4.9186,4.9853,4.9876,4.9856,4.9879,4.9862,4.9868,4.9862,4.9898,4.9864,4.9948,5.0421,5.0934,5.0934,5.075,5.0862,5.0828,5.0773,5.0334,4.9531,4.998,5.0234,5.0351,5.1055,5.1172,5.1094,5.125,5.1328,5.125,5.1308,5.1348,5.1328,5.1348,5.1348,5.1348,5.1328,5.1328,5.1328,5.1328,5.1328,5.1328,5.1348,5.1328,5.1328,5.1348,5.1348,5.1367,5.1386,5.1387,5.1387,5.1387,5.1387,5.1387,5.1328,5.1289,5.1348,5.1211,5.1269,5.1191,5.123,5.1133,5.0488,5.0312,5.0078,4.9531,4.9121,4.8652,4.7949,4.707,4.6855,4.6836,4.668,4.6445,4.6406,4.6367,4.6289,4.6289,4.6289,4.6289,4.6289,4.6289,4.6289,4.625,4.625,4.623,4.6211,4.6191,4.6191,4.6211,4.623,4.6269,4.6269,4.6269,4.625,4.623,4.6152,4.5906,4.5485,4.4772,4.4209,4.3647,4.3192,4.2479,4.1681,4.1219,4.082,4.0342,3.9977,3.9611,3.9089,3.8331,3.7696,5.0033,5.0787,5.0513,5.05,5.0634,5.0549,5.0501,5.0482,5.0482,5.045,5.0501,5.0482,5.0471,5.049,5.069,5.0782,5.0805,5.0814,5.0847,5.0926,5.0945,5.0897,5.0579,5.0813,5.0898,5.0974,5.1123,5.124,5.124,5.1256,5.1216,5.1186,5.1177,5.1152,5.1179,5.1193,5.1148,5.1148,5.1156,5.1202,5.1245,5.1264,5.1284,5.1319,5.1319,5.1253,5.1168,5.1168,5.1168,5.12,5.1387,5.1562,5.1406,5.1387,5.1367,5.1367,5.1387,5.1387,5.1387,5.1387,5.1387,5.1367,5.1367,5.1328,5.1211,5.1094,5.1016,5.0742,5.0312,4.9551,4.873,4.8457,4.8183,4.8008,4.7656,4.7324,4.7226,4.6699,4.6348,4.6289,4.6289,4.6289,4.6289,4.6289,4.6289,4.6289,4.6289,4.6289,4.6289,4.6289,4.6289,4.6289,4.6289,4.6289,4.6289,4.6289,4.6289,4.6289,4.625,4.6211,4.5781,4.5552,4.5001,4.4602,4.4221,4.3406,4.2546,4.1905,4.1538,4.0954,4.0377,4.005,3.9692,3.9222,3.8757,5.0516,5.0896,5.0827,5.0797,5.0799,5.073,5.0683,5.0683,5.0683,5.0683,5.0683,5.0683,5.0683,5.0683,5.0683,5.0693,5.0683,5.0693,5.074,5.0789,5.0805,5.0844,5.1029,5.1261,5.1392,5.1215,5.1144,5.1147,5.1144,5.1199,5.1141,5.1099,5.1108,5.1108,5.1094,5.1123,5.1103,5.1103,5.1094,5.1245,5.1595,5.1673,5.1959,5.2193,5.2271,5.2271,5.232,5.2315,5.2315,5.2305,5.2343,5.2023,5.1381,5.1264,5.1267,5.1264,5.1264,5.1264,5.1269,5.1245,5.125,5.1249,5.1286,5.1308,5.1322,5.1345,5.1387,5.1328,5.0976,5.043,4.9609,4.9023,4.8965,4.8828,4.8496,4.8223,4.8008,4.7109,4.6289,4.6289,4.6289,4.6289,4.6289,4.6406,4.6308,4.6308,4.6289,4.6289,4.6289,4.6289,4.6289,4.6289,4.6289,4.6289,4.6289,4.6289,4.6289,4.6289,4.6289,4.6269,4.6094,4.5976,4.5858,4.5395,4.4905,4.4416,4.3602,4.295,4.226,4.1667,4.1138,4.0677,4.026,3.9952,3.9461,5.0683,5.0683,5.0683,5.0683,5.0683,5.0693,5.0683,5.0683,5.0683,5.0683,5.0683,5.0683,5.0683,5.0683,5.0683,5.0731,5.0894,5.0952,5.1087,5.1357,5.1385,5.1404,5.151,5.1836,5.1981,5.1441,5.1611,5.1622,5.1603,5.1461,5.1744,5.1505,5.148,5.1651,5.1507,5.1428,5.1586,5.1632,5.1671,5.1852,5.2317,5.244,5.2764,5.3126,5.3262,5.3256,5.3236,5.3282,5.3398,5.352,5.3539,5.2782,5.1866,5.1298,5.1167,5.1162,5.1126,5.1135,5.1139,5.1102,5.1117,5.1099,5.116,5.1183,5.1218,5.126,5.1308,5.1328,5.1152,5.0976,5.0371,4.9863,4.9433,4.9277,4.9199,4.9038,4.8746,4.7614,4.6992,4.6875,4.709,4.7168,4.6836,4.6719,4.6504,4.6328,4.6328,4.6289,4.6289,4.6289,4.6289,4.6289,4.6289,4.6289,4.6289,4.6289,4.6289,4.6289,4.6289,4.6289,4.6289,4.6211,4.6074,4.5918,4.5469,4.4986,4.4513,4.3894,4.3188,4.2496,4.1867,4.136,4.0997,4.0684,4.0137,5.0683,5.0683,5.0683,5.0683,5.0683,5.0683,5.0683,5.0683,5.0683,5.0683,5.0683,5.0702,5.076,5.0741,5.0731,5.1068,5.1625,5.1722,5.2029,5.2491,5.2568,5.2568,5.2568,5.2799,5.2907,5.2925,5.2945,5.2998,5.2862,5.3017,5.2686,5.2768,5.2731,5.2711,5.2691,5.281,5.2642,5.2571,5.2601,5.2786,5.3037,5.3202,5.3259,5.3549,5.3597,5.3549,5.3445,5.334,5.3263,5.3263,5.3263,5.3147,5.2792,5.2395,5.1878,5.1306,5.1164,5.1173,5.1081,5.1069,5.1084,5.1099,5.1108,5.1122,5.1131,5.1152,5.119,5.116,5.1156,5.1067,5.0977,5.0594,5.0673,5.0513,5.0077,4.9687,4.9503,4.8959,4.8356,4.8398,4.8359,4.8105,4.7676,4.7305,4.709,4.6836,4.6621,4.6445,4.6289,4.6289,4.6289,4.6289,4.6289,4.6289,4.6289,4.6289,4.6289,4.6289,4.6289,4.6289,4.6289,4.6289,4.6191,4.6055,4.5896,4.556,4.5102,4.4687,4.4114,4.3428,4.2754,4.2114,4.164,4.1222,4.0833,5.0683,5.0683,5.0683,5.0683,5.0683,5.0683,5.0683,5.0683,5.0683,5.0683,5.0818,5.1125,5.1318,5.1433,5.1837,5.2241,5.2481,5.2577,5.2827,5.3183,5.3203,5.3203,5.3356,5.3626,5.3837,5.4013,5.4294,5.4022,5.3366,5.325,5.334,5.3195,5.3203,5.3203,5.3183,5.3127,5.3241,5.3241,5.326,5.3472,5.3895,5.4203,5.4434,5.4453,5.4453,5.4491,5.4472,5.4491,5.4521,5.4521,5.4502,5.426,5.3899,5.3501,5.2849,5.183,5.152,5.1307,5.1017,5.0882,5.0867,5.0901,5.0978,5.0991,5.1022,5.1047,5.1074,5.1084,5.1094,5.1094,5.1064,5.1084,5.1094,5.1055,5.0695,5.0471,5.0354,5.0088,4.9946,4.9744,4.918,4.873,4.8457,4.8105,4.7773,4.7422,4.7031,4.6738,4.6465,4.6426,4.6484,4.6289,4.6289,4.6289,4.6289,4.6289,4.6289,4.6289,4.6289,4.6289,4.6289,4.6289,4.6289,4.6211,4.6061,4.5918,4.5879,4.5547,4.4941,4.4401,4.3925,4.3325,4.2404,4.1754,4.1427,5.0683,5.0683,5.0683,5.0798,5.0943,5.0933,5.1087,5.1164,5.126,5.1298,5.1279,5.1856,5.2154,5.2327,5.2799,5.3241,5.3433,5.3472,5.3606,5.3857,5.3876,5.378,5.3933,5.428,5.4722,5.4829,5.5166,5.5011,5.4176,5.3926,5.379,5.3895,5.376,5.3703,5.3818,5.3972,5.3722,5.3703,5.3722,5.4126,5.4741,5.5318,5.5684,5.5684,5.5684,5.5607,5.5491,5.5472,5.5491,5.5511,5.5511,5.5357,5.4857,5.4741,5.401,5.2741,5.2308,5.1798,5.1491,5.1318,5.1404,5.1163,5.1095,5.1037,5.0871,5.0932,5.1017,5.1027,5.101,5.0991,5.0972,5.101,5.099,5.0984,5.0997,5.0996,5.0887,5.0775,5.0725,5.0365,4.9762,4.9414,4.916,4.9062,4.8769,4.8242,4.7851,4.7383,4.7109,4.6855,4.6758,4.6426,4.6289,4.6289,4.6289,4.6289,4.6289,4.6289,4.6289,4.6289,4.6289,4.6289,4.6289,4.6269,4.625,4.6152,4.6269,4.6289,4.5723,4.5273,4.5077,4.4551,4.3633,4.2793,4.2273,5.0683,5.0683,5.0702,5.1087,5.1712,5.175,5.2192,5.2779,5.276,5.2914,5.2702,5.2991,5.3068,5.3203,5.3241,5.3722,5.4145,5.4376,5.4607,5.4991,5.5107,5.5107,5.5299,5.5453,5.5415,5.5395,5.5588,5.5626,5.5164,5.5145,5.5261,5.5203,5.5107,5.5318,5.5049,5.5011,5.5415,5.5338,5.5318,5.5376,5.5472,5.5607,5.5684,5.5684,5.5684,5.5684,5.5684,5.5684,5.5684,5.5684,5.5684,5.5645,5.5568,5.5568,5.5107,5.426,5.3549,5.301,5.2779,5.2606,5.2356,5.1895,5.1799,5.1424,5.1114,5.0901,5.0926,5.0758,5.0766,5.0782,5.0808,5.0756,5.0757,5.0773,5.0797,5.0799,5.0771,5.0894,5.0918,5.0921,5.0296,5.013,4.9941,4.9883,4.9766,4.918,4.8633,4.8183,4.7793,4.7578,4.7129,4.6797,4.6582,4.6582,4.6289,4.6289,4.6328,4.6308,4.6289,4.6289,4.6289,4.6289,4.6289,4.6289,4.6289,4.6289,4.6289,4.6269,4.623,4.5996,4.5586,4.5254,4.4883,4.4062,4.3183,5.1375,5.1395,5.1395,5.1856,5.2587,5.2645,5.2837,5.3145,5.3203,5.3203,5.3318,5.378,5.4164,5.4453,5.4626,5.4818,5.5126,5.5145,5.5318,5.5607,5.5684,5.5684,5.5645,5.5684,5.5684,5.5684,5.5684,5.5684,5.5684,5.5684,5.5684,5.5684,5.5684,5.5607,5.5684,5.5684,5.5665,5.5645,5.5665,5.5684,5.5684,5.5684,5.5684,5.5684,5.5684,5.5684,5.5684,5.5684,5.5684,5.5684,5.5684,5.5684,5.5684,5.5684,5.5491,5.5261,5.4857,5.4184,5.3356,5.328,5.3029,5.2799,5.2568,5.2289,5.1625,5.1375,5.1144,5.0731,5.0693,5.0702,5.0721,5.0683,5.0683,5.0683,5.0683,5.0683,5.0702,5.073,5.0808,5.0844,5.0889,5.0633,5.048,5.0508,5.0332,4.9883,4.9453,4.9121,4.8711,4.8418,4.7871,4.7246,4.707,4.6953,4.6543,4.6308,4.6367,4.6367,4.6289,4.6289,4.6289,4.6289,4.6289,4.6289,4.6289,4.6289,4.6289,4.6289,4.625,4.6133,4.5996,4.5644,4.5312,4.4902,4.4043,5.2327,5.2529,5.2308,5.2741,5.351,5.353,5.3683,5.3857,5.3895,5.3857,5.3972,5.453,5.5145,5.5549,5.5588,5.553,5.5645,5.5684,5.5684,5.5684,5.5684,5.5684,5.5684,5.5684,5.5684,5.5684,5.5684,5.5684,5.5684,5.5684,5.5684,5.5684,5.5684,5.5684,5.5684,5.5684,5.5684,5.5684,5.5684,5.5684,5.5684,5.5684,5.5684,5.5684,5.5684,5.5684,5.5684,5.5684,5.5684,5.5684,5.5684,5.5684,5.5684,5.5684,5.5684,5.5568,5.5434,5.5068,5.4357,5.403,5.3741,5.353,5.3222,5.2827,5.2404,5.2192,5.2077,5.1548,5.1164,5.1106,5.0952,5.0875,5.0683,5.0683,5.0683,5.0683,5.0693,5.0712,5.073,5.0766,5.0814,5.0856,5.0804,5.0977,5.084,5.0527,5.0234,4.997,4.957,4.9141,4.8555,4.7891,4.7871,4.7754,4.7422,4.6992,4.6836,4.6484,4.6426,4.6308,4.6308,4.6308,4.6289,4.6289,4.6289,4.6289,4.6289,4.6289,4.6289,4.6211,4.6094,4.5918,4.5625,4.5293,4.4922,5.3587,5.426,5.3472,5.3645,5.4395,5.4414,5.4818,5.528,5.5395,5.5357,5.528,5.5549,5.5549,5.5665,5.5684,5.5684,5.5684,5.5684,5.5684,5.5684,5.5684,5.5684,5.5684,5.5684,5.5684,5.5684,5.5684,5.5684,5.5684,5.5684,5.5684,5.5684,5.5684,5.5684,5.5684,5.5684,5.5684,5.5684,5.5684,5.5684,5.5684,5.5684,5.5684,5.5684,5.5684,5.5684,5.5684,5.5684,5.5684,5.5684,5.5684,5.5684,5.5684,5.5684,5.5684,5.5684,5.5684,5.5453,5.5164,5.5068,5.5011,5.4434,5.3876,5.3453,5.3145,5.3106,5.301,5.2741,5.2125,5.1875,5.1606,5.1279,5.1164,5.0933,5.0971,5.0837,5.0798,5.0693,5.0702,5.0693,5.074,5.0791,5.0811,5.0907,5.1059,5.0757,5.0738,5.0491,5.004,4.959,4.9121,4.8711,4.8769,4.8691,4.8594,4.8203,4.7578,4.709,4.6855,4.6562,4.6328,4.6308,4.6308,4.6289,4.6289,4.6289,4.6289,4.6289,4.6289,4.6289,4.6211,4.6074,4.5918,4.5644,4.5391,5.4472,5.5184,5.4857,5.4934,5.5241,5.5241,5.5415,5.5665,5.5684,5.5684,5.5684,5.5684,5.5684,5.5684,5.5684,5.5684,5.5684,5.5684,5.5684,5.5684,5.5684,5.5684,5.5684,5.5684,5.5684,5.5684,5.5684,5.5684,5.5684,5.5684,5.5684,5.5684,5.5684,5.5684,5.5684,5.5684,5.5684,5.5684,5.5684,5.5684,5.5684,5.5684,5.5684,5.5684,5.5684,5.5684,5.5684,5.5684,5.5684,5.5684,5.5684,5.5684,5.5684,5.5684,5.5684,5.5684,5.5684,5.5684,5.5684,5.5684,5.553,5.5357,5.4895,5.4511,5.4068,5.401,5.3645,5.328,5.2972,5.2712,5.2626,5.2414,5.2202,5.1702,5.1375,5.1221,5.1106,5.1087,5.1048,5.1212,5.0923,5.074,5.0739,5.0773,5.0932,5.1019,5.1035,5.0972,5.0476,5.0165,4.9753,4.9484,4.9521,4.9292,4.916,4.8691,4.8203,4.7793,4.7383,4.6973,4.6641,4.6328,4.6308,4.6308,4.6289,4.6289,4.6289,4.6289,4.6289,4.6289,4.6289,4.6269,4.6113,4.5957,4.5781,5.5184,5.5684,5.5684,5.5684,5.5684,5.5684,5.5684,5.5684,5.5684,5.5684,5.5684,5.5684,5.5684,5.5684,5.5684,5.5684,5.5684,5.5684,5.5684,5.5684,5.5684,5.5684,5.5684,5.5684,5.5684,5.5684,5.5684,5.5684,5.5684,5.5684,5.5684,5.5684,5.5684,5.5684,5.5684,5.5684,5.5684,5.5684,5.5684,5.5684,5.5684,5.5684,5.5684,5.5684,5.5684,5.5684,5.5684,5.5684,5.5684,5.5684,5.5684,5.5684,5.5684,5.5684,5.5684,5.5684,5.5684,5.5684,5.5684,5.5684,5.5684,5.5568,5.5588,5.5261,5.503,5.4857,5.4587,5.4184,5.3837,5.3587,5.3549,5.3241,5.2876,5.2356,5.2318,5.2183,5.1991,5.1895,5.1798,5.176,5.1443,5.1154,5.1039,5.1058,5.0887,5.0959,5.0882,5.0884,5.077,5.0558,5.0542,5.0315,5.0248,4.9951,4.959,4.9258,4.8965,4.873,4.8242,4.7519,4.7109,4.6793,4.6426,4.6308,4.6289,4.6289,4.6289,4.6289,4.6289,4.6289,4.6289,4.6269,4.6269,4.6133,4.6172,5.5645,5.5684,5.5684,5.5684,5.5684,5.5684,5.5684,5.5684,5.5684,5.5684,5.5684,5.5684,5.5684,5.5684,5.5684,5.5684,5.5684,5.5684,5.5684,5.5684,5.5684,5.5684,5.5684,5.5684,5.5684,5.5684,5.5684,5.5684,5.5684,5.5684,5.5684,5.5684,5.5684,5.5684,5.5684,5.5684,5.5684,5.5684,5.5684,5.5684,5.5684,5.5684,5.5684,5.5684,5.5684,5.5684,5.5684,5.5684,5.5684,5.5684,5.5684,5.5684,5.5684,5.5684,5.5684,5.5684,5.5684,5.5684,5.5684,5.5684,5.5684,5.5684,5.5684,5.5588,5.5607,5.5588,5.5491,5.4991,5.478,5.4511,5.4203,5.3876,5.3549,5.3241,5.3183,5.2972,5.276,5.2568,5.2433,5.2356,5.2115,5.1846,5.1625,5.1385,5.1049,5.0875,5.075,5.0721,5.0793,5.0784,5.0765,5.0739,5.0608,5.0553,5.0218,4.9994,4.9746,4.9538,4.9087,4.8332,4.7812,4.753,4.709,4.6582,4.6445,4.6582,4.6445,4.6289,4.623,4.6172,4.623,4.623,4.6269,4.6289,4.6269,5.5684,5.5684,5.5684,5.5684,5.5684,5.5684,5.5684,5.5684,5.5684,5.5684,5.5684,5.5684,5.5684,5.5684,5.5684,5.5684,5.5684,5.5684,5.5684,5.5684,5.5684,5.5684,5.5684,5.5684,5.5684,5.5684,5.5684,5.5684,5.5684,5.5684,5.5684,5.5684,5.5684,5.5684,5.5684,5.5684,5.5684,5.5684,5.5684,5.5684,5.5684,5.5684,5.5684,5.5684,5.5684,5.5684,5.5684,5.5684,5.5684,5.5684,5.5684,5.5684,5.5684,5.5684,5.5684,5.5684,5.5684,5.5684,5.5684,5.5684,5.5684,5.5684,5.5684,5.5684,5.5684,5.5684,5.5684,5.5684,5.5415,5.5184,5.5164,5.5088,5.478,5.4203,5.3953,5.3587,5.3337,5.3145,5.2991,5.2953,5.2769,5.2692,5.2529,5.2202,5.1837,5.1337,5.1202,5.0818,5.0759,5.073,5.0726,5.0767,5.074,5.0867,5.0811,5.0461,5.0128,4.9851,4.9557,4.9121,4.867,4.8272,4.7988,4.7598,4.7226,4.6891,4.6867,4.6747,4.6206,4.6035,4.6143,4.6161,4.6152,4.6191,4.6211,5.5684,5.5684,5.5684,5.5684,5.5684,5.5684,5.5684,5.5684,5.5684,5.5684,5.5684,5.5684,5.5684,5.5684,5.5684,5.5684,5.5684,5.5684,5.5684,5.5684,5.5684,5.5684,5.5684,5.5684,5.5684,5.5684,5.5684,5.5684,5.5684,5.5684,5.5684,5.5684,5.5684,5.5684,5.5684,5.5684,5.5684,5.5684,5.5684,5.5684,5.5684,5.5684,5.5684,5.5684,5.5684,5.5684,5.5684,5.5684,5.5684,5.5684,5.5684,5.5684,5.5684,5.5684,5.5684,5.5684,5.5684,5.5684,5.5684,5.5684,5.5684,5.5684,5.5684,5.5684,5.5684,5.5684,5.5684,5.5684,5.5684,5.5684,5.5684,5.5684,5.5453,5.4857,5.4722,5.4357,5.428,5.4126,5.4068,5.3972,5.3683,5.3587,5.3356,5.3087,5.2741,5.2202,5.1683,5.1279,5.0846,5.0731,5.0712,5.073,5.0757,5.0805,5.0859,5.0767,5.0444,5.0157,4.9931,4.974,4.937,4.8939,4.8793,4.8579,4.8072,4.7673,4.7524,4.7255,4.6817,4.6397,4.6173,4.6157,4.6072,4.6101,4.6145,5.5684,5.5684,5.5684,5.5684,5.5684,5.5684,5.5684,5.5684,5.5684,5.5684,5.5684,5.5684,5.5684,5.5684,5.5684,5.5684,5.5684,5.5684,5.5684,5.5684,5.5684,5.5684,5.5684,5.5684,5.5684,5.5684,5.5684,5.5684,5.5684,5.5684,5.5684,5.5684,5.5684,5.5684,5.5684,5.5684,5.5684,5.5684,5.5684,5.5684,5.5684,5.5684,5.5684,5.5684,5.5684,5.5684,5.5684,5.5684,5.5684,5.5684,5.5684,5.5684,5.5684,5.5684,5.5684,5.5684,5.5684,5.5684,5.5684,5.5684,5.5684,5.5684,5.5684,5.5684,5.5684,5.5684,5.5684,5.5684,5.5684,5.5684,5.5684,5.5684,5.5665,5.5511,5.553,5.5434,5.5453,5.5395,5.5376,5.5164,5.4741,5.4453,5.3972,5.3664,5.3683,5.3222,5.2683,5.2125,5.1606,5.0789,5.075,5.0693,5.0702,5.0702,5.072,5.0782,5.0694,5.0383,5.05,5.0332,4.9956,4.966,4.955,4.9285,4.8785,4.8414,4.8097,4.7807,4.7527,4.7138,4.6909,4.6342,4.6315,4.6136,4.6113,5.5684,5.5684,5.5684,5.5684,5.5684,5.5684,5.5684,5.5684,5.5684,5.5684,5.5684,5.5684,5.5684,5.5684,5.5684,5.5684,5.5684,5.5684,5.5684,5.5684,5.5684,5.5684,5.5684,5.5684,5.5684,5.5684,5.5684,5.5703,5.5703,5.5703,5.5761,5.5684,5.5953,5.5876,5.5857,5.5722,5.5818,5.5799,5.5818,5.5684,5.5684,5.5684,5.5722,5.578,5.5818,5.5838,5.5915,5.5895,5.5876,5.5761,5.5722,5.5703,5.5684,5.5684,5.5684,5.5684,5.5684,5.5684,5.5684,5.5684,5.5684,5.5684,5.5684,5.5684,5.5684,5.5684,5.5684,5.5684,5.5684,5.5684,5.5684,5.5684,5.5684,5.5684,5.5684,5.5684,5.5684,5.5684,5.5684,5.5607,5.5203,5.5107,5.4626,5.4703,5.4664,5.4241,5.3741,5.3126,5.2452,5.1645,5.1,5.0952,5.0856,5.0914,5.0741,5.073,5.0702,5.0673,5.0718,5.0743,5.0471,5.0226,5.0254,5.0012,4.9582,4.9045,4.8494,4.8314,4.8311,4.8245,4.8002,4.7184,4.6535,4.6455,4.621,5.5684,5.5684,5.5684,5.5684,5.5684,5.5684,5.5684,5.5684,5.5684,5.5684,5.5684,5.5684,5.5684,5.5684,5.5684,5.5684,5.5684,5.5684,5.5684,5.5684,5.5684,5.5684,5.5684,5.5703,5.5684,5.5703,5.5703,5.5684,5.5818,5.6165,5.6319,5.6838,5.6722,5.6703,5.6819,5.6915,5.6838,5.6549,5.6203,5.5818,5.5742,5.578,5.5857,5.6165,5.6203,5.6299,5.6607,5.6646,5.6549,5.6299,5.6203,5.5992,5.5857,5.5684,5.5684,5.5684,5.5684,5.5684,5.5684,5.5684,5.5684,5.5684,5.5684,5.5684,5.5684,5.5684,5.5684,5.5684,5.5684,5.5684,5.5684,5.5684,5.5684,5.5684,5.5684,5.5684,5.5684,5.5684,5.5684,5.5684,5.5645,5.5626,5.5607,5.5684,5.5568,5.503,5.4549,5.403,5.3414,5.2722,5.1914,5.1471,5.1318,5.1202,5.0991,5.0779,5.0741,5.0721,5.0693,5.0692,5.0683,5.0654,5.0533,5.0496,5.044,4.9937,4.9504,4.9293,4.9228,4.916,4.8984,4.8262,4.7558,4.7112,4.6765,5.5684,5.5684,5.5684,5.5684,5.5684,5.5684,5.5684,5.5684,5.5684,5.5684,5.5684,5.5684,5.5684,5.5684,5.5684,5.5684,5.5684,5.5684,5.5684,5.5684,5.5684,5.5761,5.5915,5.5771,5.5857,5.578,5.5761,5.5818,5.6107,5.6646,5.7453,5.828,5.8107,5.7934,5.7838,5.7877,5.778,5.7607,5.6915,5.6319,5.6088,5.603,5.6126,5.6926,5.7118,5.7223,5.7915,5.8107,5.7953,5.7376,5.6887,5.6511,5.5972,5.5684,5.5684,5.5684,5.5684,5.5684,5.5684,5.5684,5.5684,5.5684,5.5684,5.5684,5.5684,5.5684,5.5684,5.5684,5.5684,5.5684,5.5684,5.5684,5.5684,5.5684,5.5684,5.5684,5.5684,5.5684,5.5684,5.5684,5.5684,5.5684,5.5684,5.5684,5.5684,5.5453,5.5222,5.4761,5.4395,5.376,5.301,5.2241,5.2029,5.1818,5.1279,5.1068,5.0856,5.0798,5.076,5.0683,5.0683,5.0712,5.0739,5.0728,5.0733,5.0948,5.0742,5.0397,5.0137,5.0137,4.9844,4.9297,4.8691,4.8164,4.7697,5.5684,5.5684,5.5684,5.5684,5.5684,5.5684,5.5684,5.5684,5.5684,5.5684,5.5684,5.5684,5.5684,5.5684,5.5684,5.5684,5.5684,5.5684,5.5684,5.5684,5.5684,5.6069,5.6406,5.6099,5.6165,5.6291,5.6252,5.6222,5.6876,5.7569,5.805,5.8338,5.8473,5.8569,5.855,5.855,5.8531,5.8569,5.7992,5.7588,5.7607,5.6626,5.6299,5.7223,5.7703,5.7723,5.8204,5.8377,5.8261,5.7953,5.728,5.6588,5.578,5.5742,5.5703,5.5684,5.5684,5.5684,5.5684,5.5684,5.5684,5.5684,5.5684,5.5684,5.5684,5.5684,5.5684,5.5684,5.5684,5.5684,5.5684,5.5684,5.5684,5.5684,5.5684,5.5684,5.5684,5.5684,5.5684,5.5684,5.5684,5.5684,5.5684,5.5684,5.5684,5.5665,5.5607,5.5415,5.5338,5.4895,5.4126,5.3433,5.2991,5.2626,5.1972,5.1548,5.1433,5.1068,5.0943,5.0818,5.0721,5.0702,5.073,5.0871,5.0971,5.1074,5.119,5.1197,5.0996,5.0859,5.0742,5.0215,4.9961,4.9512,4.9023,5.5684,5.5684,5.5684,5.5684,5.5684,5.5684,5.5684,5.5684,5.5684,5.5684,5.5684,5.5684,5.5684,5.5684,5.5684,5.5722,5.5722,5.5684,5.5684,5.5684,5.5934,5.6261,5.6406,5.6599,5.7022,5.7195,5.7165,5.7338,5.7953,5.8492,5.8915,5.9242,5.9338,5.9319,5.9358,5.9377,5.9338,5.9435,5.9031,5.9011,5.905,5.8011,5.7511,5.83,5.855,5.8588,5.9088,5.9358,5.9146,5.8761,5.805,5.7223,5.6588,5.6357,5.6088,5.5818,5.5684,5.5684,5.5684,5.5684,5.5684,5.5684,5.5684,5.5684,5.5684,5.5684,5.5684,5.5684,5.5684,5.5684,5.5684,5.5684,5.5684,5.5684,5.5684,5.5684,5.5684,5.5684,5.5684,5.5684,5.5684,5.5684,5.5684,5.5684,5.5684,5.5684,5.5684,5.5684,5.5684,5.5684,5.503,5.4511,5.403,5.3395,5.2702,5.2337,5.2164,5.1741,5.126,5.1068,5.0991,5.0789,5.073,5.1041,5.114,5.1011,5.1145,5.1308,5.1312,5.1074,5.1133,5.1133,5.0898,5.0625,5.0234,5.5684,5.5684,5.5684,5.5684,5.5684,5.5684,5.5684,5.5684,5.5684,5.5684,5.5684,5.5684,5.5684,5.5684,5.5703,5.578,5.5895,5.6088,5.5992,5.6222,5.6242,5.7011,5.7349,5.7349,5.7684,5.805,5.8204,5.8627,5.9184,5.9569,6.0012,6.0666,6.08,6.0762,6.08,6.0742,6.055,6.0319,6.0108,6.0127,5.98,5.9281,5.9069,5.9242,5.9627,5.9992,6.0492,6.0627,6.0262,5.9704,5.8877,5.805,5.73,5.6934,5.6522,5.6175,5.5761,5.5742,5.5684,5.5684,5.5684,5.5684,5.5684,5.5684,5.5684,5.5684,5.5684,5.5684,5.5684,5.5684,5.5684,5.5684,5.5684,5.5684,5.5684,5.5684,5.5684,5.5684,5.5684,5.5684,5.5684,5.5684,5.5684,5.5684,5.5684,5.5684,5.5684,5.5684,5.5684,5.5684,5.5395,5.5126,5.4857,5.4203,5.3491,5.3241,5.3049,5.2491,5.2049,5.1625,5.1375,5.1578,5.1597,5.1423,5.1458,5.1399,5.1247,5.132,5.1281,5.1247,5.1191,5.123,5.1191,5.0996,5.1152,5.5684,5.5684,5.5684,5.5684,5.5684,5.5684,5.5684,5.5684,5.5684,5.5684,5.5722,5.5703,5.5684,5.5703,5.5684,5.5992,5.6722,5.6761,5.728,5.7742,5.7453,5.8146,5.8588,5.8357,5.8223,5.8569,5.9031,5.9377,5.98,6.0262,6.0569,6.0781,6.08,6.08,6.08,6.08,6.0762,6.0666,6.0666,6.0589,6.0204,5.9781,5.9531,5.9646,5.9877,6.0204,6.0531,6.0762,6.0685,6.0339,5.9742,5.8915,5.8204,5.755,5.7099,5.6579,5.6145,5.5818,5.578,5.5703,5.5684,5.5684,5.5684,5.5684,5.5684,5.5684,5.5684,5.5684,5.5684,5.5684,5.5684,5.5684,5.5684,5.5684,5.5684,5.5684,5.5684,5.5684,5.5684,5.5684,5.5684,5.5684,5.5684,5.5684,5.5684,5.5684,5.5684,5.5684,5.5684,5.5684,5.5684,5.5588,5.5453,5.5049,5.4395,5.4241,5.3991,5.3395,5.2837,5.2452,5.2375,5.2741,5.2695,5.2278,5.2045,5.1973,5.18,5.1653,5.1366,5.1321,5.117,5.1133,5.1168,5.1203,5.124]}]]